[[{"header":{"parameterUnit":"m.s-1","parameterCategory":1,"la1":30.6,"la2":28.766,"lo1":-90.7593,"lo2":-88.6598,"dx":0.0162,"dy":0.0183,"nx":116,"ny":114,"refTime":"2023-01-24T06:00:00:Z","depth":0,"parameterNumber":2,"parameterNumberName":"U-component_of_WINDS"},"data":[0.0,0.0,0.0,0.0,0.0,0.0,0.0,0.0,0.0,0.0,0.0,0.0,0.0,0.0,0.0,0.0,0.0,0.0,0.0,0.0,0.0,0.0,0.0,0.0,0.0,0.0,0.0,0.0,0.0,0.0,0.0,0.0,0.0,0.0,0.0,0.0,0.0,0.0,0.0,0.0,0.0,0.0,0.0,0.0,0.0,0.0,0.0,0.0,0.0,0.0,0.0,0.0,0.0,0.0,0.0,0.0,0.0,0.0,0.0,0.0,0.0,0.0,0.0,0.0,0.0,0.0,0.0,0.0,0.0,0.0,0.0,0.0,0.0,0.0,0.0,0.0,0.0,0.0,0.0,0.0,0.0,0.0,0.0,0.0,0.0,0.0,0.0,0.0,0.0,0.0,0.0,0.0,0.0,0.0,0.0,0.0,0.0,0.0,0.0,0.0,0.0,0.0,0.0,0.0,0.0,0.0,0.0,0.0,0.0,0.0,0.0,0.0,0.0,0.0,0.0,0.0,0.0,0.0,0.0,0.0,0.0,0.0,0.0,0.0,0.0,0.0,0.0,0.0,0.0,0.0,0.0,0.0,0.0,0.0,0.0,0.0,0.0,0.0,0.0,0.0,0.0,0.0,0.0,0.0,0.0,0.0,0.0,0.0,0.0,0.0,0.0,0.0,0.0,0.0,0.0,0.0,0.0,0.0,0.0,0.0,0.0,0.0,0.0,0.0,0.0,0.0,0.0,0.0,0.0,0.0,0.0,0.0,0.0,0.0,0.0,0.0,0.0,0.0,0.0,0.0,0.0,0.0,0.0,0.0,0.0,0.0,0.0,0.0,0.0,0.0,0.0,0.0,0.0,0.0,0.0,0.0,0.0,0.0,0.0,0.0,0.0,0.0,0.0,0.0,0.0,0.0,0.0,0.0,0.0,0.0,0.0,0.0,0.0,0.0,0.0,0.0,0.0,0.0,0.0,0.0,0.0,0.0,0.0,0.0,0.0,0.0,0.0,0.0,0.0,0.0,0.0,0.0,0.0,0.0,0.0,0.0,0.0,0.0,0.0,0.0,0.0,0.0,0.0,0.0,0.0,0.0,0.0,0.0,0.0,0.0,0.0,0.0,0.0,0.0,0.0,0.0,0.0,0.0,0.0,0.0,0.0,0.0,0.0,0.0,0.0,0.0,0.0,0.0,0.0,0.0,0.0,0.0,0.0,0.0,0.0,0.0,0.0,0.0,0.0,0.0,0.0,0.0,0.0,0.0,0.0,0.0,0.0,0.0,0.0,0.0,0.0,0.0,0.0,0.0,0.0,0.0,0.0,0.0,0.0,0.0,0.0,0.0,0.0,0.0,0.0,0.0,0.0,0.0,0.0,0.0,0.0,0.0,0.0,0.0,0.0,0.0,0.0,0.0,0.0,0.0,0.0,0.0,0.0,0.0,0.0,0.0,0.0,0.0,0.0,0.0,0.0,0.0,0.0,0.0,0.0,0.0,0.0,0.0,0.0,0.0,0.0,0.0,0.0,0.0,0.0,0.0,0.0,0.0,0.0,0.0,0.0,0.0,0.0,0.0,0.0,0.0,0.0,0.0,0.0,0.0,0.0,0.0,0.0,0.0,0.0,0.0,0.0,0.0,0.0,0.0,0.0,0.0,0.0,0.0,0.0,0.0,0.0,0.0,0.0,0.0,0.0,0.0,0.0,0.0,0.0,0.0,0.0,0.0,0.0,0.0,0.0,0.0,0.0,0.0,0.0,0.0,0.0,0.0,0.0,0.0,0.0,0.0,0.0,0.0,0.0,0.0,0.0,0.0,0.0,0.0,0.0,0.0,0.0,0.0,0.0,0.0,0.0,0.0,0.0,0.0,0.0,0.0,0.0,0.0,0.0,0.0,0.0,0.0,0.0,0.0,0.0,0.0,0.0,0.0,0.0,0.0,0.0,0.0,0.0,0.0,0.0,0.0,0.0,0.0,0.0,0.0,0.0,0.0,0.0,0.0,0.0,0.0,0.0,0.0,0.0,0.0,0.0,0.0,0.0,0.0,0.0,0.0,0.0,0.0,0.0,0.0,0.0,0.0,0.0,0.0,0.0,0.0,0.0,0.0,0.0,0.0,0.0,0.0,0.0,0.0,0.0,0.0,0.0,0.0,0.0,0.0,0.0,0.0,0.0,0.0,0.0,0.0,0.0,0.0,0.0,0.0,0.0,0.0,0.0,0.0,0.0,0.0,0.0,0.0,0.0,0.0,0.0,0.0,0.0,0.0,0.0,0.0,0.0,0.0,0.0,0.0,0.0,0.0,0.0,0.0,0.0,0.0,0.0,0.0,0.0,0.0,0.0,0.0,0.0,0.0,0.0,0.0,0.0,0.0,0.0,0.0,0.0,0.0,0.0,0.0,0.0,0.0,0.0,0.0,0.0,0.0,0.0,0.0,0.0,0.0,0.0,0.0,0.0,0.0,0.0,0.0,0.0,0.0,0.0,0.0,0.0,0.0,0.0,0.0,0.0,0.0,0.0,0.0,0.0,0.0,0.0,0.0,0.0,0.0,0.0,0.0,0.0,0.0,0.0,0.0,0.0,0.0,0.0,0.0,0.0,0.0,0.0,0.0,0.0,0.0,0.0,0.0,0.0,0.0,0.0,0.0,0.0,0.0,0.0,0.0,0.0,0.0,0.0,0.0,0.0,0.0,0.0,0.0,0.0,0.0,0.0,0.0,0.0,0.0,0.0,0.0,0.0,0.0,0.0,0.0,0.0,0.0,0.0,0.0,0.0,0.0,0.0,0.0,0.0,0.0,0.0,0.0,0.0,0.0,0.0,0.0,0.0,0.0,0.0,0.0,0.0,0.0,0.0,0.0,0.0,0.0,0.0,0.0,0.0,0.0,0.0,0.0,0.0,0.0,0.0,0.0,0.0,0.0,0.0,0.0,0.0,0.0,0.0,0.0,0.0,0.0,0.0,0.0,0.0,0.0,0.0,0.0,0.0,0.0,0.0,0.0,0.0,0.0,0.0,0.0,0.0,0.0,0.0,0.0,0.0,0.0,0.0,0.0,0.0,0.0,0.0,0.0,0.0,0.0,0.0,0.0,0.0,0.0,0.0,0.0,0.0,0.0,0.0,0.0,0.0,0.0,0.0,0.0,0.0,0.0,0.0,0.0,0.0,0.0,0.0,0.0,0.0,0.0,0.0,0.0,0.0,0.0,0.0,0.0,0.0,0.0,0.0,0.0,0.0,0.0,0.0,0.0,0.0,0.0,0.0,0.0,0.0,0.0,0.0,0.0,0.0,0.0,0.0,0.0,0.0,0.0,0.0,0.0,0.0,0.0,0.0,0.0,0.0,0.0,0.0,0.0,0.0,0.0,0.0,0.0,0.0,0.0,0.0,0.0,0.0,0.0,0.0,0.0,0.0,0.0,0.0,0.0,0.0,0.0,0.0,0.0,0.0,0.0,0.0,0.0,0.0,0.0,0.0,0.0,0.0,0.0,0.0,0.0,0.0,0.0,0.0,0.0,0.0,0.0,0.0,0.0,0.0,0.0,0.0,0.0,0.0,0.0,0.0,0.0,0.0,0.0,0.0,0.0,0.0,0.0,0.0,0.0,0.0,0.0,0.0,0.0,0.0,0.0,0.0,0.0,0.0,0.0,0.0,0.0,0.0,0.0,0.0,0.0,0.0,0.0,0.0,0.0,0.0,0.0,0.0,0.0,0.0,0.0,0.0,0.0,0.0,0.0,0.0,0.0,0.0,0.0,0.0,0.0,0.0,0.0,0.0,0.0,0.0,0.0,0.0,0.0,0.0,0.0,0.0,0.0,0.0,0.0,0.0,0.0,0.0,0.0,0.0,0.0,0.0,0.0,0.0,0.0,0.0,0.0,0.0,0.0,0.0,0.0,0.0,0.0,0.0,0.0,0.0,0.0,0.0,0.0,0.0,0.0,0.0,0.0,0.0,0.0,0.0,0.0,0.0,0.0,0.0,0.0,0.0,0.0,0.0,0.0,0.0,0.0,0.0,0.0,0.0,0.0,0.0,0.0,0.0,0.0,0.0,0.0,0.0,0.0,0.0,0.0,0.0,0.0,0.0,0.0,0.0,0.0,0.0,0.0,0.0,0.0,0.0,0.0,0.0,0.0,0.0,0.0,0.0,0.0,0.0,0.0,0.0,0.0,0.0,0.0,0.0,0.0,0.0,0.0,0.0,0.0,0.0,0.0,0.0,0.0,0.0,0.0,0.0,0.0,0.0,0.0,0.0,0.0,0.0,0.0,0.0,0.0,0.0,0.0,0.0,0.0,0.0,0.0,0.0,0.0,0.0,0.0,0.0,0.0,0.0,0.0,0.0,0.0,0.0,0.0,0.0,0.0,0.0,0.0,0.0,0.0,0.0,0.0,0.0,0.0,0.0,0.0,0.0,0.0,0.0,0.0,0.0,0.0,0.0,0.0,0.0,0.0,0.0,0.0,0.0,0.0,0.0,0.0,0.0,0.0,0.0,0.0,0.0,0.0,0.0,0.0,0.0,0.0,0.0,0.0,0.0,0.0,0.0,0.0,0.0,0.0,0.0,0.0,0.0,0.0,0.0,0.0,0.0,0.0,0.0,0.0,0.0,0.0,0.0,0.0,0.0,0.0,0.0,0.0,0.0,0.0,0.0,0.0,0.0,0.0,0.0,0.0,0.0,0.0,0.0,0.0,0.0,0.0,0.0,0.0,0.0,0.0,0.0,0.0,0.0,0.0,0.0,0.0,0.0,0.0,0.0,0.0,0.0,0.0,0.0,0.0,0.0,0.0,0.0,0.0,0.0,0.0,0.0,0.0,0.0,0.0,0.0,0.0,0.0,0.0,0.0,0.0,0.0,0.0,0.0,0.0,0.0,0.0,0.0,0.0,0.0,0.0,0.0,0.0,0.0,0.0,0.0,0.0,0.0,0.0,0.0,0.0,0.0,0.0,0.0,0.0,0.0,0.0,0.0,0.0,0.0,0.0,0.0,0.0,0.0,0.0,0.0,0.0,0.0,0.0,0.0,0.0,0.0,0.0,0.0,0.0,0.0,0.0,0.0,0.0,0.0,0.0,0.0,0.0,0.0,0.0,0.0,0.0,0.0,0.0,0.0,0.0,0.0,0.0,0.0,0.0,0.0,0.0,0.0,0.0,0.0,0.0,0.0,0.0,0.0,0.0,0.0,0.0,0.0,0.0,0.0,0.0,0.0,0.0,0.0,0.0,0.0,0.0,0.0,0.0,0.0,0.0,0.0,0.0,0.0,0.0,0.0,0.0,0.0,0.0,0.0,0.0,0.0,0.0,0.0,0.0,0.0,0.0,0.0,0.0,0.0,0.0,0.0,0.0,0.0,0.0,0.0,0.0,0.0,0.0,0.0,0.0,0.0,0.0,0.0,0.0,0.0,0.0,0.0,0.0,0.0,0.0,0.0,0.0,0.0,0.0,0.0,0.0,0.0,0.0,0.0,0.0,0.0,0.0,0.0,0.0,0.0,0.0,0.0,0.0,0.0,0.0,0.0,0.0,0.0,0.0,0.0,0.0,0.0,0.0,0.0,0.0,0.0,0.0,0.0,0.0,0.0,0.0,0.0,0.0,0.0,0.0,0.0,0.0,0.0,0.0,0.0,0.0,0.0,0.0,0.0,0.0,0.0,0.0,0.0,0.0,0.0,0.0,0.0,0.0,0.0,0.0,0.0,0.0,0.0,0.0,0.0,0.0,0.0,0.0,0.0,0.0,0.0,0.0,0.0,0.0,0.0,0.0,0.0,0.0,0.0,0.0,0.0,0.0,0.0,0.0,0.0,0.0,0.0,0.0,0.0,0.0,0.0,0.0,0.0,0.0,0.0,0.0,0.0,0.0,0.0,0.0,0.0,0.0,0.0,0.0,0.0,0.0,0.0,0.0,0.0,0.0,0.0,0.0,0.0,0.0,0.0,0.0,0.0,0.0,0.0,0.0,0.0,0.0,0.0,0.0,0.0,0.0,0.0,0.0,0.0,0.0,0.0,0.0,0.0,0.0,0.0,0.0,0.0,0.0,0.0,0.0,0.0,0.0,0.0,0.0,0.0,0.0,0.0,0.0,0.0,0.0,0.0,0.0,0.0,0.0,0.0,0.0,2.5426,2.5475,0.0,0.0,0.0,0.0,0.0,0.0,0.0,0.0,0.0,0.0,0.0,0.0,0.0,0.0,0.0,0.0,0.0,0.0,0.0,0.0,0.0,0.0,0.0,0.0,0.0,0.0,0.0,0.0,0.0,0.0,0.0,0.0,0.0,0.0,0.0,0.0,0.0,0.0,0.0,0.0,0.0,0.0,0.0,0.0,0.0,0.0,0.0,0.0,0.0,0.0,0.0,0.0,0.0,0.0,0.0,0.0,0.0,0.0,0.0,0.0,0.0,0.0,0.0,0.0,0.0,0.0,0.0,0.0,0.0,0.0,0.0,0.0,0.0,0.0,0.0,0.0,0.0,0.0,0.0,0.0,0.0,0.0,0.0,0.0,0.0,0.0,0.0,0.0,0.0,0.0,0.0,0.0,0.0,0.0,0.0,0.0,0.0,0.0,0.0,0.0,0.0,0.0,0.0,0.0,0.0,0.0,0.0,0.0,0.0,0.0,0.0,0.0,0.0,0.0,2.7007,2.6414,0.0,0.0,0.0,0.0,0.0,0.0,0.0,0.0,0.0,0.0,0.0,0.0,0.0,0.0,0.0,0.0,0.0,0.0,0.0,0.0,0.0,0.0,0.0,0.0,0.0,0.0,0.0,0.0,0.0,0.0,0.0,0.0,0.0,0.0,0.0,0.0,0.0,0.0,0.0,0.0,0.0,0.0,0.0,0.0,0.0,0.0,0.0,0.0,0.0,0.0,0.0,0.0,0.0,0.0,0.0,0.0,0.0,0.0,0.0,0.0,0.0,0.0,0.0,0.0,0.0,0.0,0.0,0.0,0.0,0.0,0.0,0.0,0.0,0.0,0.0,0.0,0.0,0.0,0.0,0.0,0.0,0.0,0.0,0.0,0.0,0.0,0.0,0.0,0.0,0.0,0.0,0.0,0.0,0.0,0.0,0.0,0.0,0.0,0.0,0.0,0.0,0.0,0.0,0.0,0.0,0.0,0.0,0.0,3.0723,3.1514,3.2198,3.2198,3.1807,3.0996,2.8848,2.7539,2.6953,2.6992,0.0,0.0,0.0,0.0,0.0,0.0,0.0,0.0,0.0,0.0,0.0,0.0,0.0,0.0,0.0,0.0,0.0,0.0,0.0,0.0,0.0,0.0,0.0,0.0,0.0,0.0,0.0,0.0,0.0,0.0,0.0,0.0,0.0,0.0,0.0,0.0,0.0,0.0,0.0,0.0,0.0,0.0,0.0,0.0,0.0,0.0,0.0,0.0,0.0,0.0,0.0,0.0,0.0,0.0,0.0,0.0,0.0,0.0,0.0,0.0,0.0,0.0,0.0,0.0,0.0,0.0,0.0,0.0,0.0,0.0,0.0,0.0,0.0,0.0,0.0,0.0,0.0,0.0,0.0,0.0,0.0,0.0,0.0,0.0,0.0,0.0,2.4512,2.5024,0.0,0.0,0.0,0.0,0.0,0.0,0.0,0.0,0.0,0.0,0.0,0.0,0.0,2.8859,2.9687,3.0566,3.1094,3.1269,3.1758,3.2081,3.2198,3.2198,3.214,3.2022,3.167,0.0,2.907,2.7598,0.0,0.0,0.0,0.0,0.0,0.0,0.0,0.0,0.0,0.0,0.0,0.0,0.0,0.0,0.0,0.0,0.0,0.0,0.0,0.0,0.0,0.0,0.0,0.0,0.0,0.0,0.0,0.0,0.0,0.0,0.0,0.0,0.0,0.0,0.0,0.0,0.0,0.0,0.0,0.0,0.0,0.0,0.0,0.0,0.0,0.0,0.0,0.0,0.0,0.0,0.0,0.0,0.0,0.0,0.0,0.0,0.0,0.0,0.0,0.0,0.0,0.0,0.0,0.0,0.0,0.0,0.0,0.0,0.0,0.0,0.0,0.0,0.0,0.0,0.0,0.0,0.0,0.0,0.0,0.0,0.0,0.0,0.0,0.0,0.0,2.541,2.5859,2.5845,2.6191,2.6615,0.0,0.0,0.0,0.0,0.0,0.0,0.0,0.0,0.0,2.9805,3.0664,3.1387,3.2012,3.2871,3.3672,3.4414,3.5078,3.5644,3.6113,3.6113,3.603,3.5776,3.5287,3.4251,3.2687,3.0195,2.9082,2.884,0.0,0.0,0.0,0.0,2.8758,2.8917,0.0,0.0,0.0,0.0,0.0,0.0,0.0,0.0,0.0,0.0,0.0,0.0,0.0,0.0,0.0,1.8693,0.0,0.0,0.0,0.0,0.0,0.0,0.0,0.0,0.0,0.0,0.0,0.0,0.0,0.0,0.0,0.0,0.0,0.0,0.0,0.0,0.0,0.0,0.0,0.0,0.0,0.0,0.0,0.0,0.0,0.0,0.0,0.0,0.0,0.0,0.0,0.0,0.0,0.0,0.0,0.0,0.0,0.0,0.0,0.0,0.0,0.0,0.0,0.0,0.0,0.0,0.0,0.0,0.0,0.0,0.0,0.0,0.0,0.0,0.0,0.0,0.0,2.6172,2.6738,2.6426,2.7051,2.7676,0.0,0.0,0.0,0.0,0.0,0.0,2.9991,3.0996,3.1934,3.2812,3.3059,3.3437,3.397,3.4693,3.5287,3.5712,3.7528,3.8399,3.8363,3.894,3.8965,3.8571,3.7793,3.6855,3.5644,3.2734,3.084,2.9726,2.9512,2.9238,2.9023,2.9696,3.0009,3.0185,0.0,0.0,0.0,0.0,0.0,0.0,0.0,0.0,0.0,0.0,0.0,0.0,0.0,0.0,1.881,2.1037,1.9626,1.9223,0.0,0.0,0.0,0.0,0.0,0.0,0.0,0.0,0.0,0.0,0.0,0.0,0.0,0.0,0.0,0.0,0.0,0.0,0.0,0.0,0.0,0.0,0.0,0.0,0.0,0.0,0.0,0.0,0.0,0.0,0.0,0.0,0.0,0.0,0.0,0.0,0.0,0.0,0.0,0.0,0.0,0.0,0.0,0.0,0.0,0.0,0.0,0.0,0.0,0.0,0.0,0.0,0.0,0.0,0.0,0.0,0.0,0.0,0.0,0.0,0.0,2.6387,2.7832,0.0,0.0,0.0,0.0,3.0,3.126,3.2305,3.3113,3.4434,3.5527,3.6421,3.4987,3.4622,3.5483,3.5912,3.5067,3.3054,3.7608,3.8462,3.6033,3.8213,3.8965,3.8591,3.8086,3.7637,3.6992,3.4375,3.2793,3.1964,3.1113,3.0781,3.0762,3.082,3.1074,3.1396,0.0,0.0,0.0,0.0,0.0,0.0,0.0,0.0,0.0,0.0,0.0,0.0,0.0,2.0067,2.0844,2.1479,2.1989,2.2148,2.1832,0.0,0.0,0.0,0.0,0.0,0.0,0.0,0.0,0.0,0.0,0.0,0.0,0.0,0.0,0.0,0.0,0.0,0.0,0.0,0.0,0.0,0.0,0.0,0.0,0.0,0.0,0.0,0.0,0.0,0.0,0.0,0.0,0.0,0.0,0.0,0.0,0.0,0.0,0.0,0.0,0.0,0.0,0.0,0.0,0.0,0.0,0.0,0.0,0.0,0.0,0.0,0.0,0.0,0.0,0.0,0.0,0.0,0.0,0.0,0.0,2.959,3.0469,0.0,3.1768,3.1562,3.2109,3.3828,3.319,3.3345,3.4733,3.4059,3.4132,3.5232,3.4959,3.5103,3.5728,3.6139,3.5908,3.5173,3.8731,3.9915,3.9012,4.088,4.1465,4.0996,3.9982,3.918,3.8437,3.7226,3.541,3.3391,3.3078,3.2628,3.2226,3.3027,3.3437,3.3613,0.0,0.0,0.0,0.0,0.0,0.0,0.0,0.0,0.0,0.0,0.0,1.9948,2.06,2.155,2.2138,2.2184,2.2953,2.307,2.21,0.0,0.0,0.0,0.0,0.0,0.0,0.0,0.0,0.0,0.0,0.0,0.0,0.0,0.0,0.0,0.0,0.0,0.0,0.0,0.0,0.0,0.0,0.0,2.293,0.0,0.0,0.0,0.0,0.0,0.0,0.0,0.0,0.0,0.0,0.0,0.0,0.0,0.0,0.0,0.0,0.0,0.0,0.0,0.0,0.0,0.0,0.0,0.0,0.0,0.0,0.0,0.0,0.0,0.0,0.0,0.0,0.0,0.0,3.0165,3.1738,3.2859,3.3809,3.4295,3.4183,3.3912,3.4059,3.4808,3.4,3.4153,3.5603,3.4683,3.4559,3.5538,3.5183,3.5123,3.5447,3.5668,3.5441,3.4704,3.8077,3.9141,3.8261,4.074,4.1561,4.0972,4.0647,3.9757,3.8519,3.8101,3.6207,3.3729,3.4931,3.5117,3.4883,3.6035,3.6445,3.6303,0.0,0.0,0.0,0.0,0.0,0.0,0.0,0.0,0.0,0.0,1.9124,1.9274,2.1344,2.2105,2.2705,2.3305,2.2265,2.1571,2.1571,1.9479,0.0,0.0,0.0,0.0,0.0,0.0,0.0,0.0,0.0,0.0,0.0,0.0,0.0,0.0,0.0,0.0,0.0,0.0,0.0,0.0,0.0,0.0,2.3284,0.0,0.0,0.0,0.0,0.0,0.0,0.0,0.0,0.0,0.0,0.0,0.0,0.0,0.0,0.0,0.0,0.0,0.0,0.0,0.0,0.0,0.0,0.0,0.0,0.0,0.0,0.0,0.0,0.0,0.0,0.0,0.0,0.0,2.9901,3.2743,3.4937,3.5816,3.7443,3.7362,3.4566,3.5093,3.4792,3.2888,3.383,3.4841,3.5723,3.6524,3.7106,3.7509,3.5653,3.4599,3.4599,3.4599,3.3461,3.1283,3.5559,3.6089,3.3396,3.7479,3.8955,3.8348,3.9734,3.9161,3.7201,3.671,3.5028,3.3078,3.644,3.8025,3.8528,3.9403,3.9694,3.9159,0.0,0.0,0.0,0.0,0.0,0.0,0.0,0.0,0.0,0.0,1.8167,1.9111,2.0764,2.3002,2.4502,2.4877,2.2472,2.0904,2.0823,0.0,0.0,0.0,0.0,0.0,0.0,0.0,0.0,0.0,0.0,0.0,0.0,0.0,0.0,0.0,0.0,0.0,0.0,0.0,0.0,0.0,0.0,0.0,2.4725,0.0,0.0,0.0,0.0,0.0,0.0,0.0,0.0,0.0,0.0,0.0,0.0,0.0,0.0,0.0,0.0,0.0,0.0,0.0,0.0,0.0,0.0,0.0,0.0,0.0,0.0,0.0,0.0,0.0,0.0,0.0,2.9385,3.0846,3.1229,3.1705,3.2597,3.4212,3.5129,3.5445,3.4911,3.511,3.5403,3.5844,3.4781,3.4528,3.5379,3.4017,3.3317,3.3615,3.2905,3.2616,3.2823,3.2616,3.219,3.1591,3.4559,3.5516,3.4816,3.7119,3.7948,3.7529,3.7097,3.6457,3.5663,3.4981,3.4305,3.3714,3.4574,3.4831,3.4745,3.5266,3.5132,3.4521,0.0,0.0,0.0,0.0,0.0,0.0,0.0,0.0,0.0,0.0,1.6901,1.7948,1.9279,2.1203,2.2444,2.2601,2.0551,1.9158,1.8942,0.0,0.0,0.0,0.0,1.6503,0.0,0.0,0.0,0.0,0.0,0.0,0.0,0.0,0.0,0.0,0.0,0.0,0.0,0.0,0.0,0.0,0.0,0.0,2.5707,2.7029,2.8053,2.8689,2.7538,2.7812,2.8503,2.6855,0.0,0.0,0.0,0.0,0.0,0.0,0.0,0.0,0.0,0.0,0.0,0.0,0.0,0.0,0.0,0.0,0.0,0.0,0.0,0.0,0.0,0.0,0.0,0.0,2.9759,3.122,3.2047,3.2666,3.3645,3.5405,3.6009,3.6112,3.5595,3.5553,3.5523,3.5408,3.4152,3.3662,3.4288,3.277,3.1931,3.2104,3.1824,3.1744,3.1917,3.1805,3.1711,3.1711,3.3135,3.3707,3.3644,3.5348,3.5993,3.5763,3.5832,3.5213,3.4061,3.3508,3.2674,3.1894,0.0,0.0,0.0,0.0,3.4299,3.3631,0.0,0.0,0.0,0.0,0.0,0.0,0.0,0.0,0.0,0.0,0.0,1.6028,1.7208,1.8026,1.8496,1.8568,1.7551,1.6726,0.0,0.0,0.0,1.2517,1.3247,1.4726,0.0,0.0,0.0,0.0,0.0,0.0,0.0,0.0,0.0,0.0,0.0,0.0,0.0,0.0,0.0,0.0,0.0,0.0,2.6522,2.7338,2.871,3.0148,2.9464,2.9726,3.0287,2.9525,0.0,0.0,0.0,0.0,0.0,0.0,0.0,0.0,0.0,0.0,0.0,0.0,0.0,0.0,0.0,0.0,0.0,0.0,0.0,0.0,0.0,0.0,0.0,0.0,2.9438,3.0139,3.2367,3.4303,3.5987,3.7259,3.7831,3.7522,3.5975,3.5872,3.5101,3.3157,3.2795,3.2741,3.2919,3.2438,0.0,0.0,0.0,3.1778,3.1818,3.1751,3.1738,3.1764,3.1724,3.153,3.131,3.2987,3.3583,3.344,3.5043,3.4467,3.2367,3.2072,3.0666,2.9003,3.2623,3.422,3.4568,3.4967,3.4869,3.4198,0.0,0.0,0.0,0.0,0.0,0.0,0.0,0.0,0.0,1.1729,1.279,1.3993,1.4935,1.6634,1.7884,1.8326,1.6259,1.4434,0.0,0.0,1.3137,1.3512,1.3831,1.4382,1.5179,0.0,0.0,0.0,0.0,0.0,0.0,0.0,0.0,0.0,0.0,0.0,0.0,0.0,0.0,0.0,0.0,0.0,2.8095,2.922,2.9452,2.9267,2.9794,3.0731,3.1731,3.16,3.1875,3.1894,2.9481,0.0,0.0,0.0,0.0,0.0,0.0,0.0,0.0,0.0,0.0,0.0,0.0,0.0,0.0,0.0,0.0,0.0,0.0,0.0,0.0,2.9794,3.124,3.2244,3.1948,3.2865,3.3469,3.3253,3.376,3.4004,3.3653,3.3822,3.3692,3.3036,3.2933,3.2862,3.2688,3.2567,3.2514,3.2514,3.2171,3.2131,3.242,3.1952,3.1784,3.2011,3.1784,0.0,3.1631,3.1988,3.1972,3.1672,3.1817,3.1329,3.0417,3.0161,2.9599,2.8968,2.9545,2.9831,2.9929,3.0222,3.0152,2.983,0.0,0.0,0.0,0.0,0.0,0.0,0.0,0.0,0.0,0.0,1.0935,1.1587,1.2127,1.3194,1.3968,1.4118,1.2204,0.0,0.0,1.1296,1.2275,1.4062,1.4611,1.4923,1.5072,0.0,0.0,0.0,0.0,0.0,0.0,0.0,0.0,0.0,0.0,0.0,0.0,0.0,0.0,0.0,0.0,0.0,2.9565,2.9294,2.9622,3.023,3.0032,3.1505,3.3518,3.2973,3.3209,3.3379,3.1211,2.9989,2.909,0.0,0.0,0.0,0.0,0.0,0.0,0.0,0.0,0.0,0.0,0.0,0.0,0.0,0.0,2.8246,2.7813,0.0,3.0579,3.0196,3.1715,3.2758,3.2383,3.3009,3.3267,3.2812,3.316,3.3494,3.3641,3.3788,3.3868,3.3919,3.3734,3.3587,3.344,3.3146,3.2969,3.2808,3.2527,3.2447,3.2594,3.2152,3.1957,3.2104,3.181,3.1711,3.1711,3.1711,3.1503,3.1176,3.1076,3.0675,3.01,2.9659,2.9312,2.9001,2.9045,2.8951,2.8858,2.9152,2.9259,2.9299,0.0,0.0,0.0,0.0,0.0,0.0,0.0,0.0,0.0,0.0,0.0,0.9399,0.9724,0.9924,0.9884,0.0,0.0,0.0,0.0,1.0185,1.1709,1.4569,1.5343,1.5635,1.554,1.59,0.0,0.0,0.0,0.0,0.0,0.0,0.0,0.0,0.0,0.0,0.0,0.0,0.0,0.0,0.0,0.0,3.0955,2.9396,2.9784,3.1087,3.027,3.1737,3.4044,3.3765,3.3927,3.4023,3.2875,3.2109,3.1348,2.9844,2.952,0.0,0.0,0.0,0.0,0.0,0.0,0.0,0.0,0.0,2.8092,2.9237,2.9346,2.9075,2.8549,3.0051,3.1211,3.0816,3.1885,3.2862,3.3169,3.3681,3.3961,3.3708,3.3895,3.4148,3.4389,3.4456,3.4549,3.467,3.4456,3.4269,3.4148,3.3681,3.328,3.2986,3.2795,3.2674,3.2674,3.2278,3.2131,3.2185,3.1885,3.1711,3.1711,3.1711,3.1503,3.1176,3.1102,3.0795,3.036,2.9838,2.9432,2.9188,2.9472,2.9486,2.9362,2.9579,2.9806,3.0047,0.0,0.0,0.0,0.0,0.0,0.0,0.0,0.0,0.0,0.0,0.0,0.0,0.0,0.0,0.0,0.0,0.0,0.0,1.0476,1.0759,1.2215,1.5335,1.5716,1.5935,1.6001,1.6056,0.0,0.0,0.0,0.0,0.0,0.0,0.0,0.0,0.0,0.0,0.0,0.0,0.0,0.0,0.0,0.0,3.2286,3.1249,3.0383,2.9858,3.0713,3.0766,3.0934,3.3754,3.4703,3.4832,3.5804,3.5254,3.416,3.3625,0.0,2.9579,2.9481,0.0,0.0,2.9629,2.8754,2.8194,0.0,3.0054,2.9119,2.9289,2.9892,3.0184,2.946,3.0169,3.1106,3.1818,3.2706,3.3427,3.3748,3.4347,3.4708,3.4668,3.4695,3.4735,3.4762,3.495,3.4897,3.4402,3.4336,3.4082,3.3547,3.3454,3.328,3.2986,3.2946,3.2982,3.2982,3.2385,3.2238,3.2541,3.1979,3.1711,3.1711,3.1711,3.1503,3.1149,3.0675,3.0467,3.0386,3.0007,2.9847,2.982,2.986,3.0167,3.0568,3.0386,3.0333,3.04,0.0,0.0,0.0,0.0,0.0,0.0,0.0,0.0,0.0,0.0,0.0,0.0,0.0,0.0,0.0,0.0,0.0,0.0,0.8892,0.9158,1.1205,1.5584,1.6069,1.6232,1.6218,1.6469,1.6551,0.0,0.0,0.0,0.0,0.0,0.0,0.0,0.0,0.0,0.0,0.0,0.0,0.0,0.0,0.0,3.2487,3.137,3.0247,2.9186,2.9187,2.9422,0.0,0.0,3.3743,3.4765,3.6772,3.5996,3.4336,3.4414,3.2656,0.0,2.9226,0.0,0.0,0.0,2.8279,2.881,3.0835,3.0318,2.9697,3.0698,3.0935,3.0938,3.1014,3.1877,3.2719,3.308,3.3734,3.4189,3.4148,3.4349,3.4442,3.4269,3.4095,3.4255,3.495,3.5124,3.5097,3.4843,3.467,3.4469,3.4215,3.3881,3.3627,3.3507,3.332,3.3227,3.3227,3.2652,3.2474,3.2581,3.2005,3.1711,3.1711,3.1711,3.141,3.0942,3.0354,3.01,3.01,2.9967,2.9913,2.994,3.0114,3.0373,3.0541,3.0641,3.0881,3.1189,0.0,0.0,0.0,0.0,0.0,0.0,0.0,0.0,0.0,0.0,0.0,0.0,0.0,0.0,0.0,0.0,0.0,0.0,0.0,0.7509,1.0047,1.4679,1.5847,0.0,1.6429,1.6748,1.6829,0.0,0.0,0.0,0.0,0.0,0.0,0.0,0.0,0.0,0.0,0.0,0.0,0.0,0.0,0.0,3.2099,3.0875,2.9593,2.8294,2.7602,2.7675,0.0,0.0,3.1256,3.2613,3.5597,3.4869,3.3152,3.4328,3.2915,3.0521,2.8554,0.0,0.0,2.8075,2.8514,2.9542,3.1268,3.0795,3.0397,3.1918,3.195,3.1837,3.2265,3.312,3.3788,3.3868,3.4427,3.4656,3.4362,3.4322,3.4148,3.3694,3.3427,3.3627,3.4496,3.4736,3.487,3.495,3.4763,3.4643,3.4643,3.4162,3.3881,3.3881,3.3574,3.3414,3.3414,3.2888,3.2594,3.2581,3.2005,3.1711,3.1711,3.155,3.1196,3.0755,3.0167,2.9913,2.9913,2.9913,2.9913,2.985,2.9404,2.9306,2.9397,2.9604,3.0464,3.1557,0.0,0.0,0.0,0.0,0.0,0.0,0.0,0.0,0.0,0.0,0.0,0.0,0.0,0.0,0.0,0.0,0.0,0.0,0.0,0.644,0.9182,1.2291,1.48,1.6293,1.6675,1.6696,1.6777,1.6965,0.0,0.0,0.0,0.0,0.0,0.0,0.0,0.0,0.0,0.0,0.0,0.0,0.0,0.0,3.1142,2.9967,2.843,2.6854,2.6547,0.0,0.0,0.0,2.6878,2.7566,3.173,3.1677,0.0,3.378,3.2243,0.0,0.0,0.0,2.8299,3.0203,3.0074,3.0013,3.2105,3.1812,3.1403,3.241,3.2804,3.2933,3.2946,3.3213,3.3534,3.3841,3.4427,3.4656,3.4362,3.4322,3.3988,3.3106,3.3,3.3013,3.304,3.3587,3.4042,3.4322,3.4336,3.4336,3.4336,3.4055,3.3881,3.3881,3.3574,3.3414,3.3414,3.2888,3.2594,3.2581,3.2005,3.1711,3.1698,3.1076,3.0808,3.0755,3.0167,2.9913,2.9913,2.9913,2.9913,2.9644,2.725,2.6531,2.6801,2.6813,2.8703,3.1276,0.0,0.0,0.0,0.0,0.0,0.0,0.0,0.0,0.0,0.0,0.0,0.0,0.0,0.0,0.0,0.0,0.0,0.0,0.0,0.4816,0.6594,0.9512,1.2096,1.3601,1.3896,1.5583,1.653,1.6673,0.0,0.0,0.0,0.0,0.0,0.0,0.0,0.0,0.0,0.0,0.0,0.0,0.0,0.0,2.9602,2.8457,2.6907,2.5213,0.0,0.0,0.0,0.0,0.0,0.0,2.9208,0.0,0.0,2.8678,0.0,0.0,0.0,0.0,2.893,2.948,2.9982,3.076,3.2267,3.2504,3.2532,3.3013,3.304,3.2973,3.2973,3.3213,3.3454,3.3547,3.4068,3.4295,3.3788,3.3721,3.332,3.2238,3.2278,3.2318,3.2131,3.2826,3.3574,3.4269,3.4148,3.4202,3.4589,3.4148,3.3881,3.3881,3.3574,3.3414,3.3414,3.3026,3.2888,3.2875,3.2238,3.1757,3.1356,3.0969,3.0688,3.0533,3.0087,2.9913,2.9913,2.9913,2.8944,2.7386,2.6547,2.5275,2.3931,2.4138,2.5936,2.8467,0.0,0.0,0.0,0.0,0.0,0.0,0.0,0.0,0.0,0.0,0.0,0.0,0.0,0.0,0.0,0.0,0.0,0.0,0.0,0.0,0.5243,0.6709,0.9712,1.1547,1.1862,1.4002,1.5289,1.5649,0.0,0.0,0.0,0.0,0.0,0.0,0.0,0.0,0.0,0.0,0.0,0.0,0.0,0.0,2.7147,2.5985,2.4502,0.0,0.0,0.0,0.0,0.0,0.0,0.0,0.0,0.0,0.0,0.0,0.0,0.0,0.0,2.8327,2.9747,3.0047,3.0862,3.1797,3.2714,3.2969,3.2973,3.2946,3.2025,3.1419,3.2066,3.1531,3.1471,3.2901,3.3347,3.3507,3.3427,3.332,3.2866,3.1845,3.1744,3.1717,3.153,3.2024,3.2812,3.3908,3.3935,3.4095,3.4576,3.4242,3.4002,3.3895,3.3574,3.336,3.3253,3.2973,3.2768,3.2505,3.2024,3.1597,3.1209,3.0822,3.0587,3.0386,3.0047,2.9913,2.9824,2.8944,2.7657,2.6048,2.425,2.2637,2.1231,2.1466,2.3092,2.5604,0.0,0.0,0.0,0.0,0.0,0.0,0.0,0.0,0.0,0.0,0.0,0.0,0.0,0.0,0.0,0.0,0.0,0.0,0.0,0.0,0.0,0.4015,0.7838,1.0175,1.054,1.2131,1.3309,1.4023,0.0,0.0,0.0,0.0,0.0,0.0,0.0,0.0,0.0,0.0,0.0,0.0,0.0,0.0,2.3901,2.2752,0.0,0.0,0.0,0.0,0.0,0.0,0.0,0.0,0.0,0.0,0.0,0.0,0.0,2.7548,2.773,2.9098,3.0774,3.1864,3.2572,3.3066,3.3334,3.3146,3.2746,3.2013,2.9738,2.8378,3.0044,2.8344,2.7934,3.1711,3.223,3.2465,3.3293,3.3187,3.2692,3.1872,3.149,3.1283,3.1243,3.1256,3.1904,3.3334,3.3694,3.4002,3.4295,3.4309,3.4162,3.3855,3.3547,3.3253,3.2959,3.2728,3.2326,3.1778,3.141,3.1236,3.1162,3.0621,3.04,3.0373,3.0034,2.9913,2.9734,2.7238,2.6139,2.5537,2.076,1.8824,1.8731,1.8871,2.0344,2.2754,0.0,0.0,0.0,0.0,0.0,0.0,0.0,0.0,0.0,0.0,0.0,0.0,0.0,0.0,0.0,0.0,0.0,0.0,0.0,0.0,0.0,0.0,0.0,0.0,0.0,0.0,0.0,0.0,0.0,0.0,0.0,0.0,0.0,0.0,0.0,0.0,0.0,0.0,0.0,0.0,0.0,0.0,2.1523,0.0,0.0,0.0,0.0,0.0,0.0,0.0,0.0,0.0,0.0,2.312,2.4204,0.0,0.0,2.7648,2.9001,3.0474,3.1837,3.2572,3.3026,3.3267,3.312,3.2532,3.1442,2.9319,2.7445,2.5816,2.4568,2.5706,2.7251,2.8474,3.114,3.316,3.335,3.3561,3.337,3.2474,3.2639,3.2679,3.23,3.2398,3.2879,3.3708,3.3614,3.3761,3.4295,3.4108,3.3761,3.3227,3.3133,3.2946,3.2701,3.2634,3.2621,3.2639,3.1904,3.1436,3.1162,3.0621,3.0234,3.002,2.9953,2.9913,2.9734,2.7238,2.5127,2.3152,2.0113,1.7763,1.6385,1.822,1.928,2.0446,0.0,0.0,0.0,0.0,0.0,0.0,0.0,0.0,0.0,0.0,0.0,0.0,0.0,0.0,0.0,0.0,0.0,0.0,0.0,0.0,0.0,0.0,0.0,0.0,0.0,0.0,0.0,0.0,0.0,0.0,0.0,0.0,0.0,0.0,0.0,0.0,0.0,0.0,0.0,0.0,0.0,0.0,0.0,0.0,0.0,0.0,0.0,0.0,0.0,0.0,0.0,2.2305,2.3121,2.3955,2.4957,2.644,0.0,2.8995,3.0461,3.1757,3.2759,3.308,3.32,3.304,3.2358,3.1637,3.0221,2.7006,2.4757,2.293,2.1429,2.1852,2.3446,2.6542,2.9088,3.1415,3.337,3.2683,3.2289,3.3087,3.2168,3.139,3.1088,3.1188,3.1,3.03,3.2328,3.3774,3.4108,3.4095,3.3801,3.3187,3.304,3.2822,3.2407,3.2273,3.2286,3.2398,3.177,3.1383,3.1162,3.0621,3.0319,3.01,2.9967,2.9272,2.8076,2.5639,2.3152,2.0668,1.8228,1.6432,1.5368,1.6752,1.7949,1.9465,0.0,0.0,0.0,0.0,0.0,0.0,0.0,0.0,0.0,0.0,0.0,0.0,0.0,0.0,0.0,0.0,0.0,0.0,0.0,0.0,0.0,0.0,0.0,0.0,0.0,0.0,0.0,0.0,0.0,0.0,0.0,0.0,0.0,0.0,0.0,0.0,0.0,0.0,0.0,0.0,0.0,0.0,0.0,0.0,0.0,0.0,0.0,0.0,0.0,0.0,2.2719,2.3549,2.4967,2.5999,2.7028,2.8524,2.97,3.0828,3.1904,3.2799,3.34,3.336,3.3106,3.2545,3.133,3.0515,2.8947,2.5036,2.2133,2.0077,1.9406,1.7921,1.8766,2.473,2.6388,2.8317,3.2289,3.0627,2.9959,3.2584,3.038,2.8683,2.8683,2.8683,2.7888,2.587,3.016,3.2839,3.2839,3.3406,3.3594,3.3374,3.304,3.2639,3.2171,3.1885,3.1751,3.1831,3.141,3.1203,3.1263,3.0635,3.04,3.0386,3.0047,2.8507,2.6049,2.3631,2.1148,1.8672,1.6158,1.5181,1.5228,1.5549,1.6845,1.8824,0.0,0.0,0.0,0.0,0.0,0.0,0.0,0.0,0.0,0.0,0.0,0.0,0.0,0.0,0.0,0.0,0.0,0.0,0.0,0.0,0.0,0.0,0.0,0.0,0.0,0.0,0.0,0.0,0.0,0.0,0.0,0.0,0.0,0.0,0.0,0.0,0.0,0.0,0.0,0.0,0.0,0.0,0.0,0.0,0.0,0.0,0.0,0.0,0.0,0.0,2.4379,2.5636,2.6613,2.7669,2.8828,3.0341,3.1089,3.1684,3.2572,3.3106,3.336,3.3106,3.2652,3.1877,3.0461,2.9112,0.0,2.3562,2.0616,1.8176,1.643,1.6785,1.8012,2.0077,2.2999,2.5493,2.7056,2.685,2.6766,2.7388,2.6954,2.6606,2.6606,2.6606,2.656,2.6334,2.7005,2.7462,2.7462,2.9538,3.1459,3.303,3.2532,3.2318,3.2514,3.1979,3.1965,3.2433,3.1597,3.1356,3.1617,3.0788,3.04,3.0386,3.0047,2.8563,2.6248,2.3649,2.1187,1.8809,1.6202,1.5181,1.5462,1.7491,1.7211,1.6479,0.0,0.0,0.0,0.0,0.0,0.0,0.0,0.0,0.0,0.0,0.0,0.0,0.0,0.0,0.0,0.0,0.0,0.0,0.0,0.0,0.0,0.0,0.0,0.0,0.0,0.0,0.0,0.0,0.0,0.0,0.0,0.0,0.0,0.0,0.0,0.0,0.0,0.0,0.0,0.0,0.0,0.0,0.0,0.0,0.0,0.0,0.0,0.0,0.0,0.0,2.4619,2.6479,2.7991,2.9125,3.0181,3.1343,3.1891,3.2326,3.3013,3.3307,3.3347,3.3053,3.2305,3.1142,2.9205,0.0,0.0,0.0,1.8722,1.6973,1.3911,1.449,1.6071,1.8191,2.0336,2.2548,2.5074,2.4102,2.3903,2.5935,2.4965,2.4061,2.4061,2.4061,2.3512,2.213,2.1908,2.3107,2.5939,2.7081,2.7965,2.8731,2.9689,3.0163,3.0122,3.1177,3.1858,3.2139,3.1664,3.153,3.1698,3.0962,3.0627,3.0509,2.8718,2.6701,2.4344,2.177,1.9307,1.7032,1.5706,1.5181,1.5321,1.6518,1.6198,1.5737,0.0,0.0,0.0,0.0,0.0,0.0,0.0,0.0,0.0,0.0,0.0,0.0,0.0,0.0,0.0,0.0,0.0,0.0,0.0,0.0,0.0,0.0,0.0,0.0,0.0,0.0,0.0,0.0,0.0,0.0,0.0,0.0,0.0,0.0,0.0,0.0,0.0,0.0,0.0,0.0,0.0,0.0,0.0,0.0,0.0,0.0,0.0,0.0,0.0,0.0,2.4084,2.5985,2.8003,2.9579,3.0849,3.1597,3.2206,3.2701,3.3173,3.336,3.3307,3.2893,3.1864,3.0327,2.7963,2.6466,0.0,1.8652,1.7436,1.6318,1.2929,1.28,1.4092,1.6715,1.7691,1.9268,2.2635,2.1195,2.0952,2.4021,2.2555,2.1281,2.1281,2.1281,2.0317,1.8088,1.7915,2.0083,2.5,2.4841,2.4692,2.4911,2.6654,2.7399,2.7062,2.904,3.0331,3.0921,3.0869,3.1102,3.1557,3.1036,3.0478,2.9774,2.7263,2.462,2.1834,1.9776,1.7499,1.5398,1.5242,1.5181,1.5181,1.5181,1.5181,1.5549,0.0,0.0,0.0,0.0,0.0,0.0,0.0,0.0,0.0,0.0,0.0,0.0,0.0,0.0,0.0,0.0,0.0,0.0,0.0,0.0,0.0,0.0,0.0,0.0,0.0,0.0,0.0,1.3804,1.383,0.0,0.0,0.0,0.0,0.0,0.0,1.4599,0.0,0.0,0.0,0.0,0.0,0.0,0.0,0.0,0.0,0.0,0.0,0.0,0.0,0.0,0.0,2.3536,2.5304,2.7963,3.052,3.0808,0.0,0.0,3.2982,3.3213,3.3213,3.2385,3.1102,2.9419,2.7041,0.0,2.3363,1.991,1.7952,1.6413,1.4874,1.349,1.2981,1.4271,1.4718,1.5402,1.675,1.7066,1.7405,1.8123,1.823,1.8302,1.8302,1.8302,1.8184,1.7922,1.7915,1.9272,2.2395,2.2098,2.2944,2.527,2.5013,2.4766,2.4616,2.4611,2.5879,2.8352,2.8223,2.9249,3.1249,3.0942,2.9412,2.7055,2.645,2.3645,1.9415,1.904,1.7499,1.5398,1.5242,1.5181,1.5181,1.5181,1.5181,1.5549,0.0,0.0,0.0,0.0,0.0,0.0,0.0,0.0,0.0,0.0,0.0,0.0,0.0,0.0,0.0,0.0,0.0,0.0,0.0,0.0,0.0,0.0,0.0,0.0,0.0,0.0,0.0,0.0,0.0,0.0,0.0,0.0,0.0,0.0,0.0,1.4322,1.4464,0.0,0.0,0.0,0.0,0.0,0.0,0.0,0.0,0.0,0.0,0.0,0.0,0.0,0.0,0.0,2.2934,2.5034,0.0,0.0,3.0434,3.1711,3.2541,3.3053,3.32,3.2318,3.0862,2.9032,2.6707,0.0,2.2758,1.9516,1.7629,1.6151,1.4747,1.3327,1.263,1.3445,1.3478,1.3804,1.4862,1.516,1.5642,1.6632,1.7093,1.7527,1.7881,1.7915,1.7915,1.7915,1.7915,1.8377,1.9367,1.9233,1.957,2.0442,2.1664,2.2234,2.194,2.3345,2.4564,2.564,2.5502,2.5891,2.6694,2.6348,2.5584,2.4366,2.2601,2.0806,1.9112,1.7374,1.6216,1.552,1.5276,1.5181,1.5181,1.5181,1.5181,1.5321,0.0,0.0,0.0,0.0,0.0,0.0,0.0,0.0,0.0,0.0,0.0,0.0,0.0,0.0,0.0,0.0,0.0,0.0,0.0,0.0,0.0,0.0,0.0,0.0,0.0,0.0,0.0,0.0,0.0,0.0,0.0,0.0,1.4447,1.4367,0.0,0.0,0.0,0.0,0.0,0.0,0.0,0.0,0.0,0.0,0.0,0.0,0.0,0.0,0.0,0.0,0.0,0.0,0.0,0.0,0.0,0.0,2.9045,3.0648,3.1778,3.2572,3.2946,3.2064,3.0528,2.8631,0.0,0.0,2.2129,1.8499,1.7027,1.5773,1.3742,1.275,1.2406,1.2949,1.2942,1.3214,1.4217,1.4441,1.4916,1.6042,1.6537,1.6998,1.7602,1.7813,1.7915,1.7915,1.7826,1.7772,1.7663,1.7575,1.746,1.7202,1.8768,1.9506,1.9316,2.0925,2.2104,2.2883,2.277,2.2953,2.3487,2.323,2.2656,2.176,1.9785,1.8621,1.804,1.6055,1.5377,1.5499,1.5337,1.5221,1.5181,1.5181,1.5181,1.5321,0.0,0.0,0.0,0.0,0.0,0.0,0.0,0.0,0.0,0.0,0.0,0.0,0.0,0.0,0.0,0.0,0.0,0.0,0.0,0.0,0.0,0.0,0.0,0.0,0.0,0.0,0.0,0.0,0.0,0.0,0.0,0.0,1.4362,1.4095,0.0,0.0,0.0,0.0,0.0,0.0,0.0,0.0,0.0,0.0,0.0,0.0,0.0,0.0,0.0,0.0,0.0,0.0,0.0,0.0,0.0,0.0,2.7697,2.9686,3.0568,3.1711,3.2393,3.145,2.9913,2.807,0.0,2.4142,2.1586,1.688,1.6168,1.5385,1.2057,1.1798,1.221,1.2625,1.2976,1.3485,1.438,1.4774,1.5234,1.5833,1.613,1.6497,1.6944,1.7575,1.7915,1.7915,1.7738,1.7663,1.7902,1.7582,1.7351,1.7195,1.6761,1.6598,1.6748,1.6357,1.7501,2.0027,1.9898,2.0951,2.2993,2.2993,2.1582,1.9141,1.8955,1.764,1.5628,1.5472,1.5411,1.5411,1.5411,1.5316,1.5181,1.5181,1.5181,1.5556,0.0,0.0,0.0,0.0,0.0,0.0,0.0,0.0,0.0,0.0,0.0,0.0,0.0,0.0,0.0,0.0,0.0,0.0,0.0,0.0,0.0,0.0,0.0,0.0,0.0,0.0,0.0,0.0,0.0,0.0,0.0,0.0,0.0,0.0,1.4951,0.0,0.0,0.0,0.0,0.0,0.0,0.0,0.0,0.0,0.0,0.0,0.0,0.0,0.0,0.0,0.0,0.0,0.0,0.0,0.0,0.0,0.0,0.0,2.8179,2.9098,2.9633,2.8738,2.7655,2.6399,2.474,2.3407,2.1971,1.9893,1.7829,1.6099,1.5116,1.3264,1.2155,1.2908,1.3112,1.3376,1.3923,1.4584,1.5153,1.5649,1.6693,1.7426,1.7623,1.7813,1.7915,1.7915,1.7826,1.7724,1.7568,1.7473,1.7399,1.7351,1.7012,1.6809,1.6696,1.6307,1.6523,1.7345,1.7081,1.7217,1.7805,1.7805,1.7317,1.6412,1.6407,1.6102,1.5573,1.5364,1.5377,1.5499,1.5337,1.5221,1.5181,1.5181,1.5181,1.5321,0.0,0.0,0.0,0.0,0.0,0.0,0.0,0.0,0.0,0.0,0.0,0.0,0.0,0.0,0.0,0.0,0.0,0.0,0.0,0.0,0.0,0.0,0.0,0.0,0.0,0.0,0.0,0.0,0.0,0.0,0.0,0.0,0.0,0.0,0.0,0.0,0.0,0.0,0.0,0.0,0.0,0.0,0.0,0.0,0.0,0.0,0.0,0.0,0.0,0.0,0.0,0.0,0.0,0.0,0.0,0.0,0.0,0.0,0.0,2.7175,2.7655,2.7215,2.6266,0.0,0.0,2.2993,2.1833,2.0413,1.8079,1.6116,1.5649,1.3444,1.1955,1.2718,1.2888,1.3132,1.3714,1.4346,1.4991,1.5716,1.6829,1.7575,1.7684,1.7847,1.7915,1.7915,1.7759,1.7528,1.7344,1.7175,1.7054,1.7115,1.6931,1.6734,1.6533,1.6191,1.5967,1.5913,1.5669,1.5472,1.5323,1.5323,1.5303,1.5262,1.5208,1.5357,0.0,1.5371,1.5377,1.5533,1.5343,1.5235,1.5181,1.5181,1.5181,1.5181,0.0,0.0,0.0,0.0,0.0,0.0,0.0,0.0,0.0,0.0,0.0,0.0,0.0,0.0,0.0,0.0,0.0,0.0,0.0,0.0,0.0,0.0,0.0,0.0,0.0,0.0,0.0,0.0,1.5337,1.5818,1.6431,0.0,0.0,0.0,0.0,0.0,0.0,0.0,0.0,0.0,0.0,0.0,0.0,0.0,0.0,0.0,0.0,0.0,0.0,0.0,0.0,0.0,0.0,0.0,0.0,0.0,0.0,0.0,0.0,0.0,0.0,0.0,0.0,0.0,0.0,0.0,0.0,1.9132,1.7402,1.5829,1.4283,1.2783,1.1921,1.2309,1.2461,1.2854,1.3693,1.4183,1.4855,1.6008,1.6686,1.7154,1.7399,1.7704,1.7936,1.7915,1.746,1.7202,1.7195,1.6775,1.654,1.6662,1.652,1.6429,1.6293,1.6037,1.5771,1.5587,1.5472,1.5323,1.5201,1.5187,1.5262,1.5391,1.5255,1.5357,1.556,1.5466,1.5411,1.5411,1.5398,1.5309,1.5181,1.5181,1.5181,1.5181,0.0,0.0,0.0,0.0,0.0,0.0,0.0,0.0,0.0,0.0,0.0,0.0,0.0,0.0,0.0,0.0,0.0,0.0,0.0,0.0,0.0,0.0,0.0,0.0,0.0,0.0,0.0,1.5008,1.6177,1.7073,1.7662,1.9695,0.0,0.0,0.0,0.0,0.0,0.0,0.0,0.0,0.0,0.0,0.0,0.0,0.0,0.0,0.0,0.0,0.0,0.0,0.0,0.0,0.0,0.0,0.0,0.0,0.0,0.0,0.0,0.0,0.0,0.0,0.0,0.0,0.0,0.0,0.0,0.0,0.0,1.7696,1.6327,1.4726,1.3469,1.3051,1.299,1.3247,1.3926,1.497,1.594,1.668,1.7399,1.7724,1.7446,1.7792,1.7989,1.7936,1.7555,1.7317,1.7202,1.6824,1.656,1.6422,1.6266,1.6171,1.6137,1.5839,1.5676,1.5587,1.5364,1.5276,1.535,1.5235,1.5201,1.5242,1.5323,1.5398,1.5459,1.5425,1.5411,1.5398,1.5282,1.5215,1.5181,1.5181,1.5181,1.5181,0.0,0.0,0.0,0.0,0.0,0.0,0.0,0.0,0.0,0.0,0.0,0.0,0.0,0.0,0.0,0.0,0.0,0.0,0.0,0.0,0.0,0.0,0.0,0.0,0.0,0.0,0.0,0.0,0.0,1.7889,0.0,0.0,0.0,0.0,0.0,0.0,0.0,0.0,0.0,0.0,0.0,0.0,0.0,0.0,0.0,0.0,0.0,0.0,0.0,1.921,1.9826,2.0227,0.0,0.0,0.0,0.0,0.0,0.0,0.0,0.0,0.0,0.0,0.0,0.0,0.0,0.0,0.0,0.0,0.0,1.7363,1.6881,1.4726,1.2956,1.28,1.2881,1.3322,1.4384,1.5391,1.6279,1.7087,1.7534,1.7772,1.7738,1.7826,1.7792,1.7568,1.7277,1.6966,1.6802,1.6503,1.6266,1.6103,1.5954,1.5913,1.6024,1.5683,1.5533,1.5533,1.5296,1.5228,1.5303,1.5221,1.5181,1.5194,1.5343,1.5371,1.5309,1.5384,1.5371,1.5296,1.5215,1.5181,1.5181,1.5181,1.5181,1.5181,0.0,0.0,0.0,0.0,0.0,0.0,0.0,0.0,0.0,0.0,0.0,0.0,0.0,0.0,0.0,0.0,0.0,0.0,0.0,0.0,0.0,0.0,0.0,0.0,0.0,0.0,0.0,0.0,0.0,0.0,0.0,0.0,0.0,0.0,0.0,0.0,0.0,0.0,0.0,0.0,0.0,0.0,0.0,0.0,0.0,0.0,0.0,0.0,0.0,1.9917,2.0535,2.0873,2.0989,0.0,0.0,0.0,0.0,0.0,0.0,0.0,0.0,0.0,0.0,0.0,0.0,0.0,0.0,0.0,0.0,1.657,1.652,1.4126,1.2199,1.2417,1.2745,1.3471,1.4949,1.5629,1.6286,1.727,1.7467,1.7629,1.7935,1.7717,1.7467,1.7216,1.6897,1.6547,1.6327,1.6071,1.5894,1.5867,1.5683,1.5662,1.5833,1.5533,1.5411,1.5411,1.5255,1.5194,1.5215,1.5194,1.5181,1.5194,1.5343,1.5323,1.5194,1.535,1.5323,1.5181,1.5181,1.5181,1.5181,1.5181,1.5181,1.5181,0.0,0.0,0.0,0.0,0.0,0.0,0.0,0.0,0.0,0.0,0.0,0.0,0.0,0.0,0.0,0.0,0.0,0.0,0.0,0.0,0.0,0.0,0.0,0.0,0.0,0.0,0.0,0.0,0.0,0.0,2.0187,2.2193,2.2831,0.0,0.0,0.0,0.0,0.0,0.0,0.0,0.0,0.0,0.0,0.0,0.0,0.0,0.0,0.0,0.0,2.0468,2.1007,2.1368,2.0913,0.0,0.0,0.0,0.0,0.0,2.2425,2.2653,0.0,0.0,0.0,0.0,0.0,0.0,0.0,0.0,0.0,0.0,1.5637,1.4839,1.4276,1.3376,1.3695,1.4448,1.5609,1.6022,1.6483,1.7148,1.7684,1.7812,1.7372,1.7521,1.7467,1.7216,1.6795,1.6483,1.632,1.6071,1.5798,1.5627,1.5527,1.5459,1.5479,1.5432,1.5411,1.5411,1.5255,1.5248,1.5371,1.5242,1.5181,1.5194,1.5343,1.5323,1.5194,1.535,1.5323,1.5181,1.5181,1.5181,1.5181,1.5181,1.5181,1.5181,0.0,0.0,0.0,0.0,0.0,0.0,0.0,0.0,0.0,0.0,0.0,0.0,0.0,0.0,0.0,0.0,0.0,0.0,0.0,0.0,0.0,0.0,0.0,0.0,0.0,0.0,0.0,0.0,0.0,2.1162,2.1884,2.2058,2.1991,2.1702,0.0,0.0,0.0,0.0,0.0,0.0,0.0,0.0,0.0,0.0,0.0,0.0,0.0,0.0,0.0,0.0,2.1234,2.1569,2.1448,0.0,0.0,0.0,0.0,0.0,2.2077,2.1543,2.075,0.0,0.0,0.0,0.0,0.0,0.0,0.0,0.0,0.0,1.5286,1.4579,1.4189,1.424,1.4685,1.5276,1.6001,1.6286,1.6646,1.7243,1.7487,1.7494,1.7216,1.7249,1.7127,1.6741,1.6449,1.6218,1.6069,1.5778,1.5581,1.5472,1.5364,1.5289,1.5289,1.5289,1.5289,1.5289,1.5215,1.5221,1.5282,1.5215,1.5181,1.5194,1.5343,1.5323,1.5194,1.535,1.5323,1.5181,1.5181,1.5181,1.5181,1.5181,1.5181,1.5181,0.0,0.0,0.0,0.0,0.0,0.0,0.0,0.0,0.0,0.0,0.0,0.0,0.0,0.0,0.0,0.0,0.0,0.0,0.0,0.0,0.0,0.0,0.0,0.0,0.0,0.0,0.0,2.163,2.1528,2.2083,2.3153,2.1348,2.0572,0.0,0.0,0.0,0.0,0.0,0.0,0.0,0.0,0.0,0.0,0.0,0.0,0.0,0.0,0.0,0.0,0.0,0.0,0.0,0.0,0.0,0.0,2.2084,2.1863,2.1664,2.1424,2.0422,1.9265,0.0,0.0,0.0,0.0,0.0,0.0,0.0,0.0,1.4859,1.4898,1.4259,1.4027,1.4977,1.5506,1.5954,1.6402,1.6558,1.6836,1.7405,1.7304,1.7182,1.7148,1.6978,1.67,1.6286,1.6117,1.5947,1.5806,1.5533,1.5398,1.5357,1.5242,1.5181,1.5181,1.5181,1.5181,1.5181,1.5181,1.5181,1.5181,1.5181,1.5181,1.5187,1.5309,1.5289,1.5194,1.5309,1.5289,1.5181,1.5194,1.5113,1.5086,1.512,1.5113,1.5086,0.0,0.0,0.0,0.0,0.0,0.0,0.0,0.0,0.0,0.0,0.0,0.0,0.0,0.0,0.0,0.0,0.0,0.0,0.0,0.0,0.0,0.0,0.0,0.0,0.0,1.5858,1.6963,2.3132,2.0989,2.0974,2.288,2.0815,1.9834,0.0,0.0,0.0,0.0,0.0,0.0,0.0,0.0,0.0,0.0,0.0,0.0,0.0,0.0,0.0,0.0,0.0,0.0,0.0,0.0,0.0,0.0,2.2151,2.201,2.1793,2.0967,2.0485,1.9439,1.6216,0.0,0.0,1.7908,1.794,0.0,1.667,0.0,0.0,1.4006,1.4193,1.4802,1.5438,1.5967,1.6422,1.687,1.6944,1.7121,1.7527,1.7372,1.7141,1.7012,1.6727,1.6429,1.6123,1.6003,1.5792,1.5459,1.5425,1.5343,1.5201,1.5187,1.5181,1.5181,1.5181,1.5181,1.5181,1.5181,1.5181,1.5181,1.5181,1.5181,1.5181,1.5194,1.5194,1.5181,1.5194,1.5194,1.5167,1.5038,1.4896,1.4741,1.4936,1.4896,1.4762,0.0,0.0,0.0,0.0,0.0,0.0,0.0,0.0,0.0,0.0,0.0,0.0,0.0,0.0,0.0,0.0,0.0,0.0,0.0,0.0,0.0,0.0,0.0,1.4286,1.7718,1.7885,1.9616,2.3047,2.3079,2.3091,2.3121,2.1235,0.0,0.0,0.0,0.0,0.0,0.0,0.0,0.0,0.0,0.0,0.0,0.0,0.0,0.0,0.0,0.0,0.0,0.0,2.1903,2.2231,0.0,0.0,0.0,2.2693,2.1639,2.0539,2.0115,1.8285,1.6239,1.5121,0.0,0.0,0.0,1.5065,1.5195,1.5115,1.514,0.0,1.4664,1.4977,1.5384,1.5845,1.6212,1.653,1.6802,1.6784,1.6844,1.7014,1.6932,1.6822,1.6585,1.6374,1.6164,1.6003,1.5765,1.5527,1.5418,1.5323,1.5242,1.5181,1.5181,1.5181,1.5181,1.5181,1.5181,1.5181,1.5181,1.5181,1.5181,1.5181,1.5181,1.5181,1.5181,1.5181,1.5174,1.5086,1.5098,1.5085,1.4882,1.4794,1.4701,1.4808,1.4787,1.4721,0.0,0.0,0.0,0.0,0.0,0.0,0.0,0.0,0.0,0.0,0.0,0.0,0.0,0.0,0.0,0.0,0.0,0.0,0.0,0.0,0.0,0.0,0.0,1.3395,1.5527,1.8336,2.0783,2.2725,2.4123,2.4102,2.2712,0.0,0.0,0.0,0.0,0.0,0.0,0.0,0.0,0.0,0.0,0.0,0.0,0.0,0.0,0.0,0.0,0.0,0.0,0.0,2.2017,2.2432,2.2525,0.0,0.0,2.2259,2.0922,1.9399,1.8178,1.6005,1.4077,0.0,0.0,0.0,1.3343,1.3695,1.4092,1.4679,1.4794,1.4889,1.5201,1.5425,1.5662,1.5961,1.63,1.6571,1.6675,1.6696,1.6696,1.6696,1.6615,1.6459,1.6259,1.6096,1.5927,1.5779,1.5527,1.5391,1.5343,1.5242,1.5181,1.5181,1.5181,1.5181,1.5181,1.5181,1.5181,1.5181,1.5228,1.5228,1.5181,1.514,1.514,1.5181,1.518,1.514,1.5174,1.5079,1.4984,1.4882,1.4726,1.4593,1.4559,1.4606,1.462,1.4654,0.0,0.0,0.0,0.0,0.0,0.0,0.0,0.0,0.0,0.0,0.0,0.0,0.0,0.0,0.0,0.0,0.0,0.0,0.0,0.0,0.0,0.0,0.0,1.2139,1.3282,1.6566,1.9614,2.231,2.3585,2.3287,2.1555,0.0,0.0,0.0,0.0,0.0,0.0,0.0,0.0,0.0,0.0,0.0,0.0,0.0,0.0,0.0,0.0,0.0,0.0,0.0,2.2178,2.2472,2.2766,0.0,0.0,2.0617,1.9721,1.8574,1.4964,1.3983,1.3582,1.2015,0.0,0.0,1.4136,1.4491,1.4911,1.5758,1.5622,1.5418,1.5418,1.5418,1.5513,1.5854,1.6225,1.652,1.6669,1.6689,1.6689,1.6689,1.6483,1.6246,1.6096,1.599,1.5779,1.5432,1.5411,1.5343,1.5194,1.5181,1.5181,1.5181,1.5181,1.5181,1.5181,1.5181,1.5181,1.5181,1.5337,1.5323,1.5174,1.5038,1.5052,1.5174,1.5078,1.5098,1.5181,1.5174,1.5004,1.4674,1.457,1.4421,1.4319,1.4455,1.4509,1.4557,0.0,0.0,0.0,0.0,0.0,0.0,0.0,0.0,0.0,0.0,0.0,0.0,0.0,0.0,0.0,0.0,0.0,0.0,0.0,0.0,0.0,0.0,0.0,0.0,0.0,0.0,1.9776,2.3359,2.3289,2.2706,0.0,0.0,0.0,2.1186,0.0,0.0,0.0,0.0,0.0,0.0,0.0,0.0,0.0,0.0,0.0,0.0,0.0,0.0,0.0,0.0,0.0,0.0,2.1416,0.0,2.0923,1.8722,1.7198,1.5915,1.4397,1.3239,1.2431,1.2261,1.2949,0.0,0.0,1.4997,0.0,0.0,1.6171,1.5974,1.5813,1.5811,1.5845,1.5723,1.5988,1.6225,1.6273,1.6279,1.6279,1.6279,1.611,1.6017,1.5976,1.5689,1.5506,1.5418,1.5309,1.5228,1.5181,1.5181,1.5181,1.5181,1.5132,1.5079,1.5181,1.4977,1.4923,1.5078,1.497,1.497,1.5038,1.5208,1.5194,1.5085,1.5139,1.5086,1.5064,1.4801,1.4658,1.4563,1.4421,1.434,1.4306,1.4346,1.4367,1.4407,0.0,0.0,0.0,0.0,0.0,0.0,0.0,0.0,0.0,0.0,0.0,0.0,0.0,0.0,0.0,0.0,0.0,0.0,0.0,0.0,0.0,0.0,0.0,0.0,0.0,1.756,1.9997,0.0,0.0,0.0,0.0,0.0,0.0,0.0,0.0,0.0,0.0,0.0,0.0,0.0,0.0,0.0,0.0,0.0,0.0,0.0,0.0,0.0,0.0,0.0,0.0,0.0,2.0896,0.0,1.9929,1.7184,1.5461,1.4263,1.3353,1.243,1.1874,1.2596,1.3403,1.4265,1.5201,1.5642,1.6015,1.6585,1.6497,1.6252,1.6069,1.5967,1.5845,1.5621,1.5791,1.5906,1.5906,1.5906,1.5906,1.5906,1.5825,1.5744,1.5731,1.5513,1.5384,1.5323,1.5235,1.5181,1.5181,1.5126,1.5099,1.5099,1.4957,1.4923,1.5004,1.4782,1.4741,1.4875,1.4848,1.4814,1.4794,1.497,1.4991,1.4882,1.497,1.4957,1.4862,1.4611,1.4509,1.4496,1.4353,1.4299,1.4299,1.4299,1.4299,1.4333,0.0,0.0,0.0,0.0,0.0,0.0,0.0,0.0,0.0,0.0,0.0,0.0,0.0,0.0,0.0,0.0,0.0,0.0,0.0,0.0,0.0,0.0,0.0,0.0,0.0,0.0,0.0,0.0,0.0,0.0,0.0,0.0,2.2432,0.0,0.0,0.0,0.0,0.0,0.0,0.0,0.0,0.0,0.0,0.0,0.0,0.0,0.0,0.0,0.0,0.0,0.0,0.0,2.0814,2.0087,1.9189,1.5812,1.424,1.337,1.2171,1.1796,1.1986,1.3057,1.3865,1.4733,1.5845,1.6313,1.6592,1.6897,1.6632,1.6341,1.6313,1.5961,1.5621,1.5593,1.5593,1.5593,1.5593,1.5593,1.5593,1.5593,1.558,1.5512,1.5425,1.5398,1.533,1.5194,1.5181,1.5174,1.516,1.5085,1.501,1.495,1.4801,1.4687,1.4714,1.4674,1.4667,1.4694,1.4855,1.476,1.4496,1.4536,1.4624,1.4694,1.4681,1.4681,1.4681,1.4543,1.4482,1.4475,1.4333,1.4278,1.4278,1.4292,1.4299,1.4319,0.0,0.0,0.0,0.0,0.0,0.0,0.0,0.0,0.0,0.0,0.0,0.0,0.0,0.0,0.0,0.0,0.0,0.0,0.0,0.0,0.0,0.0,0.0,0.0,0.0,0.0,0.0,0.0,0.0,0.0,0.0,0.0,0.0,0.0,0.0,0.0,0.0,0.0,0.0,0.0,0.0,0.0,0.0,0.0,0.0,0.0,0.0,0.0,0.0,0.0,0.0,0.0,1.9258,1.8186,1.7342,1.359,1.2502,1.2392,1.212,1.237,1.2935,1.3824,1.484,1.5697,1.6151,1.6307,1.6442,1.6689,1.6669,1.6533,1.6354,1.613,1.5913,1.5627,1.5593,1.5593,1.5593,1.5593,1.5593,1.5593,1.5533,1.5445,1.5411,1.5303,1.5215,1.5181,1.5181,1.5133,1.5071,1.503,1.4916,1.4748,1.4638,1.4679,1.4916,1.457,1.4509,1.4694,1.4536,1.4407,1.436,1.4713,1.4821,1.4687,1.4566,1.4586,1.4667,1.4326,1.4238,1.4333,1.4177,1.4122,1.418,1.4258,1.4299,1.4319,0.0,0.0,0.0,0.0,0.0,0.0,0.0,0.0,0.0,0.0,0.0,0.0,0.0,0.0,0.0,0.0,0.0,0.0,0.0,0.0,0.0,0.0,0.0,0.0,0.0,0.0,0.0,0.0,0.0,0.0,0.0,0.0,0.0,0.0,0.0,0.0,0.0,0.0,0.0,0.0,0.0,0.0,0.0,0.0,0.0,0.0,0.0,0.0,0.0,0.0,0.0,0.0,0.0,0.0,1.6622,1.2889,1.1843,1.1925,1.2284,1.2766,1.3458,1.4645,1.5513,1.611,1.6273,1.6361,1.6435,1.6473,1.6483,1.6381,1.6232,1.6022,1.5798,1.5519,1.5479,1.5506,1.5432,1.5418,1.5418,1.5418,1.535,1.5303,1.5303,1.5228,1.5181,1.5181,1.512,1.5052,1.5023,1.4835,1.4713,1.4586,1.4489,1.4489,1.4645,1.4414,1.438,1.4529,1.4373,1.4299,1.4306,1.4543,1.4604,1.4478,1.4441,1.4414,1.4401,1.417,1.4075,1.4031,1.3994,1.4007,1.4125,1.4163,1.4238,1.4312,0.0,0.0,0.0,0.0,0.0,0.0,0.0,0.0,0.0,0.0,0.0,0.0,0.0,0.0,0.0,0.0,0.0,0.0,0.0,0.0,0.0,0.0,0.0,0.0,0.0,0.0,0.0,0.0,0.0,0.0,0.0,0.0,0.0,0.0,0.0,0.0,0.0,0.0,0.0,0.0,0.0,0.0,0.0,0.0,0.0,0.0,0.0,0.0,0.0,2.2813,0.0,0.0,0.0,0.0,1.6571,1.2874,1.1712,1.1766,1.2436,1.3112,1.3926,1.5249,1.5954,1.6273,1.6273,1.6341,1.6374,1.6252,1.6151,1.6076,1.6049,1.5798,1.5512,1.5432,1.5391,1.5323,1.5201,1.5181,1.5181,1.5181,1.5181,1.5181,1.5181,1.5181,1.5174,1.5147,1.5038,1.495,1.4942,1.4652,1.4489,1.4434,1.4319,1.4272,1.4299,1.4272,1.4272,1.4299,1.4245,1.4238,1.4258,1.4231,1.4238,1.4258,1.4231,1.415,1.4027,1.4007,1.3919,1.3761,1.3761,1.3885,1.4,1.4098,1.415,1.4265,0.0,0.0,0.0,0.0,0.0,0.0,0.0,0.0,0.0,0.0,0.0,0.0,0.0,0.0,0.0,0.0,0.0,0.0,0.0,0.0,0.0,0.0,0.0,0.0,0.0,0.0,0.0,0.0,0.0,0.0,0.0,0.0,0.0,0.0,0.0,0.0,0.0,0.0,0.0,0.0,0.0,0.0,0.0,0.0,0.0,0.0,0.0,0.0,0.0,0.0,2.3046,0.0,0.0,0.0,1.6862,1.294,1.178,1.1847,1.225,1.3336,1.457,1.5377,1.5879,1.611,1.611,1.6071,1.599,1.5969,1.6051,1.6042,1.5956,1.5642,1.5438,1.5411,1.5303,1.5208,1.5187,1.5181,1.5181,1.5181,1.5181,1.5181,1.5181,1.5181,1.5133,1.5057,1.503,1.4855,1.459,1.4536,1.4394,1.4136,1.4159,1.4163,1.4299,1.417,1.417,1.4299,1.4027,1.3973,1.4139,1.396,1.3973,1.4139,1.396,1.3849,1.3822,1.3693,1.3632,1.3612,1.3612,1.3626,1.3722,1.3973,1.4125,1.4122,0.0,0.0,0.0,0.0,0.0,0.0,0.0,0.0,0.0,0.0,0.0,0.0,0.0,0.0,0.0,0.0,0.0,0.0,0.0,0.0,0.0,0.0,0.0,0.0,0.0,0.0,0.0,0.0,0.0,0.0,0.0,1.6423,1.7401,0.0,0.0,0.0,0.0,0.0,0.0,0.0,0.0,0.0,0.0,0.0,0.0,0.0,0.0,0.0,0.0,0.0,1.9877,1.9577,1.6793,0.0,0.0,0.0,1.1891,1.2135,1.2942,1.3702,1.4489,1.5364,1.5688,1.5879,1.6042,1.601,1.5881,1.575,1.5716,1.5683,1.5615,1.5432,1.5282,1.5282,1.5228,1.5181,1.5181,1.5181,1.5181,1.5181,1.5113,1.5112,1.5112,1.4984,1.4909,1.4848,1.476,1.4618,1.4407,1.4312,1.4163,1.3946,1.3939,1.3973,1.3998,1.3973,1.3973,1.4041,1.3781,1.3754,1.3933,1.3702,1.3722,1.3939,1.3829,1.3754,1.3673,1.3612,1.358,1.3498,1.3498,1.3511,1.3605,1.3777,1.3871,1.3966,0.0,0.0,0.0,0.0,0.0,0.0,0.0,0.0,0.0,0.0,0.0,0.0,0.0,0.0,0.0,0.0,0.0,0.0,0.0,0.0,0.0,0.0,0.0,0.0,0.0,0.0,0.0,0.0,0.0,0.0,1.405,1.4403,1.4597,0.0,1.4396,0.0,0.0,0.0,0.0,0.0,0.0,0.0,0.0,0.0,0.0,0.0,0.0,0.0,0.0,0.0,0.0,1.7257,1.536,1.4787,0.0,0.0,0.0,1.2159,1.3166,1.3614,1.4014,1.4904,1.5303,1.5588,1.5852,1.5825,1.5723,1.5607,1.5486,1.535,1.535,1.5262,1.5181,1.5181,1.5181,1.5181,1.5181,1.5181,1.5167,1.5133,1.5085,1.5003,1.4916,1.4808,1.4681,1.464,1.4577,1.4434,1.4251,1.4136,1.3987,1.3747,1.3747,1.3747,1.3747,1.3747,1.3761,1.3795,1.3612,1.3605,1.3734,1.3478,1.3485,1.3687,1.3687,1.3626,1.3531,1.3531,1.3505,1.3403,1.3403,1.3471,1.3531,1.3572,1.3653,1.3774,0.0,0.0,0.0,0.0,0.0,0.0,0.0,0.0,0.0,0.0,0.0,0.0,0.0,0.0,0.0,0.0,0.0,0.0,0.0,0.0,0.0,0.0,0.0,0.0,0.0,0.0,0.0,0.0,0.0,0.0,1.3075,1.3122,1.3384,1.3836,1.2973,1.4565,1.7693,0.0,0.0,0.0,0.0,0.0,0.0,0.0,0.0,0.0,0.0,0.0,0.0,0.0,0.0,0.0,0.0,1.4973,1.4653,0.0,0.0,0.0,1.2196,1.2724,1.3207,1.3741,1.4577,1.5248,1.5411,1.5438,1.5472,1.556,1.5404,1.5194,1.5194,1.5187,1.5181,1.5181,1.5181,1.5181,1.5181,1.5181,1.5133,1.5044,1.5023,1.4916,1.4721,1.4701,1.4633,1.4536,1.4516,1.4387,1.4139,1.4119,1.3939,1.3605,1.3599,1.3599,1.3599,1.3599,1.3666,1.3795,1.3553,1.3492,1.3585,1.3322,1.3275,1.3424,1.3424,1.3417,1.341,1.341,1.341,1.3403,1.3403,1.3403,1.3431,1.3531,1.3592,1.3639,0.0,0.0,0.0,0.0,0.0,0.0,0.0,0.0,0.0,0.0,0.0,0.0,0.0,0.0,0.0,0.0,0.0,0.0,0.0,0.0,0.0,0.0,0.0,0.0,0.0,0.0,0.0,0.0,0.0,1.2551,1.2535,1.2725,1.2929,1.3078,1.2895,1.4103,1.6136,1.3968,0.0,0.0,0.0,0.0,0.0,0.0,0.0,0.0,0.0,0.0,0.0,0.0,0.0,0.0,0.0,0.0,0.0,0.0,1.1552,1.1525,1.2128,1.2474,1.2854,1.3599,1.4299,1.4821,1.5072,1.5201,1.5255,1.5215,1.5045,1.4896,1.4896,1.5052,1.5181,1.5181,1.5181,1.5181,1.5181,1.5153,1.5025,1.5023,1.4794,1.4652,1.4597,1.4509,1.4475,1.4509,1.4333,1.4183,1.4119,1.3892,1.3695,1.3492,1.3485,1.3485,1.3485,1.3485,1.3505,1.3559,1.3451,1.3376,1.3336,1.322,1.3193,1.3166,1.3214,1.3308,1.3403,1.3403,1.3403,1.3403,1.3403,1.3403,1.341,1.3464,1.3485,1.3512,0.0,0.0,0.0,0.0,0.0,0.0,0.0,0.0,0.0,0.0,0.0,0.0,0.0,0.0,0.0,0.0,0.0,0.0,0.0,0.0,0.0,0.0,0.0,0.0,0.0,0.0,0.0,0.0,0.0,0.0,0.0,0.0,1.2732,1.2881,1.2881,1.3526,0.0,0.0,0.0,1.6495,0.0,0.0,1.6952,0.0,0.0,0.0,0.0,0.0,0.0,0.0,0.0,0.0,0.0,0.0,0.0,0.0,0.0,0.0,1.1959,1.221,1.2549,1.3349,1.377,1.4122,1.4631,1.478,1.4828,1.4882,1.4808,1.4694,1.4694,1.4903,1.5052,1.5106,1.5113,1.5113,1.5113,1.4984,1.4875,1.4821,1.4638,1.4489,1.4441,1.4306,1.4265,1.436,1.4136,1.3973,1.3926,1.3736,1.3539,1.3329,1.3322,1.3322,1.3322,1.3275,1.3275,1.3322,1.3275,1.32,1.3139,1.3044,1.3003,1.3003,1.3003,1.3139,1.3329,1.3376,1.3403,1.3403,1.3403,1.3403,1.3403,1.3403,1.3403,1.3424,0.0,0.0,0.0,0.0,0.0,0.0,0.0,0.0,0.0,0.0,0.0,0.0,0.0,0.0,0.0,0.0,0.0,0.0,0.0,0.0,0.0,0.0,0.0,0.0,0.0,0.0,0.0,0.0,0.0,0.0,0.0,0.0,1.2725,0.0,1.2861,1.2693,1.2672,0.0,1.3472,1.4798,0.0,1.3593,1.6494,0.0,0.0,0.0,1.2982,1.2732,0.0,1.1994,0.0,0.0,0.0,0.0,0.0,0.0,0.0,0.0,0.0,0.0,0.0,1.2819,1.2982,1.3227,1.4055,1.4143,1.417,1.4572,1.466,1.4667,1.4674,1.4681,1.478,1.4936,1.501,1.501,1.5003,1.4828,1.4633,1.4523,1.4502,1.4441,1.4306,1.4156,1.4112,1.4119,1.3926,1.3734,1.3599,1.3578,1.3478,1.322,1.3207,1.3207,1.3207,1.3071,1.3071,1.3207,1.3064,1.3003,1.2989,1.28,1.2807,1.2982,1.28,1.2895,1.3214,1.3329,1.3397,1.3397,1.3397,1.3403,1.3403,1.3403,1.3403,1.3424,0.0,0.0,0.0,0.0,0.0,0.0,0.0,0.0,0.0,0.0,0.0,0.0,0.0,0.0,0.0,0.0,0.0,0.0,0.0,0.0,0.0,0.0,0.0,0.0,0.0,0.0,0.0,0.0,0.0,0.0,0.0,0.0,0.0,0.0,1.2826,1.2773,1.2556,1.2413,0.0,0.0,1.2088,1.2443,0.0,0.0,0.0,0.0,0.0,1.2626,1.4021,0.0,1.1857,1.2033,0.0,0.0,0.0,0.0,0.0,0.0,1.1556,0.0,0.0,0.0,0.0,0.0,1.3105,1.3295,1.3519,1.3822,1.3889,1.4,1.4217,1.4428,1.459,1.4631,1.4733,1.4767,1.4652,1.4604,1.4523,1.4373,1.4265,1.4221,1.4136,1.3994,1.3953,1.4105,1.3831,1.3673,1.3734,1.3478,1.3261,1.3214,1.3111,1.3057,1.3057,1.3023,1.3023,1.3057,1.3023,1.2901,1.2793,1.2752,1.2691,1.2637,1.286,1.2881,1.2874,1.3132,1.3275,1.3247,1.3356,1.3403,1.3403,1.3403,1.3403,1.3403,0.0,0.0,0.0,0.0,0.0,0.0,0.0,0.0,0.0,0.0,0.0,0.0,0.0,0.0,0.0,0.0,0.0,0.0,0.0,0.0,0.0,2.1506,2.0064,1.8211,0.0,0.0,0.0,0.0,0.0,0.0,0.0,0.0,0.0,0.0,0.0,0.0,0.0,0.0,0.0,0.0,1.2033,0.0,0.0,1.1839,1.2423,0.0,0.0,0.0,1.3423,1.2075,1.1809,0.0,0.0,0.0,0.0,0.0,0.0,0.0,0.0,0.0,0.0,0.0,0.0,0.0,1.2618,1.2718,1.2813,1.318,1.3308,1.3444,1.3736,1.4034,1.4251,1.4319,1.4455,1.455,1.4516,1.4462,1.4367,1.4224,1.4173,1.4064,1.3899,1.3804,1.372,1.379,1.3634,1.3566,1.3612,1.3349,1.3186,1.3125,1.2942,1.2868,1.2868,1.28,1.28,1.2861,1.2839,1.2725,1.2637,1.2637,1.2583,1.2515,1.2691,1.2718,1.2651,1.2888,1.3024,1.3139,1.3247,1.3308,1.3315,1.3376,1.3403,1.3403,0.0,0.0,0.0,0.0,0.0,0.0,0.0,0.0,0.0,0.0,0.0,0.0,0.0,0.0,0.0,0.0,0.0,0.0,0.0,0.0,0.0,2.0884,1.9409,1.7784,1.6155,0.0,0.0,0.0,0.0,0.0,0.0,0.0,0.0,0.0,0.0,0.0,0.0,0.0,0.0,1.1755,1.1755,1.1874,0.0,0.0,1.2028,1.2172,1.2282,1.2393,1.2393,1.1701,1.1389,0.0,0.0,0.0,0.0,0.0,1.1705,0.0,0.0,0.0,0.0,0.0,1.206,0.0,1.2409,1.2311,1.2213,1.2576,1.2779,1.3023,1.3295,1.3551,1.3795,1.3973,1.4156,1.4326,1.4468,1.438,1.4245,1.4132,1.4098,1.3939,1.3612,1.3558,1.3512,1.3363,1.3349,1.3349,1.3349,1.3207,1.3105,1.2982,1.2786,1.2665,1.2665,1.2569,1.2569,1.2665,1.2569,1.2501,1.2501,1.2501,1.2501,1.2501,1.2522,1.2515,1.2515,1.2625,1.2813,1.2989,1.3152,1.3214,1.3234,1.3342,1.3403,1.3403,0.0,0.0,0.0,0.0,0.0,0.0,0.0,0.0,0.0,0.0,0.0,0.0,0.0,0.0,0.0,0.0,0.0,0.0,0.0,0.0,1.9793,1.9577,1.9234,1.7561,1.4377,1.4095,0.0,0.0,0.0,0.0,0.0,0.0,0.0,0.0,0.0,0.0,0.0,0.0,0.0,0.9532,0.9532,0.0,1.026,0.9927,0.9894,1.023,1.1882,1.2481,1.244,1.2098,1.0827,0.9716,0.0,0.0,0.0,1.1466,0.0,0.0,0.0,0.0,0.0,0.0,1.206,0.0,1.1755,1.19,1.2125,1.2213,1.2311,1.2588,1.3009,1.3288,1.3498,1.3526,1.3858,1.417,1.4319,1.4319,1.4245,1.4132,1.396,1.3774,1.3605,1.3403,1.32,1.3098,1.3091,1.3091,1.3091,1.2901,1.2807,1.2779,1.2623,1.2549,1.2549,1.2515,1.2515,1.2549,1.2515,1.2501,1.2501,1.2501,1.2501,1.2508,1.2591,1.2617,1.2515,1.2625,1.2706,1.28,1.3071,1.3214,1.3234,1.3342,1.3403,1.3403,0.0,0.0,0.0,0.0,0.0,0.0,0.0,0.0,0.0,0.0,0.0,0.0,0.0,0.0,0.0,0.0,0.0,0.0,0.0,0.0,1.853,1.8206,1.7247,1.5902,1.4153,1.3244,1.2415,0.0,0.0,0.0,0.0,0.0,0.0,0.0,0.0,0.0,0.0,0.0,0.9454,0.7791,1.0059,0.0,0.9888,1.0752,1.0482,0.9736,1.0719,1.0297,0.9268,0.9221,0.924,0.0,1.0226,1.0546,1.0816,0.0,1.202,1.1857,0.0,0.0,0.0,1.1993,1.206,0.0,0.0,1.1764,1.1826,1.205,1.2006,1.2094,1.2542,1.2807,1.3024,1.3254,1.352,1.3799,1.4136,1.4183,1.4102,1.3878,1.3741,1.3605,1.3424,1.3261,1.3152,1.3009,1.3003,1.3003,1.3003,1.2813,1.2693,1.2693,1.2583,1.2501,1.2501,1.2501,1.2501,1.2501,1.2501,1.2501,1.2501,1.2501,1.2501,1.2508,1.2583,1.2569,1.2508,1.2583,1.2617,1.2644,1.2989,1.3152,1.3234,1.3342,1.3403,1.3403,0.0,0.0,0.0,0.0,0.0,0.0,0.0,0.0,0.0,0.0,0.0,0.0,0.0,0.0,0.0,0.0,0.0,0.0,0.0,0.0,0.0,1.6087,1.4938,1.4171,1.3863,1.2453,1.1762,1.1877,0.0,0.0,0.0,0.0,0.0,0.0,0.0,0.0,0.0,0.0,0.0,0.6,0.0,1.0475,0.8724,1.0448,1.0022,0.8589,0.8883,0.7745,0.6109,0.6217,0.7466,0.9007,0.903,1.0445,0.0,0.0,0.0,0.0,0.0,0.0,0.0,0.0,0.0,1.1982,0.0,0.0,0.0,1.1873,1.1748,1.1721,1.2054,1.2257,1.2488,1.2854,1.301,1.3282,1.371,1.3846,1.381,1.3646,1.3551,1.3444,1.3241,1.3132,1.3037,1.2921,1.2887,1.2887,1.2914,1.2698,1.263,1.2645,1.2542,1.2474,1.2501,1.2501,1.2501,1.2501,1.2501,1.2501,1.2501,1.2501,1.2501,1.2501,1.2501,1.2501,1.2501,1.2501,1.2535,1.2617,1.2901,1.3071,1.3193,1.3336,1.3403,1.3403,1.7154,1.6782,0.0,0.0,0.0,0.0,0.0,0.0,0.0,0.0,0.0,0.0,0.0,0.0,0.0,0.0,0.0,0.0,1.266,0.0,0.0,0.0,1.3797,1.3917,1.1979,1.1987,1.2057,1.207,1.2227,0.0,0.0,0.0,0.0,0.0,1.1843,0.0,0.0,0.0,0.6724,0.0,0.629,0.6044,0.0,0.4189,0.4205,0.437,0.6208,0.6687,0.6408,0.0,0.6387,0.7146,0.0,0.9638,1.0197,1.2298,0.0,0.0,0.0,0.0,0.0,0.0,1.1476,1.2469,0.956,0.0,1.1887,1.1397,0.0,1.1592,1.1511,0.0,0.0,1.1935,1.2395,1.2712,1.2522,1.2873,1.3309,1.3714,1.3464,1.3214,1.3214,1.2813,1.2569,1.2556,1.2433,1.242,1.2549,1.2329,1.2295,1.2522,1.2386,1.2372,1.2501,1.2501,1.2501,1.2501,1.2501,1.2501,1.2501,1.2501,1.2501,1.2501,1.2501,1.2501,1.2501,1.2501,1.2664,1.2955,1.2989,1.3009,1.3057,1.3302,1.3403,1.3403,0.0,0.0,0.0,0.0,0.0,0.0,0.0,0.0,0.0,0.0,0.0,0.0,0.0,0.0,0.0,0.0,0.0,0.6792,0.8466,0.0,0.0,0.0,1.1427,1.2275,1.0093,1.1482,1.2234,1.2234,1.2338,0.0,0.0,0.0,0.0,0.0,1.0687,0.0,0.7028,0.0,0.38,0.0,0.0,0.2253,0.0,0.4202,0.4456,0.3353,0.2882,0.2712,0.2688,0.0,0.3548,0.0,0.0,0.0,0.0,1.0481,0.0,0.0,0.0,0.0,0.0,0.0,1.0112,1.0732,1.062,1.1235,1.1782,1.1737,0.0,0.0,0.0,0.0,0.0,0.0,1.1881,1.2125,1.2379,1.2352,1.2494,1.3003,1.2976,1.2881,1.2793,1.261,1.2467,1.2386,1.2325,1.2318,1.2379,1.2264,1.225,1.2372,1.2237,1.2309,1.2501,1.242,1.242,1.2501,1.2501,1.2501,1.2501,1.2501,1.2501,1.2501,1.2501,1.2501,1.2501,1.2501,1.263,1.2834,1.2969,1.3105,1.3234,1.3356,1.3403,1.3403,0.0,0.0,0.0,0.0,0.0,0.0,0.0,0.0,0.0,0.0,0.0,0.0,0.8688,0.6796,0.0,0.0,0.4875,0.4783,0.5229,0.0,0.7462,0.0,0.0,0.0,0.0,1.0325,1.1516,1.1516,1.2159,0.0,0.0,0.0,0.0,0.0,0.0,0.7717,0.5708,0.0,0.1745,0.0,0.0,0.0,0.036,0.3626,0.4205,0.3045,0.078,0.0369,0.077,0.0199,0.1571,0.3518,0.34,0.4917,0.701,0.0,0.0,0.0,0.9557,0.0,0.0,0.9515,0.9713,1.0168,1.099,1.1523,1.1891,1.1979,1.1904,0.0,0.0,0.0,1.1492,1.1599,0.0,1.178,1.2203,1.1942,1.1915,1.244,1.2603,1.2623,1.2515,1.2501,1.2461,1.2352,1.2271,1.2264,1.2345,1.2196,1.2162,1.2284,1.2139,1.2121,1.2379,1.2318,1.2338,1.244,1.2481,1.2501,1.2501,1.2501,1.2501,1.2501,1.2501,1.2501,1.2501,1.2501,1.2617,1.2807,1.2955,1.3139,1.3403,1.3403,1.3403,1.3403,1.3928,1.3451,0.0,0.0,0.0,0.0,0.0,0.0,1.0086,1.0563,0.853,0.62,0.4061,0.3736,0.3725,0.0,0.0,0.1223,0.3695,0.5465,0.531,0.0,0.0,0.8356,0.0,0.827,0.9495,0.9495,1.1506,1.2501,0.0,0.0,0.0,0.0,0.9628,0.7576,0.5844,0.3628,0.1674,0.0,0.0,0.0,0.0,0.0162,0.1422,0.2839,0.0732,0.13,0.2677,0.0691,0.1502,0.3413,0.3531,0.5028,0.0,0.0,0.0,0.0,0.0,1.02,1.0153,0.9716,1.1113,1.1934,0.939,1.0703,1.2352,1.1888,1.2413,1.2724,1.1959,0.0,0.0,0.0,0.0,0.0,0.0,1.1633,1.1843,1.2433,1.2508,1.2508,1.2501,1.2501,1.2501,1.2494,1.2268,1.2234,1.2481,1.1952,1.1843,1.2277,1.1999,1.1911,1.2111,1.2254,1.2291,1.2298,1.2433,1.2501,1.2501,1.2501,1.2501,1.2501,1.2501,1.2501,1.2501,1.2501,1.2678,1.2996,1.3003,1.3139,1.3403,1.3403,1.3403,1.3403,0.0,0.0,0.0,0.0,0.0,0.0,0.0,0.9151,0.8078,0.8216,0.6366,0.4685,0.3839,0.2213,0.122,0.1286,0.052,0.0363,0.1237,0.3087,0.0,0.0994,0.0,0.6291,0.0,0.0,0.0,0.0,0.0,1.1804,0.0,0.0,0.0,0.0,0.0,0.6605,0.5955,0.2416,0.0574,0.0,0.0,0.0,0.0,0.0,0.044,0.0954,0.0241,0.0442,0.0924,0.0241,0.0525,0.1139,0.1184,0.1721,0.255,0.4074,0.4503,0.4628,0.5377,0.5616,0.5936,0.7143,0.7854,0.8729,1.0524,1.1835,1.2528,1.2074,1.2345,1.2522,1.2067,0.0,0.0,0.0,0.0,0.0,0.0,1.1531,1.1545,1.1742,1.1938,1.206,1.206,1.206,1.206,1.206,1.1877,1.1898,1.2234,1.2057,1.1979,1.2173,1.1938,1.1904,1.2098,1.2013,1.2088,1.2291,1.2338,1.2413,1.2501,1.2501,1.2501,1.2501,1.2501,1.2501,1.2501,1.2501,1.2623,1.282,1.2962,1.3118,1.3261,1.3363,1.3403,1.3403,0.9133,0.0,0.0,0.0,0.0,0.921,0.8433,0.6833,0.5741,0.585,0.3956,0.2524,0.2464,0.0967,0.0,0.0,0.0,0.0,0.0,0.1961,0.217,0.0082,0.3331,0.4152,0.0,0.0,0.0,0.0,0.0,0.961,0.0,0.0,0.0,0.0,0.0,0.4995,0.4936,0.1458,0.0,0.0,0.0,0.0,0.0,0.0,0.0441,0.0999,0.0278,0.0476,0.0993,0.0239,0.0,0.0,0.0,0.0,0.0288,0.1699,0.2123,0.2296,0.3088,0.3836,0.4935,0.6952,0.7941,0.9032,1.158,1.2569,1.284,1.2393,1.2623,1.2793,1.2486,0.0,0.0,0.0,0.0,0.0,0.0,1.2461,1.2394,1.2394,1.1994,1.1739,1.1786,1.184,1.1891,1.18,1.1712,1.1755,1.1898,1.1952,1.1979,1.1979,1.1884,1.184,1.1979,1.1938,1.2013,1.2247,1.2318,1.2413,1.2501,1.2501,1.2501,1.2501,1.2501,1.2501,1.2501,1.2501,1.2589,1.2706,1.2901,1.3091,1.3234,1.3342,1.3403,1.3403,0.0,0.0,0.0,0.8093,0.6978,0.6,0.6458,0.4481,0.3083,0.3374,0.1421,0.0,0.0,0.0,0.0,0.0,0.0,0.0,0.0,0.1837,0.2059,0.0,0.1877,0.2006,0.0041,0.0,0.0,0.0,0.0,0.0,0.0,0.0,0.0,0.0,0.3941,0.2974,0.2957,0.089,0.0,0.0,0.0,0.0,0.0,0.0,0.1228,0.2672,0.0716,0.1256,0.263,0.0677,0.0,0.0,0.0,0.0,0.0,0.0,0.0,0.0456,0.2562,0.4702,0.6865,0.8945,1.1004,1.2507,1.2341,1.2868,1.3261,1.2774,1.3152,1.3471,1.3071,1.282,0.0,0.0,0.0,0.0,0.0,1.4292,1.4327,1.4231,1.2818,1.1913,1.2058,1.2167,1.2113,1.1926,1.1832,1.1698,1.1626,1.1719,1.18,1.1813,1.1827,1.1827,1.1827,1.2006,1.2111,1.2125,1.2359,1.2494,1.2501,1.2501,1.2501,1.2501,1.2501,1.2501,1.2501,1.2501,1.2589,1.2706,1.2901,1.3091,1.3241,1.3349,1.3403,1.3403,0.5904,0.476,0.3931,0.4453,0.4084,0.3721,0.3876,0.2133,0.084,0.0897,0.041,0.0,0.0,0.0,0.0,0.0,0.0,0.0,0.0,0.0493,0.0578,0.0046,0.0504,0.054,0.0,0.2022,0.2335,0.0789,0.0,0.0,0.3936,0.0,0.0,0.0,0.0,0.3066,0.296,0.088,0.0,0.0,0.0,0.0,0.0,0.0,0.0329,0.0709,0.0202,0.0358,0.0716,0.02,0.0,0.0,0.0,0.0,0.0,0.0,0.0,0.0126,0.0712,0.2467,0.4713,0.6898,0.8915,1.0799,1.2266,1.2935,1.3105,1.2651,1.2949,1.3186,1.2847,1.2664,0.0,0.0,0.0,0.0,0.0,1.5452,1.5832,1.4648,1.5148,1.5665,1.5798,1.453,1.3641,1.3593,1.2054,1.1272,1.157,1.1719,1.1895,1.2162,1.2271,1.2332,1.2332,1.2264,1.2284,1.2386,1.2359,1.24,1.2501,1.2501,1.2501,1.2501,1.2501,1.2501,1.2501,1.2501,1.2589,1.2706,1.2901,1.3159,1.3349,1.339,1.3403,1.3403,0.3375,0.248,0.174,0.1744,0.1678,0.1625,0.1633,0.0684,0.0,0.0,0.0,0.0,0.0,0.0,0.0,0.0,0.0,0.0,0.0,0.0,0.0,0.0,0.0,0.0,0.0,0.1148,0.0,0.0,0.0,0.2933,0.1759,0.2971,0.0,0.0,0.0,0.1754,0.1677,0.0501,0.0,0.0,0.0,0.0,0.0,0.0,0.0,0.0,0.0,0.0,0.0,0.0,0.0,0.0,0.0,0.0,0.0,0.0,0.0,0.021,0.122,0.3096,0.5288,0.7569,0.9631,1.1394,1.2569,1.2963,1.303,1.2664,1.2854,1.303,1.2684,1.2562,1.3312,0.0,0.0,0.0,0.0,1.7729,1.801,1.7112,1.7067,1.7465,1.8393,1.5898,1.418,1.4104,1.2323,1.1205,1.1226,1.1735,1.202,1.1999,1.2454,1.261,1.2413,1.2522,1.2522,1.2406,1.2393,1.2427,1.2501,1.2501,1.2501,1.2501,1.2501,1.2501,1.2501,1.2501,1.2589,1.2713,1.3009,1.3234,1.3403,1.3403,1.3403,1.3403,0.004,0.0,0.0,0.0,0.0,0.0,0.0,0.0,0.0,0.0,0.0,0.0,0.0,0.0,0.0,0.0,0.0,0.0,0.0,0.0,0.0,0.0,0.0,0.0,0.0,0.0,0.0,0.0,0.0,0.0,0.0,0.0,0.0,0.0,0.0,0.0,0.0,0.0,0.0,0.0,0.0,0.0,0.0,0.0,0.0,0.0,0.0,0.0,0.0,0.0,0.0,0.0,0.0,0.0,0.0,0.0,0.021,0.0883,0.2855,0.5114,0.7428,0.9455,1.1498,1.2969,1.2969,1.2955,1.2861,1.2725,1.2807,1.2867,1.2576,1.2761,1.3847,0.0,0.0,2.004,1.9483,1.9831,0.0,1.9471,1.8142,0.0,1.9554,1.6356,1.4155,1.4036,1.2444,1.1272,1.0806,1.1667,1.202,1.1687,1.2474,1.2792,1.244,1.2805,1.2792,1.2406,1.2474,1.2501,1.2501,1.2501,1.2501,1.2501,1.2501,1.2501,1.2501,1.2501,1.2408,1.2351,1.2963,1.3117,1.2982,1.3272,1.341,1.3431,0.0327,0.0,0.0,0.0,0.0,0.0,0.0,0.0,0.0,0.0,0.0,0.0,0.0,0.0,0.0,0.0,0.0,0.0,0.0,0.0,0.0,0.0,0.0,0.0,0.0,0.0,0.0,0.0,0.0,0.0,0.0,0.0,0.0,0.0,0.0,0.0,0.0,0.0,0.0,0.0,0.0,0.0,0.0,0.0,0.0,0.0,0.0,0.0,0.0,0.0,0.0,0.0,0.0,0.0,0.0,0.0,0.1304,0.2813,0.3191,0.619,0.9303,0.9732,1.1321,1.2733,1.2733,1.2671,1.2576,1.2549,1.2562,1.2603,1.2678,1.4079,1.5204,1.5194,1.8471,1.9729,1.6146,1.8411,0.0,1.6198,1.6771,1.7511,1.7686,1.5586,1.4206,1.4172,1.2227,1.1036,1.1118,1.1417,1.1681,1.2009,1.2372,1.2786,1.32,1.2915,1.2854,1.3057,1.2664,1.2501,1.2501,1.2501,1.2501,1.2501,1.2501,1.2501,1.2501,1.2501,1.1553,1.0356,1.2537,1.2245,1.084,1.2727,1.3485,1.3545,0.0217,0.0,0.0,0.0,0.0,0.0,0.0,0.0,0.0,0.0,0.0,0.0,0.0,0.0,0.0,0.0,0.0,0.0,0.0,0.0,0.0,0.0,0.0,0.0,0.0,0.0,0.0,0.0,0.0,0.0605,0.169,0.0524,0.0641,0.1702,0.0,0.0,0.0,0.0,0.0,0.0,0.0,0.0,0.0,0.0,0.0,0.0,0.0,0.0,0.0,0.0,0.0,0.0,0.0,0.0,0.0,0.0,0.0757,0.21,0.4444,0.6495,0.8576,1.0968,1.2084,1.2591,1.2672,1.261,1.2501,1.2501,1.2562,1.2605,1.2679,1.4068,1.5164,1.4958,1.7358,1.8549,1.6462,1.7658,1.81,1.6192,1.5808,1.5658,1.5565,1.3859,1.3079,1.3951,1.2179,1.1023,1.0934,1.1301,1.1613,1.1823,1.242,1.284,1.3051,1.3071,1.303,1.2942,1.2644,1.2501,1.2501,1.2501,1.2501,1.2501,1.2501,1.2501,1.2437,1.1403,1.0491,0.9734,0.9854,0.9961,1.0128,1.122,1.2483,1.3585,-0.0092,0.0,0.0,0.0,0.0,0.0,0.0,0.0,0.0,0.0,0.0,0.0,0.0,0.0,0.0,0.0,0.0,0.0,0.0,0.0,0.0,0.0,0.0,0.0,0.0,0.0,0.0,0.0,0.0,0.0885,0.2542,0.0805,0.0964,0.2611,0.0787,0.0,0.0,0.0,0.0,0.0,0.0,0.0,0.0,0.0,0.0,0.0,0.0,0.0,0.0,0.0,0.0,0.0,0.0,0.0,0.0,0.0,0.0337,0.1471,0.503,0.6519,0.7933,1.1574,1.2496,1.2583,1.2665,1.261,1.2501,1.2501,1.2623,1.2679,1.2645,1.3588,1.4369,1.4493,1.6009,1.6933,1.6446,1.6611,1.6561,1.5914,1.451,1.3541,1.342,1.2195,1.1936,1.3157,1.1974,1.1091,1.0826,1.1294,1.1586,1.1619,1.24,1.286,1.2827,1.3078,1.3078,1.278,1.2603,1.2501,1.2501,1.2501,1.2501,1.2501,1.2535,1.2569,1.25,1.0964,0.986,0.898,0.7837,0.7873,0.8707,0.967,1.1233,1.2942,-0.0476,0.0,0.0,0.0,0.0,0.0,0.0,0.0,0.0,0.0,0.0,0.0,0.0,0.0,0.0,0.0,0.0,0.0,0.0,0.0,0.0,0.0,0.0,0.0,0.0,0.0,0.0,0.0,0.0,0.0119,0.0315,0.008,0.0119,0.031,0.0078,0.0,0.0,0.0,0.0,0.0,0.0,0.0,0.0,0.0,0.0,0.0,0.0,0.0,0.0,0.0,0.0,0.0,0.0,0.0,0.0,0.0,0.1471,0.3149,0.3524,0.6473,0.9575,0.9994,1.1394,1.2672,1.2686,1.261,1.2501,1.2501,1.2623,1.2645,1.2549,1.2862,1.304,1.2612,1.4467,1.5165,1.2909,1.4244,1.4621,1.2352,1.2218,1.2053,1.1524,1.1529,1.1541,1.1441,1.1289,1.1186,1.1159,1.1307,1.1477,1.1613,1.2094,1.2603,1.3166,1.2766,1.2773,1.3166,1.2705,1.2501,1.2501,1.2501,1.2501,1.2508,1.2651,1.2786,1.2922,1.2742,1.0346,0.7006,0.8916,0.7368,0.4486,0.854,1.0351,1.0747,-0.5165,-0.3584,-0.2424,-0.2511,-0.1135,0.0,0.0,0.0,0.0,0.0,0.0,0.0,0.0,0.0,0.0,0.0,0.0,0.0,0.0,0.0,0.0,0.0,0.0,0.0,0.0,0.0,0.0,0.0,0.0,0.0692,0.194,0.0633,0.0,0.0,0.0,0.0,0.0,0.0,0.0,0.0,0.0,0.0,0.0,0.0,0.0,0.0,0.0,0.0,0.0,0.0,0.0,0.0,0.0,0.0,0.0,0.0,0.0631,0.1639,0.2981,0.5526,0.8147,0.9462,1.1345,1.2868,1.2868,1.2752,1.2637,1.2637,1.2617,1.2603,1.263,1.2664,1.2684,1.273,1.3333,1.3452,1.2388,1.2711,1.2678,1.1618,1.1348,1.1199,1.105,1.1354,1.1565,1.1443,1.1185,1.107,1.1193,1.105,1.1219,1.1692,1.0687,1.1109,1.3077,1.1534,1.1534,1.3084,1.2678,1.2501,1.2501,1.2501,1.2556,1.2605,1.2665,1.2868,1.3004,1.1654,0.9298,0.6576,0.6189,0.4947,0.3612,0.5406,0.7003,0.8301,-0.8439,-0.6002,-0.4018,-0.4166,-0.1885,0.0,0.0,0.0,0.0,0.0,0.0,0.0,0.0,0.0,0.0,0.0,0.0,0.0,0.0,0.0,0.0,0.0,0.0,0.0,0.0,0.0,0.0,0.0,0.0,0.0784,0.23,0.0748,0.0,0.0,0.0,0.0,0.0,0.0,0.0,0.0,0.0,0.0,0.0,0.0,0.0,0.0,0.0,0.0,0.0,0.0,0.0,0.0,0.0,0.0,0.0,0.0,0.0,0.0505,0.2771,0.4917,0.7076,0.9305,1.1481,1.3064,1.3064,1.2908,1.2786,1.2699,1.261,1.2549,1.2665,1.2605,1.2644,1.2861,1.2671,1.2433,1.2288,1.1952,1.1674,1.1484,1.1212,1.1022,1.1043,1.1369,1.1572,1.1613,1.1252,1.1145,1.1322,1.0502,1.0301,1.0826,0.8991,0.9002,1.1067,1.0069,1.0069,1.1073,1.1438,1.1289,1.0663,1.0664,1.0768,1.0924,1.1531,1.1585,1.1206,1.0214,0.816,0.5533,0.3985,0.2981,0.2482,0.3146,0.4465,0.5931,-0.8793,-0.5992,-0.4026,-0.4171,-0.1883,0.0,0.0,0.0,0.0,0.0,0.0,0.0,0.0,0.0,0.0,0.0,0.0,0.0,0.0,0.0,0.0,0.0,0.0,0.0,0.0,0.0,0.0,0.0,0.0,0.0,0.0039,0.0,0.0,0.0,0.0,0.0,0.0,0.0,0.0,0.0,0.0,0.0,0.0,0.0,0.0,0.0,0.0,0.0,0.0,0.0,0.0,0.0,0.0,0.0,0.0,0.0,0.0,0.0463,0.2687,0.4947,0.7243,0.9457,1.1617,1.3214,1.3214,1.3098,1.2955,1.272,1.261,1.2549,1.2665,1.2686,1.2686,1.2693,1.2603,1.24,1.2145,1.2098,1.1982,1.1653,1.1698,1.1665,1.1416,1.1389,1.1457,1.157,1.147,1.145,1.1606,0.9628,0.8546,0.8554,0.7111,0.6403,0.6558,0.845,0.845,0.6601,0.8524,0.8361,0.6375,0.6372,0.6448,0.6704,0.8743,0.8566,0.6944,0.8971,0.7252,0.3357,0.3315,0.1974,0.0295,0.2552,0.3523,0.3603,-1.4053,-1.1672,-0.9852,-0.9963,-0.602,-0.2878,-0.2841,-0.1221,0.0,0.0,0.0,0.0,0.0,0.0,0.0,0.0,0.0,0.0,0.0,0.0,0.0,0.0,0.0,0.0,0.0,0.0,0.0,0.0,0.0,0.0,0.0,0.0,0.0,0.0,0.0,0.0,0.0,0.0,0.0,0.0,0.0,0.0,0.0,0.0,0.0,0.0,0.0,0.0,0.0,0.0,0.0,0.0,0.0,0.0,0.0,0.0,0.1084,0.2478,0.3107,0.6073,0.9124,0.9836,1.1689,1.3329,1.3329,1.3214,1.3037,1.274,1.2652,1.2598,1.2583,1.2618,1.2693,1.2693,1.2603,1.2433,1.2244,1.1952,1.1728,1.1597,1.1477,1.1382,1.1389,1.1703,1.1304,0.9854,0.9857,1.0393,1.1525,0.9642,0.8553,0.8627,0.5541,0.4699,0.6472,0.5553,0.5593,0.6513,0.704,0.6923,0.6284,0.6307,0.6371,0.6543,0.7218,0.7188,0.6742,0.7425,0.5971,0.3358,0.3358,0.1974,0.0084,0.0816,0.1126,0.1132,-1.6469,-1.4184,-1.2316,-1.2629,-0.7971,-0.413,-0.4196,-0.1792,0.0,0.0,0.0,0.0,0.0,0.0,0.0,0.0,0.0,0.0,0.0,0.0,0.0,0.0,0.0,0.0,0.0,0.0,0.0,0.0,0.0,0.0,0.0,0.0,0.0,0.0,0.0,0.0,0.0,0.0,0.0,0.0,0.0,0.0,0.0,0.0,0.0,0.0,0.0,0.0,0.0,0.0,0.0,0.0,0.0,0.0,0.0163,0.0939,0.2179,0.3645,0.5214,0.7755,1.0143,1.0981,1.2309,1.3403,1.3403,1.3281,1.3159,1.2935,1.2854,1.2773,1.2617,1.2625,1.2672,1.2611,1.2474,1.2305,1.2254,1.1816,1.1552,1.1577,1.145,1.1348,1.1389,1.1045,1.0269,0.893,0.8262,0.838,0.9379,0.7434,0.6367,0.6433,0.3343,0.2463,0.4029,0.3425,0.3434,0.4056,0.3986,0.3939,0.3915,0.3915,0.3983,0.4109,0.4935,0.4872,0.4237,0.5114,0.4153,0.2144,0.211,0.1269,0.0,0.0,0.0,0.0,-1.6395,-1.4131,-1.2267,-1.2836,-0.8127,-0.441,-0.471,-0.2041,-0.0052,-0.0256,-0.0102,0.0,0.0,0.0,0.0,0.0,0.0,0.0,0.0,0.0,0.0,0.0,0.0,0.0,0.0,0.0,0.0,0.0,0.0,0.0,0.0,0.0,0.0,0.0,0.0,0.0,0.0,0.0,0.0,0.0,0.0,0.0,0.0,0.0,0.0,0.0,0.0,0.0,0.0,0.0,0.0,0.0,0.0,0.0,0.036,0.2313,0.2976,0.4016,0.8057,0.9353,1.0137,1.2432,1.3206,1.3403,1.3403,1.3288,1.3227,1.3214,1.3105,1.2969,1.2773,1.2699,1.2678,1.2528,1.2244,1.2077,1.207,1.1559,1.1244,1.1384,1.128,1.1132,1.1018,0.9496,0.8443,0.8309,0.6616,0.5553,0.5405,0.3545,0.2566,0.2712,0.0926,0.0,0.0,0.19,0.1911,0.0,0.0,0.0,0.0,0.0,0.0,0.0126,0.2184,0.1891,0.0168,0.2268,0.1934,0.0,0.0,0.0,0.0,0.0,0.0,0.0,-1.6064,-1.5588,-1.5297,-1.5398,-1.0915,-0.7956,-0.992,-0.439,-0.0711,-0.2631,-0.1213,0.0,0.0,0.0,0.0,0.0,0.0,0.0,0.0,0.0,0.0,0.0,0.0,0.0,0.0,0.0,0.0,0.0,0.0,0.0,0.0,0.0,0.0,0.0,0.0,0.0,0.0,0.0,0.0,0.0,0.0,0.0,0.0,0.0,0.0,0.0,0.0,0.0,0.0,0.0,0.0,0.0,0.0,0.0,0.0081,0.0601,0.1943,0.3485,0.4509,0.6079,0.7993,1.0251,1.2123,1.3403,1.3403,1.337,1.3315,1.3241,1.3186,1.3118,1.2975,1.2807,1.2678,1.2528,1.2155,1.185,1.1742,1.0275,0.9211,0.9244,0.7998,0.716,0.7145,0.6822,0.5967,0.4401,0.3944,0.3035,0.1444,0.0923,0.1272,0.267,0.095,0.0,0.0,0.0496,0.0497,0.0,0.0,0.0,0.0,0.0,0.0,0.0042,0.0547,0.0505,0.0042,0.0589,0.0507,0.0,0.0,0.0,0.0,0.0,0.0,0.0,-1.5983,-1.5927,-1.6029,-1.6391,-1.2904,-1.054,-1.2065,-0.7357,-0.3688,-0.3857,-0.2644,-0.1295,-0.015,0.0,0.0,0.0,0.0,0.0,0.0,0.0,0.0,0.0,0.0,0.0,0.0,0.0,0.0,0.0,0.0,0.0,0.0,0.0,0.0,0.0,0.0,0.0,0.0,0.0,0.0,0.0,0.0,0.0,0.0,0.0,0.0,0.0,0.0,0.0,0.0,0.0,0.0,0.0,0.0,0.0,0.0,0.0,0.1543,0.3433,0.4424,0.5604,0.7149,0.9409,1.0958,1.2139,1.3189,1.3458,1.3498,1.3485,1.3424,1.3336,1.3193,1.2983,1.2766,1.2542,1.2244,1.1626,1.0535,0.9331,0.8266,0.7355,0.6403,0.5805,0.5804,0.5131,0.4165,0.2979,0.2158,0.12,0.0077,0.0,0.0438,0.1438,0.0523,0.0,0.0,0.0,0.0,0.0,0.0,0.0,0.0,0.0,0.0,0.0,0.0,0.0,0.0,0.0,0.0,0.0,0.0,0.0,0.0,0.0,0.0,0.0,-1.5872,-1.5655,-1.5649,-1.6364,-1.4032,-1.212,-1.2346,-0.9504,-0.6539,-0.4269,-0.3544,-0.2401,-0.0245,0.0,0.0,0.0,0.0,0.0,0.0,0.0,0.0,0.0,0.0,0.0,0.0,0.0,0.0,0.0,0.0,0.0,0.0,0.0,0.0,0.0,0.0,0.0,0.0,0.0,0.0,0.0,0.0,0.0,0.0,0.0,0.0,0.0,0.0,0.0,0.0,0.0,0.0,0.0,0.0,0.0,0.0,0.0,0.1266,0.3014,0.4864,0.5675,0.6471,0.8349,0.9197,1.0169,1.2395,1.2949,1.3206,1.3649,1.3673,1.3587,1.3458,1.3193,1.2808,1.2154,1.1893,1.0983,0.873,0.8049,0.7178,0.553,0.5089,0.4916,0.4916,0.3537,0.2578,0.2455,0.0943,0.0,0.0,0.0,0.0,0.0,0.0,0.0,0.0,0.0,0.0,0.0,0.0,0.0,0.0,0.0,0.0,0.0,0.0,0.0,0.0,0.0,0.0,0.0,0.0,0.0,0.0,0.0,0.0,0.0,-1.5337,-1.5371,-1.5452,-1.5594,-1.3427,-1.1681,-1.1729,-0.757,-0.429,-0.3873,-0.1962,-0.0442,-0.0049,0.0,0.0,0.0,0.0,0.0,0.0,0.0,0.0,0.0,0.0,0.0,0.0,0.0,0.0,0.0,0.0,0.0,0.0,0.0,0.0,0.0,0.0,0.0,0.0,0.0,0.0,0.0,0.0,0.0,0.0,0.0,0.0,0.0,0.0,0.0,0.0,0.0,0.0,0.0,0.0,0.0,0.0,0.0,0.0209,0.0542,0.0899,0.2373,0.3896,0.4223,0.5774,0.7789,1.0003,1.0518,1.1157,1.3206,1.3605,1.3578,1.3558,1.3342,1.2472,1.0391,0.9682,0.8661,0.6421,0.4669,0.3532,0.3233,0.184,0.0884,0.0884,0.0646,0.0487,0.0449,0.016,0.0,0.0,0.0,0.0,0.0,0.0,0.0,0.0,0.0,0.0,0.0,0.0,0.0,0.0,0.0,0.0,0.0,0.0,0.0,0.0,0.0,0.0,0.0,0.0,0.0,0.0,0.0,0.0,0.0,-1.5303,-1.5296,-1.5364,-1.5608,-1.4603,-1.3771,-1.3903,-1.059,-0.7569,-0.6162,-0.3675,-0.1545,-0.0145,0.0,0.0,0.0,0.0,0.0,0.0,0.0,0.0,0.0,0.0,0.0,0.0,0.0,0.0,0.0,0.0,0.0,0.0,0.0,0.0,0.0,0.0,0.0,0.0,0.0,0.0,0.0,0.0,0.0,0.0,0.0,0.0,0.0,0.0,0.0,0.0,0.0,0.0,0.0,0.0,0.0,0.0,0.0,0.0,0.0,0.0,0.0749,0.1795,0.2931,0.4065,0.5491,0.7706,0.8282,0.8682,0.9848,1.0041,0.9996,0.9996,0.9766,0.9197,0.8025,0.7636,0.6706,0.4462,0.3446,0.2481,0.1374,0.0516,0.0,0.0,0.0,0.0,0.0,0.0,0.0,0.0,0.0,0.0,0.0,0.0,0.0,0.0,0.0,0.0,0.0,0.0,0.0,0.0,0.0,0.0,0.0,0.0,0.0,0.0,0.0,0.0,0.0,0.0,0.0,0.0,0.0,0.0,0.0,-1.5337,-1.5262,-1.5289,-1.5683,-1.5635,-1.518,-1.4152,-1.2196,-0.9686,-0.6418,-0.4217,-0.2195,-0.0191,0.0,0.0,0.0,0.0,0.0,0.0,0.0,0.0,0.0,0.0,0.0,0.0,0.0,0.0,0.0,0.0,0.0,0.0,0.0,0.0,0.0,0.0,0.0,0.0,0.0,0.0,0.0,0.0,0.0,0.0,0.0,0.0,0.0,0.0,0.0,0.0,0.0,0.0,0.0,0.0,0.0,0.0,0.0,0.0,0.0,0.0,0.0,0.0381,0.1968,0.2481,0.3173,0.5406,0.599,0.6258,0.6932,0.6987,0.6896,0.6879,0.6721,0.6349,0.5742,0.5588,0.4783,0.255,0.2297,0.1802,0.0196,0.0,0.0,0.0,0.0,0.0,0.0,0.0,0.0,0.0,0.0,0.0,0.0,0.0,0.0,0.0,0.0,0.0,0.0,0.0,0.0,0.0,0.0,0.0,0.0,0.0,0.0,0.0,0.0,0.0,0.0,0.0,0.0,0.0,0.0,0.0,0.0,-1.5194,-1.5187,-1.5194,-1.5228,-1.5343,-1.3788,-0.8924,-0.8164,-0.628,-0.1258,-0.0387,-0.0193,0.0,0.0,0.0,0.0,0.0,0.0,0.0,0.0,0.0,0.0,0.0,0.0,0.0,0.0,0.0,0.0,0.0,0.0,0.0,0.0,0.0,0.0,0.0,0.0,0.0,0.0,0.0,0.0,0.0,0.0,0.0,0.0,0.0,0.0,0.0,0.0,0.0,0.0,0.0,0.0,0.0,0.0,0.0,0.0,0.0,0.0,0.0,0.0,0.0043,0.0173,0.026,0.0823,0.3027,0.3547,0.421,0.6442,0.6889,0.6909,0.6882,0.68,0.6011,0.3958,0.3457,0.262,0.051,0.0235,0.0159,0.0,0.0,0.0,0.0,0.0,0.0,0.0,0.0,0.0,0.0,0.0,0.0,0.0,0.0,0.0,0.0,0.0,0.0,0.0,0.0,0.0,0.0,0.0,0.0,0.0,0.0,0.0,0.0,0.0,0.0,0.0,0.0,0.0,0.0,0.0,0.0,0.0,-1.5181,-1.5181,-1.5181,-1.5181,-1.3942,-1.2263,-1.026,-0.7326,-0.4606,-0.2633,-0.0958,0.0,0.0,0.0,0.0,0.0,0.0,0.0,0.0,0.0,0.0,0.0,0.0,0.0,0.0,0.0,0.0,0.0,0.0,0.0,0.0,0.0,0.0,0.0,0.0,0.0,0.0,0.0,0.0,0.0,0.0,0.0,0.0,0.0,0.0,0.0,0.0,0.0,0.0,0.0,0.0,0.0,0.0,0.0,0.0,0.0,0.0,0.0,0.0,0.0,0.0,0.0,0.0,0.0217,0.1042,0.1259,0.1521,0.2442,0.2618,0.2615,0.2603,0.258,0.2265,0.1412,0.1246,0.0897,0.0124,0.0,0.0,0.0,0.0,0.0,0.0,0.0,0.0,0.0,0.0,0.0,0.0,0.0,0.0,0.0,0.0,0.0,0.0,0.0,0.0,0.0,0.0,0.0,0.0,0.0,0.0,0.0,0.0,0.0,0.0,0.0,0.0,0.0,0.0,0.0,0.0,0.0,0.0,0.0,-1.5181,-1.5181,-1.4946,-1.414,-1.2603,-1.09,-0.9255,-0.6064,-0.3543,-0.2715,-0.1099,0.0,0.0,0.0,0.0,0.0,0.0,0.0,0.0,0.0,0.0,0.0,0.0,0.0,0.0,0.0,0.0,0.0,0.0,0.0,0.0,0.0,0.0,0.0,0.0,0.0,0.0,0.0,0.0,0.0,0.0,0.0,0.0,0.0,0.0,0.0,0.0,0.0,0.0,0.0,0.0,0.0,0.0,0.0,0.0,0.0,0.0,0.0,0.0,0.0,0.0,0.0,0.0,0.0,0.0,0.0,0.0,0.0,0.0,0.0,0.0,0.0,0.0,0.0,0.0,0.0,0.0,0.0,0.0,0.0,0.0,0.0,0.0,0.0,0.0,0.0,0.0,0.0,0.0,0.0,0.0,0.0,0.0,0.0,0.0,0.0,0.0,0.0,0.0,0.0,0.0,0.0,0.0,0.0,0.0,0.0,0.0,0.0,0.0,0.0,0.0,0.0,0.0,0.0,0.0,0.0,-1.5181,-1.5181,-1.4375,-1.1815,-1.1477,-0.9785,-0.4615,-0.3916,-0.3016,-0.0335,0.0,0.0,0.0,0.0,0.0,0.0,0.0,0.0,0.0,0.0,0.0,0.0,0.0,0.0,0.0,0.0,0.0,0.0,0.0,0.0,0.0,0.0,0.0,0.0,0.0,0.0,0.0,0.0,0.0,0.0,0.0,0.0,0.0,0.0,0.0,0.0,0.0,0.0,0.0,0.0,0.0,0.0,0.0,0.0,0.0,0.0,0.0,0.0,0.0,0.0,0.0,0.0,0.0,0.0,0.0,0.0,0.0,0.0,0.0,0.0,0.0,0.0,0.0,0.0,0.0,0.0,0.0,0.0,0.0,0.0,0.0,0.0,0.0,0.0,0.0,0.0,0.0,0.0,0.0,0.0,0.0,0.0,0.0,0.0,0.0,0.0,0.0,0.0,0.0,0.0,0.0,0.0,0.0,0.0,0.0,0.0,0.0,0.0,0.0,0.0,0.0,0.0,0.0,0.0,0.0,0.0,-1.2904,-1.2522,-1.1715,-0.9157,-0.728,-0.5622,-0.4042,-0.2297,-0.0912,-0.0096,0.0,0.0,0.0,0.0,0.0,0.0,0.0,0.0,0.0,0.0,0.0,0.0,0.0,0.0,0.0,0.0,0.0,0.0,0.0,0.0,0.0,0.0,0.0,0.0,0.0,0.0,0.0,0.0,0.0,0.0,0.0,0.0,0.0,0.0,0.0,0.0,0.0,0.0,0.0,0.0,0.0,0.0,0.0,0.0,0.0,0.0,0.0,0.0,0.0,0.0,0.0,0.0,0.0,0.0,0.0,0.0,0.0,0.0,0.0,0.0,0.0,0.0,0.0,0.0,0.0,0.0,0.0,0.0,0.0,0.0,0.0,0.0,0.0,0.0,0.0,0.0,0.0,0.0,0.0,0.0,0.0,0.0,0.0,0.0,0.0,0.0,0.0,0.0,0.0,0.0,0.0,0.0,0.0,0.0,0.0,0.0,0.0,0.0,0.0,0.0,0.0,0.0,0.0,0.0,0.0,0.0,-1.1909,-1.139,-1.0295,-0.6743,-0.4846,-0.3472,-0.2427,-0.1001,0.0,0.0,0.0,0.0,0.0,0.0,0.0,0.0,0.0,0.0,0.0,0.0,0.0,0.0,0.0,0.0,0.0,0.0,0.0,0.0,0.0,0.0,0.0,0.0,0.0,0.0,0.0,0.0,0.0,0.0,0.0,0.0,0.0,0.0,0.0,0.0,0.0,0.0,0.0,0.0,0.0,0.0,0.0,0.0,0.0,0.0,0.0,0.0,0.0,0.0,0.0,0.0,0.0,0.0,0.0,0.0,0.0,0.0,0.0,0.0,0.0,0.0,0.0,0.0,0.0,0.0,0.0,0.0,0.0,0.0,0.0,0.0,0.0,0.0,0.0,0.0,0.0,0.0,0.0,0.0,0.0,0.0,0.0,0.0,0.0,0.0,0.0,0.0,0.0,0.0,0.0,0.0,0.0,0.0,0.0,0.0,0.0,0.0,0.0,0.0,0.0,0.0,0.0,0.0,0.0,0.0,0.0,0.0,-1.1621,-1.1055,-0.9445,-0.4373,-0.3472,-0.2665,-0.0334,0.0,-0.0095,-0.0286,-0.0143,-0.0095,-0.0334,-0.0143,0.0,0.0,0.0,0.0,0.0,0.0,0.0,0.0,0.0,0.0,0.0,0.0,0.0,0.0,0.0,0.0,0.0,0.0,0.0,0.0,0.0,0.0,0.0,0.0,0.0,0.0,0.0,0.0,0.0,0.0,0.0,0.0,0.0,0.0,0.0,0.0,0.0,0.0,0.0,0.0,0.0,0.0,0.0,0.0,0.0,0.0,0.0,0.0,0.0,0.0,0.0,0.0,0.0,0.0,0.0,0.0,0.0,0.0,0.0,0.0,0.0,0.0,0.0,0.0,0.0,0.0,0.0,0.0,0.0,0.0,0.0,0.0,0.0,0.0,0.0,0.0,0.0,0.0,0.0,0.0,0.0,0.0,0.0,0.0,0.0,0.0,0.0,0.0,0.0,0.0,0.0,0.0,0.0,0.0,0.0,0.0,0.0,0.0,0.0,0.0,0.0,0.0,-0.9299,-0.8447,-0.6838,-0.1715,-0.0811,-0.062,-0.0095,0.0,-0.0715,-0.2713,-0.1239,-0.0763,-0.276,-0.1191,0.0,0.0,0.0,0.0,0.0,0.0,0.0,0.0,0.0,0.0,0.0,0.0,0.0,0.0,0.0,0.0,0.0,0.0,0.0,0.0,0.0,0.0,0.0,0.0,0.0,0.0,0.0,0.0,0.0,0.0,0.0,0.0,0.0,0.0,0.0,0.0,0.0,0.0,0.0,0.0,0.0,0.0,0.0,0.0,0.0,0.0,0.0,0.0,0.0,0.0,0.0,0.0,0.0,0.0,0.0,0.0,0.0,0.0,0.0,0.0,0.0,0.0,0.0,0.0,0.0,0.0,0.0,0.0,0.0,0.0,0.0,0.0,0.0,0.0,0.0,0.0,0.0,0.0,0.0,0.0,0.0,0.0,0.0,0.0,0.0,0.0,0.0,0.0,0.0,0.0,0.0,0.0,0.0,0.0,0.0,0.0,0.0,0.0,0.0,0.0,0.0,0.0,-1.0153,-0.9397,-0.8211,-0.428,-0.3615,-0.3615,-0.3615,-0.3615,-0.409,-0.5415,-0.4468,-0.4137,-0.5463,-0.4421,-0.3141,-0.1905,-0.0715,0.0,0.0,0.0,0.0,0.0,0.0,0.0,0.0,0.0,0.0,0.0,0.0,0.0,0.0,0.0,0.0,0.0,0.0,0.0,0.0,0.0,0.0,0.0,0.0,0.0,0.0,0.0,0.0,0.0,0.0,0.0,0.0,0.0,0.0,0.0,0.0,0.0,0.0,0.0,0.0,0.0,0.0,0.0,0.0,0.0,0.0,0.0,0.0,0.0,0.0,0.0,0.0,0.0,0.0,0.0,0.0,0.0,0.0,0.0,0.0,0.0,0.0,0.0,0.0,0.0,0.0,0.0,0.0,0.0,0.0,0.0,0.0,0.0,0.0,0.0,0.0,0.0,0.0,0.0,0.0,0.0,0.0,0.0,0.0,0.0,0.0,0.0,0.0,0.0,0.0,0.0,0.0,0.0,0.0,0.0,0.0,0.0,0.0,0.0,-1.1909,-1.139,-1.0578,-0.8069,-0.7595,-0.7595,-0.7595,-0.7595,-0.7738,-0.8211,-0.788,-0.7785,-0.8211,-0.7453,-0.6079,-0.3993,-0.1477,0.0,0.0,0.0,0.0,0.0,0.0,0.0,0.0,0.0,0.0,0.0,0.0,0.0,0.0,0.0,0.0,0.0,0.0,0.0,0.0,0.0,0.0,0.0,0.0,0.0,0.0,0.0,0.0,0.0,0.0,0.0,0.0,0.0,0.0,0.0,0.0,0.0,0.0,0.0,0.0,0.0,0.0,0.0,0.0,0.0,0.0,0.0,0.0,0.0,0.0,0.0,0.0,0.0,0.0,0.0,0.0,0.0,0.0,0.0,0.0,0.0,0.0,0.0,0.0,0.0,0.0,0.0,0.0,0.0,0.0,0.0,0.0,0.0,0.0,0.0,0.0,0.0,0.0,0.0,0.0,0.0,0.0,0.0,0.0,0.0,0.0,0.0,0.0,0.0,0.0,0.0,0.0,0.0,0.0,0.0,0.0,0.0,0.0,0.0,-1.1909,-1.139,-1.0578,-0.8069,-0.7595,-0.7595,-0.7595,-0.7595,-0.84,-1.0578,-0.8968,-0.8447,-1.063,-0.6929,-0.4183,-0.3851,-0.1477,0.0,0.0,0.0,0.0,0.0,0.0,0.0,0.0,0.0,0.0,0.0,0.0,0.0,0.0,0.0,0.0,0.0,0.0,0.0,0.0,0.0,0.0,0.0,0.0,0.0,0.0,0.0,0.0,0.0,0.0,0.0,0.0,0.0,0.0,0.0,0.0,0.0,0.0,0.0,0.0,0.0,0.0,0.0,0.0,0.0,0.0,0.0,0.0,0.0,0.0,0.0,0.0,0.0,0.0,0.0,0.0,0.0,0.0,0.0,0.0,0.0,0.0,0.0,0.0,0.0,0.0,0.0,0.0,0.0,0.0,0.0,0.0,0.0,0.0,0.0,0.0,0.0,0.0,0.0,0.0,0.0,0.0,0.0,0.0,0.0,0.0,0.0,0.0,0.0,0.0,0.0,0.0,0.0,0.0,0.0,0.0,0.0,0.0,0.0,-1.3758,-1.3522,-1.3187,-1.2045,-1.1857,-1.1857,-1.1857,-1.1857,-1.2234,-1.3375,-1.2522,-1.2286,-1.3381,-0.8968,-0.5368,-0.3946,-0.1477,0.0,0.0,0.0,0.0,0.0,0.0,0.0,0.0,0.0,0.0,0.0,0.0,0.0,0.0,0.0,0.0,0.0,0.0,0.0,0.0,0.0,0.0,0.0,0.0,0.0,0.0,0.0,0.0,0.0,0.0,0.0,0.0,0.0,0.0,0.0,0.0,0.0,0.0,0.0,0.0,0.0,0.0,0.0,0.0,0.0,0.0,0.0,0.0,0.0,0.0,0.0,0.0,0.0,0.0,0.0,0.0,0.0,0.0,0.0,0.0,0.0,0.0,0.0,0.0,0.0,0.0,0.0,0.0,0.0,0.0,0.0,0.0,0.0,0.0,0.0,0.0,0.0,0.0,0.0,0.0,0.0,0.0,0.0,0.0,0.0,0.0,0.0,0.0,0.0,0.0,0.0,0.0,0.0,0.0,0.0,0.0,0.0,0.0,0.0]},{"header":{"parameterUnit":"m.s-1","parameterCategory":1,"la1":30.6,"la2":28.766,"lo1":-90.7593,"lo2":-88.6598,"dx":0.0162,"dy":0.0183,"nx":116,"ny":114,"refTime":"2023-01-24T06:00:00:Z","depth":0,"parameterNumber":3,"parameterNumberName":"V-component_of_WINDS"},"data":[0.0,0.0,0.0,0.0,0.0,0.0,0.0,0.0,0.0,0.0,0.0,0.0,0.0,0.0,0.0,0.0,0.0,0.0,0.0,0.0,0.0,0.0,0.0,0.0,0.0,0.0,0.0,0.0,0.0,0.0,0.0,0.0,0.0,0.0,0.0,0.0,0.0,0.0,0.0,0.0,0.0,0.0,0.0,0.0,0.0,0.0,0.0,0.0,0.0,0.0,0.0,0.0,0.0,0.0,0.0,0.0,0.0,0.0,0.0,0.0,0.0,0.0,0.0,0.0,0.0,0.0,0.0,0.0,0.0,0.0,0.0,0.0,0.0,0.0,0.0,0.0,0.0,0.0,0.0,0.0,0.0,0.0,0.0,0.0,0.0,0.0,0.0,0.0,0.0,0.0,0.0,0.0,0.0,0.0,0.0,0.0,0.0,0.0,0.0,0.0,0.0,0.0,0.0,0.0,0.0,0.0,0.0,0.0,0.0,0.0,0.0,0.0,0.0,0.0,0.0,0.0,0.0,0.0,0.0,0.0,0.0,0.0,0.0,0.0,0.0,0.0,0.0,0.0,0.0,0.0,0.0,0.0,0.0,0.0,0.0,0.0,0.0,0.0,0.0,0.0,0.0,0.0,0.0,0.0,0.0,0.0,0.0,0.0,0.0,0.0,0.0,0.0,0.0,0.0,0.0,0.0,0.0,0.0,0.0,0.0,0.0,0.0,0.0,0.0,0.0,0.0,0.0,0.0,0.0,0.0,0.0,0.0,0.0,0.0,0.0,0.0,0.0,0.0,0.0,0.0,0.0,0.0,0.0,0.0,0.0,0.0,0.0,0.0,0.0,0.0,0.0,0.0,0.0,0.0,0.0,0.0,0.0,0.0,0.0,0.0,0.0,0.0,0.0,0.0,0.0,0.0,0.0,0.0,0.0,0.0,0.0,0.0,0.0,0.0,0.0,0.0,0.0,0.0,0.0,0.0,0.0,0.0,0.0,0.0,0.0,0.0,0.0,0.0,0.0,0.0,0.0,0.0,0.0,0.0,0.0,0.0,0.0,0.0,0.0,0.0,0.0,0.0,0.0,0.0,0.0,0.0,0.0,0.0,0.0,0.0,0.0,0.0,0.0,0.0,0.0,0.0,0.0,0.0,0.0,0.0,0.0,0.0,0.0,0.0,0.0,0.0,0.0,0.0,0.0,0.0,0.0,0.0,0.0,0.0,0.0,0.0,0.0,0.0,0.0,0.0,0.0,0.0,0.0,0.0,0.0,0.0,0.0,0.0,0.0,0.0,0.0,0.0,0.0,0.0,0.0,0.0,0.0,0.0,0.0,0.0,0.0,0.0,0.0,0.0,0.0,0.0,0.0,0.0,0.0,0.0,0.0,0.0,0.0,0.0,0.0,0.0,0.0,0.0,0.0,0.0,0.0,0.0,0.0,0.0,0.0,0.0,0.0,0.0,0.0,0.0,0.0,0.0,0.0,0.0,0.0,0.0,0.0,0.0,0.0,0.0,0.0,0.0,0.0,0.0,0.0,0.0,0.0,0.0,0.0,0.0,0.0,0.0,0.0,0.0,0.0,0.0,0.0,0.0,0.0,0.0,0.0,0.0,0.0,0.0,0.0,0.0,0.0,0.0,0.0,0.0,0.0,0.0,0.0,0.0,0.0,0.0,0.0,0.0,0.0,0.0,0.0,0.0,0.0,0.0,0.0,0.0,0.0,0.0,0.0,0.0,0.0,0.0,0.0,0.0,0.0,0.0,0.0,0.0,0.0,0.0,0.0,0.0,0.0,0.0,0.0,0.0,0.0,0.0,0.0,0.0,0.0,0.0,0.0,0.0,0.0,0.0,0.0,0.0,0.0,0.0,0.0,0.0,0.0,0.0,0.0,0.0,0.0,0.0,0.0,0.0,0.0,0.0,0.0,0.0,0.0,0.0,0.0,0.0,0.0,0.0,0.0,0.0,0.0,0.0,0.0,0.0,0.0,0.0,0.0,0.0,0.0,0.0,0.0,0.0,0.0,0.0,0.0,0.0,0.0,0.0,0.0,0.0,0.0,0.0,0.0,0.0,0.0,0.0,0.0,0.0,0.0,0.0,0.0,0.0,0.0,0.0,0.0,0.0,0.0,0.0,0.0,0.0,0.0,0.0,0.0,0.0,0.0,0.0,0.0,0.0,0.0,0.0,0.0,0.0,0.0,0.0,0.0,0.0,0.0,0.0,0.0,0.0,0.0,0.0,0.0,0.0,0.0,0.0,0.0,0.0,0.0,0.0,0.0,0.0,0.0,0.0,0.0,0.0,0.0,0.0,0.0,0.0,0.0,0.0,0.0,0.0,0.0,0.0,0.0,0.0,0.0,0.0,0.0,0.0,0.0,0.0,0.0,0.0,0.0,0.0,0.0,0.0,0.0,0.0,0.0,0.0,0.0,0.0,0.0,0.0,0.0,0.0,0.0,0.0,0.0,0.0,0.0,0.0,0.0,0.0,0.0,0.0,0.0,0.0,0.0,0.0,0.0,0.0,0.0,0.0,0.0,0.0,0.0,0.0,0.0,0.0,0.0,0.0,0.0,0.0,0.0,0.0,0.0,0.0,0.0,0.0,0.0,0.0,0.0,0.0,0.0,0.0,0.0,0.0,0.0,0.0,0.0,0.0,0.0,0.0,0.0,0.0,0.0,0.0,0.0,0.0,0.0,0.0,0.0,0.0,0.0,0.0,0.0,0.0,0.0,0.0,0.0,0.0,0.0,0.0,0.0,0.0,0.0,0.0,0.0,0.0,0.0,0.0,0.0,0.0,0.0,0.0,0.0,0.0,0.0,0.0,0.0,0.0,0.0,0.0,0.0,0.0,0.0,0.0,0.0,0.0,0.0,0.0,0.0,0.0,0.0,0.0,0.0,0.0,0.0,0.0,0.0,0.0,0.0,0.0,0.0,0.0,0.0,0.0,0.0,0.0,0.0,0.0,0.0,0.0,0.0,0.0,0.0,0.0,0.0,0.0,0.0,0.0,0.0,0.0,0.0,0.0,0.0,0.0,0.0,0.0,0.0,0.0,0.0,0.0,0.0,0.0,0.0,0.0,0.0,0.0,0.0,0.0,0.0,0.0,0.0,0.0,0.0,0.0,0.0,0.0,0.0,0.0,0.0,0.0,0.0,0.0,0.0,0.0,0.0,0.0,0.0,0.0,0.0,0.0,0.0,0.0,0.0,0.0,0.0,0.0,0.0,0.0,0.0,0.0,0.0,0.0,0.0,0.0,0.0,0.0,0.0,0.0,0.0,0.0,0.0,0.0,0.0,0.0,0.0,0.0,0.0,0.0,0.0,0.0,0.0,0.0,0.0,0.0,0.0,0.0,0.0,0.0,0.0,0.0,0.0,0.0,0.0,0.0,0.0,0.0,0.0,0.0,0.0,0.0,0.0,0.0,0.0,0.0,0.0,0.0,0.0,0.0,0.0,0.0,0.0,0.0,0.0,0.0,0.0,0.0,0.0,0.0,0.0,0.0,0.0,0.0,0.0,0.0,0.0,0.0,0.0,0.0,0.0,0.0,0.0,0.0,0.0,0.0,0.0,0.0,0.0,0.0,0.0,0.0,0.0,0.0,0.0,0.0,0.0,0.0,0.0,0.0,0.0,0.0,0.0,0.0,0.0,0.0,0.0,0.0,0.0,0.0,0.0,0.0,0.0,0.0,0.0,0.0,0.0,0.0,0.0,0.0,0.0,0.0,0.0,0.0,0.0,0.0,0.0,0.0,0.0,0.0,0.0,0.0,0.0,0.0,0.0,0.0,0.0,0.0,0.0,0.0,0.0,0.0,0.0,0.0,0.0,0.0,0.0,0.0,0.0,0.0,0.0,0.0,0.0,0.0,0.0,0.0,0.0,0.0,0.0,0.0,0.0,0.0,0.0,0.0,0.0,0.0,0.0,0.0,0.0,0.0,0.0,0.0,0.0,0.0,0.0,0.0,0.0,0.0,0.0,0.0,0.0,0.0,0.0,0.0,0.0,0.0,0.0,0.0,0.0,0.0,0.0,0.0,0.0,0.0,0.0,0.0,0.0,0.0,0.0,0.0,0.0,0.0,0.0,0.0,0.0,0.0,0.0,0.0,0.0,0.0,0.0,0.0,0.0,0.0,0.0,0.0,0.0,0.0,0.0,0.0,0.0,0.0,0.0,0.0,0.0,0.0,0.0,0.0,0.0,0.0,0.0,0.0,0.0,0.0,0.0,0.0,0.0,0.0,0.0,0.0,0.0,0.0,0.0,0.0,0.0,0.0,0.0,0.0,0.0,0.0,0.0,0.0,0.0,0.0,0.0,0.0,0.0,0.0,0.0,0.0,0.0,0.0,0.0,0.0,0.0,0.0,0.0,0.0,0.0,0.0,0.0,0.0,0.0,0.0,0.0,0.0,0.0,0.0,0.0,0.0,0.0,0.0,0.0,0.0,0.0,0.0,0.0,0.0,0.0,0.0,0.0,0.0,0.0,0.0,0.0,0.0,0.0,0.0,0.0,0.0,0.0,0.0,0.0,0.0,0.0,0.0,0.0,0.0,0.0,0.0,0.0,0.0,0.0,0.0,0.0,0.0,0.0,0.0,0.0,0.0,0.0,0.0,0.0,0.0,0.0,0.0,0.0,0.0,0.0,0.0,0.0,0.0,0.0,0.0,0.0,0.0,0.0,0.0,0.0,0.0,0.0,0.0,0.0,0.0,0.0,0.0,0.0,0.0,0.0,0.0,0.0,0.0,0.0,0.0,0.0,0.0,0.0,0.0,0.0,0.0,0.0,0.0,0.0,0.0,0.0,0.0,0.0,0.0,0.0,0.0,0.0,0.0,0.0,0.0,0.0,0.0,0.0,0.0,0.0,0.0,0.0,0.0,0.0,0.0,0.0,0.0,0.0,0.0,0.0,0.0,0.0,0.0,0.0,0.0,0.0,0.0,0.0,0.0,0.0,0.0,0.0,0.0,0.0,0.0,0.0,0.0,0.0,0.0,0.0,0.0,0.0,0.0,0.0,0.0,0.0,0.0,0.0,0.0,0.0,0.0,0.0,0.0,0.0,0.0,0.0,0.0,0.0,0.0,0.0,0.0,0.0,0.0,0.0,0.0,0.0,0.0,0.0,0.0,0.0,0.0,0.0,0.0,0.0,0.0,0.0,0.0,0.0,0.0,0.0,0.0,0.0,0.0,0.0,0.0,0.0,0.0,0.0,0.0,0.0,0.0,0.0,0.0,0.0,0.0,0.0,0.0,0.0,0.0,0.0,0.0,0.0,0.0,0.0,0.0,0.0,0.0,0.0,0.0,0.0,0.0,0.0,0.0,0.0,0.0,0.0,0.0,0.0,0.0,0.0,0.0,0.0,0.0,0.0,0.0,0.0,0.0,0.0,0.0,0.0,0.0,0.0,0.0,0.0,0.0,0.0,0.0,0.0,0.0,0.0,0.0,0.0,0.0,0.0,0.0,0.0,0.0,0.0,0.0,0.0,0.0,0.0,0.0,0.0,0.0,0.0,0.0,0.0,0.0,0.0,0.0,0.0,0.0,0.0,0.0,0.0,0.0,0.0,0.0,0.0,0.0,0.0,0.0,0.0,0.0,0.0,0.0,0.0,0.0,0.0,0.0,0.0,0.0,0.0,0.0,0.0,0.0,0.0,0.0,0.0,0.0,0.0,0.0,0.0,0.0,0.0,0.0,0.0,0.0,0.0,0.0,0.0,0.0,0.0,0.0,0.0,0.0,0.0,0.0,0.0,0.0,0.0,0.0,0.0,0.0,0.0,0.0,0.0,0.0,0.0,0.0,0.0,0.0,0.0,0.0,0.0,0.0,0.0,0.0,0.0,0.0,0.0,0.0,0.0,0.0,0.0,0.0,0.0,0.0,0.0,0.0,0.0,0.0,0.0,0.0,0.0,0.0,0.0,0.0,0.0,0.0,0.0,0.0,0.0,0.0,0.0,0.0,0.0,0.0,0.0,0.0,0.0,0.0,0.0,0.0,0.0,0.0,0.0,0.0,0.0,0.0,0.0,0.0,0.0,0.0,0.0,0.0,0.0,0.0,0.0,0.0,0.0,0.0,0.0,0.0,0.0,0.0,0.0,0.0,0.0,0.0,0.0,0.0,4.1594,4.0967,0.0,0.0,0.0,0.0,0.0,0.0,0.0,0.0,0.0,0.0,0.0,0.0,0.0,0.0,0.0,0.0,0.0,0.0,0.0,0.0,0.0,0.0,0.0,0.0,0.0,0.0,0.0,0.0,0.0,0.0,0.0,0.0,0.0,0.0,0.0,0.0,0.0,0.0,0.0,0.0,0.0,0.0,0.0,0.0,0.0,0.0,0.0,0.0,0.0,0.0,0.0,0.0,0.0,0.0,0.0,0.0,0.0,0.0,0.0,0.0,0.0,0.0,0.0,0.0,0.0,0.0,0.0,0.0,0.0,0.0,0.0,0.0,0.0,0.0,0.0,0.0,0.0,0.0,0.0,0.0,0.0,0.0,0.0,0.0,0.0,0.0,0.0,0.0,0.0,0.0,0.0,0.0,0.0,0.0,0.0,0.0,0.0,0.0,0.0,0.0,0.0,0.0,0.0,0.0,0.0,0.0,0.0,0.0,0.0,0.0,0.0,0.0,0.0,0.0,4.5339,4.369,0.0,0.0,0.0,0.0,0.0,0.0,0.0,0.0,0.0,0.0,0.0,0.0,0.0,0.0,0.0,0.0,0.0,0.0,0.0,0.0,0.0,0.0,0.0,0.0,0.0,0.0,0.0,0.0,0.0,0.0,0.0,0.0,0.0,0.0,0.0,0.0,0.0,0.0,0.0,0.0,0.0,0.0,0.0,0.0,0.0,0.0,0.0,0.0,0.0,0.0,0.0,0.0,0.0,0.0,0.0,0.0,0.0,0.0,0.0,0.0,0.0,0.0,0.0,0.0,0.0,0.0,0.0,0.0,0.0,0.0,0.0,0.0,0.0,0.0,0.0,0.0,0.0,0.0,0.0,0.0,0.0,0.0,0.0,0.0,0.0,0.0,0.0,0.0,0.0,0.0,0.0,0.0,0.0,0.0,0.0,0.0,0.0,0.0,0.0,0.0,0.0,0.0,0.0,0.0,0.0,0.0,0.0,0.0,5.3213,5.4515,5.5699,5.5699,5.5023,5.3687,4.9965,4.7699,4.6684,4.6752,0.0,0.0,0.0,0.0,0.0,0.0,0.0,0.0,0.0,0.0,0.0,0.0,0.0,0.0,0.0,0.0,0.0,0.0,0.0,0.0,0.0,0.0,0.0,0.0,0.0,0.0,0.0,0.0,0.0,0.0,0.0,0.0,0.0,0.0,0.0,0.0,0.0,0.0,0.0,0.0,0.0,0.0,0.0,0.0,0.0,0.0,0.0,0.0,0.0,0.0,0.0,0.0,0.0,0.0,0.0,0.0,0.0,0.0,0.0,0.0,0.0,0.0,0.0,0.0,0.0,0.0,0.0,0.0,0.0,0.0,0.0,0.0,0.0,0.0,0.0,0.0,0.0,0.0,0.0,0.0,0.0,0.0,0.0,0.0,0.0,0.0,4.2455,4.3288,0.0,0.0,0.0,0.0,0.0,0.0,0.0,0.0,0.0,0.0,0.0,0.0,0.0,5.0049,5.142,5.2942,5.3856,5.416,5.5006,5.5496,5.5699,5.5699,5.5597,5.5395,5.4786,0.0,5.0288,4.78,0.0,0.0,0.0,0.0,0.0,0.0,0.0,0.0,0.0,0.0,0.0,0.0,0.0,0.0,0.0,0.0,0.0,0.0,0.0,0.0,0.0,0.0,0.0,0.0,0.0,0.0,0.0,0.0,0.0,0.0,0.0,0.0,0.0,0.0,0.0,0.0,0.0,0.0,0.0,0.0,0.0,0.0,0.0,0.0,0.0,0.0,0.0,0.0,0.0,0.0,0.0,0.0,0.0,0.0,0.0,0.0,0.0,0.0,0.0,0.0,0.0,0.0,0.0,0.0,0.0,0.0,0.0,0.0,0.0,0.0,0.0,0.0,0.0,0.0,0.0,0.0,0.0,0.0,0.0,0.0,0.0,0.0,0.0,0.0,0.0,4.4012,4.479,4.4708,4.5365,4.6157,0.0,0.0,0.0,0.0,0.0,0.0,0.0,0.0,0.0,5.1623,5.3112,5.4363,5.5446,5.6934,5.8321,5.9607,6.0757,6.1738,6.255,6.255,6.2327,6.1888,6.1042,5.925,5.6544,5.23,5.0371,5.0015,0.0,0.0,0.0,0.0,4.9747,4.9835,0.0,0.0,0.0,0.0,0.0,0.0,0.0,0.0,0.0,0.0,0.0,0.0,0.0,0.0,0.0,4.6121,0.0,0.0,0.0,0.0,0.0,0.0,0.0,0.0,0.0,0.0,0.0,0.0,0.0,0.0,0.0,0.0,0.0,0.0,0.0,0.0,0.0,0.0,0.0,0.0,0.0,0.0,0.0,0.0,0.0,0.0,0.0,0.0,0.0,0.0,0.0,0.0,0.0,0.0,0.0,0.0,0.0,0.0,0.0,0.0,0.0,0.0,0.0,0.0,0.0,0.0,0.0,0.0,0.0,0.0,0.0,0.0,0.0,0.0,0.0,0.0,0.0,4.5331,4.6312,4.5771,4.6853,4.7936,0.0,0.0,0.0,0.0,0.0,0.0,5.2012,5.3687,5.531,5.6833,5.8581,5.9937,6.0892,6.2188,6.3824,6.5774,6.633,6.7184,6.8326,6.8044,6.7489,6.6724,6.5459,6.3835,6.1738,5.6697,5.3416,5.1488,5.1116,5.0642,5.027,5.137,5.1911,5.2216,0.0,0.0,0.0,0.0,0.0,0.0,0.0,0.0,0.0,0.0,0.0,0.0,0.0,0.0,5.0059,5.1662,5.1128,5.0655,0.0,0.0,0.0,0.0,0.0,0.0,0.0,0.0,0.0,0.0,0.0,0.0,0.0,0.0,0.0,0.0,0.0,0.0,0.0,0.0,0.0,0.0,0.0,0.0,0.0,0.0,0.0,0.0,0.0,0.0,0.0,0.0,0.0,0.0,0.0,0.0,0.0,0.0,0.0,0.0,0.0,0.0,0.0,0.0,0.0,0.0,0.0,0.0,0.0,0.0,0.0,0.0,0.0,0.0,0.0,0.0,0.0,0.0,0.0,0.0,0.0,4.5703,4.8206,0.0,0.0,0.0,0.0,5.1961,5.4076,5.5953,5.7426,5.9641,6.1535,6.3004,6.5543,6.7585,6.8987,6.9821,7.0817,7.1907,6.99,6.9121,6.9495,6.841,6.7489,6.6757,6.5967,6.5189,6.4072,5.9539,5.6799,5.5293,5.389,5.3315,5.3281,5.3382,5.3822,5.4448,0.0,0.0,0.0,0.0,0.0,0.0,0.0,0.0,0.0,0.0,0.0,0.0,0.0,5.5133,5.6596,5.6692,5.6454,5.5426,5.3447,0.0,0.0,0.0,0.0,0.0,0.0,0.0,0.0,0.0,0.0,0.0,0.0,0.0,0.0,0.0,0.0,0.0,0.0,0.0,0.0,0.0,0.0,0.0,0.0,0.0,0.0,0.0,0.0,0.0,0.0,0.0,0.0,0.0,0.0,0.0,0.0,0.0,0.0,0.0,0.0,0.0,0.0,0.0,0.0,0.0,0.0,0.0,0.0,0.0,0.0,0.0,0.0,0.0,0.0,0.0,0.0,0.0,0.0,0.0,0.0,5.1251,5.2773,0.0,5.4955,5.4668,5.5615,5.8592,6.0654,6.2877,6.5324,6.739,6.9405,7.1345,7.2781,7.4011,7.5011,7.5768,7.6352,7.6737,7.5707,7.5266,7.5342,7.3184,7.1819,7.1007,6.9338,6.7861,6.6576,6.4478,6.1332,5.7762,5.7221,5.6443,5.5818,5.7205,5.7915,5.822,0.0,0.0,0.0,0.0,0.0,0.0,0.0,0.0,0.0,0.0,0.0,5.1883,5.6311,5.9208,6.0823,6.0848,5.9893,5.838,5.6285,0.0,0.0,0.0,0.0,0.0,0.0,0.0,0.0,0.0,0.0,0.0,0.0,0.0,0.0,0.0,0.0,0.0,0.0,0.0,0.0,0.0,0.0,0.0,4.5616,0.0,0.0,0.0,0.0,0.0,0.0,0.0,0.0,0.0,0.0,0.0,0.0,0.0,0.0,0.0,0.0,0.0,0.0,0.0,0.0,0.0,0.0,0.0,0.0,0.0,0.0,0.0,0.0,0.0,0.0,0.0,0.0,0.0,0.0,5.2182,5.4972,5.6986,5.8558,6.008,6.1667,6.1415,6.2404,6.555,6.7638,6.983,7.2295,7.4166,7.5944,7.7644,7.879,7.9586,8.0084,8.0584,8.1025,8.1386,8.0167,7.9478,7.9212,7.642,7.4594,7.3536,7.1208,6.9826,6.9134,6.8383,6.6082,6.2938,6.1741,6.0825,6.0419,6.2415,6.3125,6.3117,0.0,0.0,0.0,0.0,0.0,0.0,0.0,0.0,0.0,0.0,4.9982,5.3136,5.8742,6.0835,6.2487,6.4139,6.1276,5.9366,5.9366,5.4722,0.0,0.0,0.0,0.0,0.0,0.0,0.0,0.0,0.0,0.0,0.0,0.0,0.0,0.0,0.0,0.0,0.0,0.0,0.0,0.0,0.0,0.0,4.8748,0.0,0.0,0.0,0.0,0.0,0.0,0.0,0.0,0.0,0.0,0.0,0.0,0.0,0.0,0.0,0.0,0.0,0.0,0.0,0.0,0.0,0.0,0.0,0.0,0.0,0.0,0.0,0.0,0.0,0.0,0.0,0.0,0.0,5.2783,5.7143,6.0973,6.2586,6.5345,6.723,6.7658,6.8968,7.0648,7.2584,7.4773,7.6674,7.8161,7.9684,8.0836,8.1596,8.336,8.4309,8.4309,8.4309,8.4809,8.5803,8.289,8.1295,8.0749,7.7811,7.5636,7.4059,7.1498,7.0922,7.1749,7.0992,7.0836,7.0734,6.729,6.6362,6.7154,6.8679,6.9187,6.8863,0.0,0.0,0.0,0.0,0.0,0.0,0.0,0.0,0.0,0.0,5.2575,5.7534,6.2624,6.5409,6.732,6.8348,6.5263,6.3277,6.3263,0.0,0.0,0.0,0.0,0.0,0.0,0.0,0.0,0.0,0.0,0.0,0.0,0.0,0.0,0.0,0.0,0.0,0.0,0.0,0.0,0.0,0.0,0.0,5.2647,0.0,0.0,0.0,0.0,0.0,0.0,0.0,0.0,0.0,0.0,0.0,0.0,0.0,0.0,0.0,0.0,0.0,0.0,0.0,0.0,0.0,0.0,0.0,0.0,0.0,0.0,0.0,0.0,0.0,0.0,0.0,5.7672,6.0785,6.015,6.3764,6.7676,7.093,7.2526,7.3588,7.4232,7.4656,7.5813,7.7976,7.9992,8.1715,8.3221,8.4461,8.5537,8.6301,8.6282,8.6517,8.7065,8.6517,8.6384,8.6647,8.5001,8.4181,8.3924,8.1216,7.9449,7.8351,7.5956,7.4747,7.435,7.3031,7.2531,7.2506,7.1579,7.102,7.0845,7.1807,7.1438,7.0389,0.0,0.0,0.0,0.0,0.0,0.0,0.0,0.0,0.0,0.0,5.4429,5.999,6.4566,6.7121,6.8692,6.9175,6.6057,6.3909,6.3566,0.0,0.0,0.0,0.0,7.22,0.0,0.0,0.0,0.0,0.0,0.0,0.0,0.0,0.0,0.0,0.0,0.0,0.0,0.0,0.0,0.0,0.0,0.0,5.8251,5.4659,5.3038,5.2429,5.0521,4.979,4.9307,4.6515,0.0,0.0,0.0,0.0,0.0,0.0,0.0,0.0,0.0,0.0,0.0,0.0,0.0,0.0,0.0,0.0,0.0,0.0,0.0,0.0,0.0,0.0,0.0,0.0,6.4092,6.8408,7.022,7.1784,7.4042,7.7576,7.8674,7.97,8.1256,8.1402,8.231,8.4439,8.5333,8.6283,8.7464,8.7502,8.7729,8.8206,8.7435,8.7215,8.7692,8.7234,8.6978,8.6978,8.632,8.5846,8.5409,8.315,8.1679,8.0798,7.8626,7.7492,7.7066,7.5816,7.5371,7.5365,0.0,0.0,0.0,0.0,7.3871,7.2846,0.0,0.0,0.0,0.0,0.0,0.0,0.0,0.0,0.0,0.0,0.0,6.0612,6.4785,6.6547,6.7553,6.7816,6.4935,6.2973,0.0,0.0,0.0,7.0538,7.513,7.7798,0.0,0.0,0.0,0.0,0.0,0.0,0.0,0.0,0.0,0.0,0.0,0.0,0.0,0.0,0.0,0.0,0.0,0.0,6.4527,6.2314,6.0788,5.965,5.7982,5.5687,5.3193,5.1333,0.0,0.0,0.0,0.0,0.0,0.0,0.0,0.0,0.0,0.0,0.0,0.0,0.0,0.0,0.0,0.0,0.0,0.0,0.0,0.0,0.0,0.0,0.0,0.0,7.0634,7.5663,8.0873,8.0326,8.0356,8.2954,8.3982,8.5402,8.7798,8.8093,8.8824,9.0483,8.995,8.9803,9.0445,8.9124,0.0,0.0,0.0,8.7161,8.7271,8.7088,8.7051,8.7124,8.7014,8.6628,8.5877,8.4282,8.312,8.2251,8.0474,7.9745,7.9735,7.8886,7.8605,7.8484,7.5818,7.5197,7.5854,7.6617,7.6403,7.5807,0.0,0.0,0.0,0.0,0.0,0.0,0.0,0.0,0.0,4.9448,5.4054,5.8426,6.2659,6.3603,6.4763,6.6789,6.4909,6.4939,0.0,0.0,7.265,7.663,7.8438,8.0284,8.2402,0.0,0.0,0.0,0.0,0.0,0.0,0.0,0.0,0.0,0.0,0.0,0.0,0.0,0.0,0.0,0.0,0.0,6.878,6.6308,6.4534,6.2942,6.0002,5.9747,6.0151,5.5996,5.5209,5.5243,5.0998,0.0,0.0,0.0,0.0,0.0,0.0,0.0,0.0,0.0,0.0,0.0,0.0,0.0,0.0,0.0,0.0,0.0,0.0,0.0,0.0,7.2263,7.72,8.1594,8.5307,8.7175,8.7906,8.7195,8.8381,8.9458,9.0008,9.0612,9.0869,9.0611,9.0482,9.0134,8.9657,8.9326,8.9179,8.9179,8.839,8.828,8.8923,8.7638,8.7325,8.7949,8.7325,0.0,8.6757,8.6418,8.5799,8.4993,8.3979,8.2828,8.1626,8.0804,8.0096,7.9454,7.824,7.7839,7.8094,7.886,7.8678,7.809,0.0,0.0,0.0,0.0,0.0,0.0,0.0,0.0,0.0,0.0,5.2426,5.648,5.9439,6.0292,6.0959,6.1766,6.2969,0.0,0.0,7.3393,7.6957,8.0262,8.2862,8.4632,8.5478,0.0,0.0,0.0,0.0,0.0,0.0,0.0,0.0,0.0,0.0,0.0,0.0,0.0,0.0,0.0,0.0,0.0,7.702,7.3309,7.1404,7.0257,6.7059,6.5774,6.5079,6.1526,5.9527,5.7814,5.4059,5.1877,5.0322,0.0,0.0,0.0,0.0,0.0,0.0,0.0,0.0,0.0,0.0,0.0,0.0,0.0,0.0,6.0833,6.4833,0.0,7.4052,7.8535,8.289,8.6463,8.852,9.0537,9.14,9.0152,9.1106,9.2024,9.2427,9.2831,9.3051,9.3033,9.2684,9.2281,9.1877,9.1069,9.0427,8.9987,8.9216,8.8996,8.94,8.8189,8.7802,8.8206,8.7399,8.6978,8.6978,8.6978,8.6554,8.58,8.538,8.4278,8.27,8.1489,8.0534,7.9816,7.98,7.9543,7.9286,8.0094,8.0388,8.0498,0.0,0.0,0.0,0.0,0.0,0.0,0.0,0.0,0.0,0.0,0.0,5.3477,5.5324,5.628,5.6961,0.0,0.0,0.0,0.0,7.6394,8.0757,8.3425,8.7017,8.8671,8.8132,9.0171,0.0,0.0,0.0,0.0,0.0,0.0,0.0,0.0,0.0,0.0,0.0,0.0,0.0,0.0,0.0,0.0,8.5049,8.0629,7.8484,7.743,7.4221,7.1388,6.8751,6.6268,6.3142,5.9831,5.7157,5.5615,5.4296,5.1691,5.1066,0.0,0.0,0.0,0.0,0.0,0.0,0.0,0.0,0.0,5.6965,6.0362,6.4024,6.7777,7.1672,7.6412,8.0781,8.3811,8.7455,9.0134,9.0978,9.2537,9.3308,9.2611,9.3125,9.3822,9.4483,9.4666,9.4923,9.5254,9.4666,9.4153,9.3822,9.2537,9.1436,9.0629,8.995,8.962,8.962,8.8683,8.828,8.8426,8.7455,8.6978,8.6978,8.6978,8.6554,8.58,8.5453,8.4609,8.3271,8.184,8.0865,8.033,8.0975,8.1012,8.0807,8.1269,8.1893,8.2553,0.0,0.0,0.0,0.0,0.0,0.0,0.0,0.0,0.0,0.0,0.0,0.0,0.0,0.0,0.0,0.0,0.0,0.0,7.5132,7.9707,8.392,8.7811,8.9133,9.0086,9.0748,9.1056,0.0,0.0,0.0,0.0,0.0,0.0,0.0,0.0,0.0,0.0,0.0,0.0,0.0,0.0,0.0,0.0,8.8556,8.5857,8.3054,8.0125,7.6738,7.3932,7.1357,6.7979,6.6047,6.474,6.3042,6.1061,5.9167,5.8168,0.0,5.1167,5.0998,0.0,0.0,5.1319,5.2616,5.4595,0.0,6.2483,6.5498,7.0061,7.3067,7.5898,7.919,8.2051,8.4745,8.7271,8.9858,9.184,9.2721,9.4207,9.5198,9.5088,9.5161,9.5272,9.5345,9.6025,9.5878,9.452,9.4336,9.3639,9.217,9.1913,9.1436,9.0629,9.0519,9.0464,9.0464,8.8977,8.8573,8.9253,8.7711,8.6978,8.6978,8.6978,8.6554,8.5727,8.4278,8.3564,8.3344,8.2443,8.2003,8.1929,8.2039,8.2884,8.3985,8.3344,8.3197,8.3381,0.0,0.0,0.0,0.0,0.0,0.0,0.0,0.0,0.0,0.0,0.0,0.0,0.0,0.0,0.0,0.0,0.0,0.0,7.4432,8.0771,8.5834,8.9235,9.1133,9.2056,9.1979,9.3403,9.3864,0.0,0.0,0.0,0.0,0.0,0.0,0.0,0.0,0.0,0.0,0.0,0.0,0.0,0.0,0.0,8.9106,8.6187,8.3104,7.9915,7.7039,7.4099,0.0,0.0,6.6674,6.5042,6.4828,6.2347,5.9471,5.9607,5.6562,0.0,5.3204,0.0,0.0,0.0,5.8222,6.1086,6.5659,6.8599,7.1584,7.586,7.9422,8.2474,8.4778,8.7582,8.9895,9.0886,9.2684,9.3932,9.3822,9.4373,9.463,9.4153,9.3675,9.4116,9.6025,9.6502,9.6428,9.5731,9.5254,9.4703,9.4006,9.3088,9.2391,9.206,9.1546,9.1289,9.1289,8.9711,8.9069,8.9363,8.7785,8.6978,8.6978,8.6978,8.6297,8.5013,8.3398,8.27,8.27,8.2333,8.2186,8.226,8.2737,8.3308,8.3911,8.4042,8.4702,8.5546,0.0,0.0,0.0,0.0,0.0,0.0,0.0,0.0,0.0,0.0,0.0,0.0,0.0,0.0,0.0,0.0,0.0,0.0,0.0,8.0274,8.6095,8.9824,9.1925,0.0,9.3172,9.498,9.5441,0.0,0.0,0.0,0.0,0.0,0.0,0.0,0.0,0.0,0.0,0.0,0.0,0.0,0.0,0.0,8.8042,8.4829,8.1305,7.787,7.5836,7.2808,0.0,0.0,6.5806,6.4094,6.4635,6.2582,5.9961,6.0062,5.7809,5.5345,5.5815,0.0,0.0,6.1427,6.4613,6.8043,7.2234,7.5272,7.8165,8.168,8.4889,8.7472,8.8647,9.0996,9.2831,9.3051,9.4427,9.5217,9.441,9.4299,9.3822,9.2574,9.184,9.2391,9.4777,9.5437,9.5804,9.6025,9.5511,9.518,9.518,9.3859,9.3088,9.3088,9.2244,9.1803,9.1803,9.0207,8.94,8.9363,8.7785,8.6978,8.6978,8.6537,8.571,8.4499,8.2884,8.2186,8.2186,8.2186,8.2186,8.2292,8.3033,8.3482,8.374,8.4329,8.5434,8.6701,0.0,0.0,0.0,0.0,0.0,0.0,0.0,0.0,0.0,0.0,0.0,0.0,0.0,0.0,0.0,0.0,0.0,0.0,0.0,7.8016,8.4267,8.9945,9.0873,9.2402,9.4874,9.4989,9.5451,9.6211,0.0,0.0,0.0,0.0,0.0,0.0,0.0,0.0,0.0,0.0,0.0,0.0,0.0,0.0,8.5563,8.2333,7.8112,7.378,7.2936,0.0,0.0,0.0,6.3321,6.2555,6.2527,6.2422,0.0,6.0551,5.8544,0.0,0.0,0.0,6.2913,6.7539,7.1173,7.4872,7.9589,8.3145,8.6133,8.8594,8.9822,9.0482,9.0519,9.1253,9.2134,9.2978,9.4427,9.5217,9.441,9.4299,9.3382,9.0959,9.0665,9.0702,9.0776,9.2281,9.3529,9.4299,9.4336,9.4336,9.4336,9.3565,9.3088,9.3088,9.2244,9.1803,9.1803,9.0207,8.94,8.9363,8.7785,8.6978,8.6941,8.538,8.4646,8.4499,8.2884,8.2186,8.2186,8.2186,8.2186,8.2284,8.2943,8.3668,8.436,8.4398,8.5012,8.593,0.0,0.0,0.0,0.0,0.0,0.0,0.0,0.0,0.0,0.0,0.0,0.0,0.0,0.0,0.0,0.0,0.0,0.0,0.0,7.3475,7.9884,8.5134,8.8158,9.0665,9.2635,9.3119,9.3749,9.4557,0.0,0.0,0.0,0.0,0.0,0.0,0.0,0.0,0.0,0.0,0.0,0.0,0.0,0.0,8.1468,7.8185,7.3927,6.9389,0.0,0.0,0.0,0.0,0.0,0.0,6.0723,0.0,0.0,5.7678,0.0,0.0,0.0,0.0,7.0168,7.4958,7.8617,8.1998,8.573,8.781,8.9381,9.0702,9.0776,9.0592,9.0592,9.1253,9.1913,9.217,9.3602,9.4226,9.2831,9.2648,9.1546,8.8573,8.8683,8.8793,8.828,9.0188,9.2244,9.4153,9.3822,9.3969,9.5034,9.3822,9.3088,9.3088,9.2244,9.1803,9.1803,9.0739,9.0207,9.017,8.8573,8.7252,8.6151,8.5086,8.4315,8.3748,8.2663,8.2186,8.2186,8.2186,8.245,8.2898,8.3089,8.3648,8.4326,8.4877,8.4998,8.4926,0.0,0.0,0.0,0.0,0.0,0.0,0.0,0.0,0.0,0.0,0.0,0.0,0.0,0.0,0.0,0.0,0.0,0.0,0.0,0.0,7.325,7.866,8.1297,8.3818,8.6455,8.5976,8.6709,8.8748,0.0,0.0,0.0,0.0,0.0,0.0,0.0,0.0,0.0,0.0,0.0,0.0,0.0,0.0,7.4713,7.1394,6.732,0.0,0.0,0.0,0.0,0.0,0.0,0.0,0.0,0.0,0.0,0.0,0.0,0.0,0.0,7.2725,7.7494,8.1721,8.4792,8.7362,8.973,9.0427,9.0592,9.0519,8.9812,8.9033,8.8552,8.8579,8.918,9.0701,9.162,9.206,9.184,9.1546,9.0298,8.7344,8.7215,8.7142,8.6628,8.7986,9.0152,9.3161,9.3235,9.3675,9.4997,9.4079,9.3418,9.3125,9.2244,9.1657,9.1363,9.0592,8.9877,8.9307,8.7986,8.6811,8.5747,8.4682,8.3895,8.3344,8.2553,8.2186,8.2219,8.245,8.2808,8.3246,8.3706,8.4116,8.4563,8.5108,8.4884,8.4405,0.0,0.0,0.0,0.0,0.0,0.0,0.0,0.0,0.0,0.0,0.0,0.0,0.0,0.0,0.0,0.0,0.0,0.0,0.0,0.0,0.0,7.0706,7.0857,7.269,7.6819,7.4487,7.5238,7.9277,0.0,0.0,0.0,0.0,0.0,0.0,0.0,0.0,0.0,0.0,0.0,0.0,0.0,0.0,6.5668,6.2511,0.0,0.0,0.0,0.0,0.0,0.0,0.0,0.0,0.0,0.0,0.0,0.0,0.0,6.9379,7.4915,7.9947,8.4409,8.7545,8.9491,9.0849,9.1583,9.1069,8.9968,8.8405,8.7135,8.5902,8.4547,8.3648,8.4404,8.8473,8.8701,8.9197,9.1473,9.1179,8.9821,8.7418,8.6518,8.6094,8.5984,8.6021,8.7655,9.1583,9.2574,9.3418,9.4226,9.4263,9.3859,9.3015,9.217,9.1363,9.0555,8.9767,8.8666,8.7161,8.6297,8.582,8.5764,8.4132,8.3381,8.3308,8.2517,8.2186,8.2251,8.2906,8.3218,8.3364,8.4639,8.5131,8.5151,8.5121,8.474,8.4368,0.0,0.0,0.0,0.0,0.0,0.0,0.0,0.0,0.0,0.0,0.0,0.0,0.0,0.0,0.0,0.0,0.0,0.0,0.0,0.0,0.0,0.0,0.0,0.0,0.0,0.0,0.0,0.0,0.0,0.0,0.0,0.0,0.0,0.0,0.0,0.0,0.0,0.0,0.0,0.0,0.0,0.0,5.9134,0.0,0.0,0.0,0.0,0.0,0.0,0.0,0.0,0.0,0.0,6.0624,6.3053,0.0,0.0,7.4195,7.9276,8.3728,8.7472,8.9491,9.0739,9.14,9.0996,8.9381,8.7573,8.637,8.3537,8.1107,8.0515,8.1839,8.3559,8.5253,8.8551,9.1106,9.1785,9.2207,9.1528,8.9069,8.9674,8.9784,8.8592,8.9014,9.0335,9.2611,9.2354,9.2758,9.4226,9.3712,9.2758,9.1289,9.1033,9.0519,8.9693,8.951,8.9473,8.9674,8.7655,8.6371,8.5764,8.4132,8.3067,8.248,8.2296,8.2186,8.2251,8.2906,8.3488,8.4017,8.4795,8.5399,8.5793,8.5262,8.4989,8.4756,0.0,0.0,0.0,0.0,0.0,0.0,0.0,0.0,0.0,0.0,0.0,0.0,0.0,0.0,0.0,0.0,0.0,0.0,0.0,0.0,0.0,0.0,0.0,0.0,0.0,0.0,0.0,0.0,0.0,0.0,0.0,0.0,0.0,0.0,0.0,0.0,0.0,0.0,0.0,0.0,0.0,0.0,0.0,0.0,0.0,0.0,0.0,0.0,0.0,0.0,0.0,6.1178,6.3417,6.5815,6.8568,7.2642,0.0,7.9528,8.3691,8.7252,9.0005,9.0886,9.1216,9.0776,8.8904,8.6921,8.4608,8.1748,7.9271,7.7255,7.5981,7.8134,8.0767,8.2762,8.6778,9.0276,9.2152,9.3101,9.295,9.1215,9.1792,9.1978,9.1091,9.1387,9.2481,9.4479,9.3226,9.2794,9.3712,9.3675,9.2868,9.1179,9.0776,9.0024,8.8886,8.8519,8.8556,8.9014,8.7288,8.6224,8.5764,8.4132,8.3161,8.27,8.2333,8.2375,8.2708,8.3373,8.4017,8.4662,8.53,8.5784,8.606,8.5682,8.536,8.4947,0.0,0.0,0.0,0.0,0.0,0.0,0.0,0.0,0.0,0.0,0.0,0.0,0.0,0.0,0.0,0.0,0.0,0.0,0.0,0.0,0.0,0.0,0.0,0.0,0.0,0.0,0.0,0.0,0.0,0.0,0.0,0.0,0.0,0.0,0.0,0.0,0.0,0.0,0.0,0.0,0.0,0.0,0.0,0.0,0.0,0.0,0.0,0.0,0.0,0.0,6.2316,6.4591,6.8481,7.1431,7.4258,7.8369,8.1599,8.4555,8.7655,9.0115,9.1767,9.1657,9.0959,8.9417,8.6077,8.3838,8.104,7.6064,7.472,7.3802,7.1798,7.4114,7.7607,8.1364,8.4982,8.8797,9.295,9.4086,9.43,9.3798,9.3673,9.3635,9.3635,9.3635,9.4526,9.6757,9.4933,9.3709,9.3709,9.4172,9.3566,9.1693,9.0776,8.9674,8.839,8.7455,8.7088,8.7308,8.6297,8.5874,8.5894,8.4168,8.3381,8.3344,8.2553,8.2643,8.341,8.3964,8.4624,8.5324,8.5876,8.6094,8.6085,8.5988,8.5664,8.5131,0.0,0.0,0.0,0.0,0.0,0.0,0.0,0.0,0.0,0.0,0.0,0.0,0.0,0.0,0.0,0.0,0.0,0.0,0.0,0.0,0.0,0.0,0.0,0.0,0.0,0.0,0.0,0.0,0.0,0.0,0.0,0.0,0.0,0.0,0.0,0.0,0.0,0.0,0.0,0.0,0.0,0.0,0.0,0.0,0.0,0.0,0.0,0.0,0.0,0.0,6.6866,7.0316,7.2995,7.6019,7.9339,8.3361,8.5416,8.6904,8.9491,9.0959,9.1657,9.0959,8.9711,8.7582,8.3691,7.9984,0.0,7.2518,7.0444,6.9498,7.0293,7.3618,7.7825,8.2635,8.6971,9.1151,9.5336,9.6003,9.6311,9.6907,9.6988,9.6963,9.6963,9.6963,9.7421,9.8493,9.7582,9.6967,9.6967,9.5865,9.3852,9.0904,8.9381,8.8793,8.9179,8.7711,8.7675,8.8959,8.6811,8.6151,8.6721,8.4445,8.3381,8.3344,8.2553,8.2954,8.4207,8.4203,8.4976,8.6174,8.6106,8.6094,8.6043,8.5495,8.5551,8.5775,0.0,0.0,0.0,0.0,0.0,0.0,0.0,0.0,0.0,0.0,0.0,0.0,0.0,0.0,0.0,0.0,0.0,0.0,0.0,0.0,0.0,0.0,0.0,0.0,0.0,0.0,0.0,0.0,0.0,0.0,0.0,0.0,0.0,0.0,0.0,0.0,0.0,0.0,0.0,0.0,0.0,0.0,0.0,0.0,0.0,0.0,0.0,0.0,0.0,0.0,6.7527,7.2628,7.6775,8.0021,8.292,8.6114,8.7619,8.8666,9.0702,9.151,9.162,9.0812,8.8757,8.5563,8.0241,0.0,0.0,0.0,6.6801,6.6984,6.7806,7.2432,7.7053,7.9989,8.3698,8.7977,9.3169,9.3829,9.4766,9.7427,9.8527,9.9033,9.9033,9.9033,9.9365,10.0082,9.9851,9.9099,9.7871,9.6222,9.4219,9.1821,9.02,8.9177,8.8737,8.7585,8.7381,8.8152,8.6995,8.6628,8.6941,8.4922,8.4005,8.3965,8.3108,8.3572,8.4899,8.4748,8.5543,8.6861,8.6317,8.6094,8.6069,8.5728,8.5828,8.5954,0.0,0.0,0.0,0.0,0.0,0.0,0.0,0.0,0.0,0.0,0.0,0.0,0.0,0.0,0.0,0.0,0.0,0.0,0.0,0.0,0.0,0.0,0.0,0.0,0.0,0.0,0.0,0.0,0.0,0.0,0.0,0.0,0.0,0.0,0.0,0.0,0.0,0.0,0.0,0.0,0.0,0.0,0.0,0.0,0.0,0.0,0.0,0.0,0.0,0.0,6.6059,7.1394,7.6937,8.1269,8.4756,8.6811,8.8335,8.9693,9.1143,9.1657,9.151,9.0372,8.7545,8.3324,7.6827,7.2716,0.0,6.3733,6.3955,6.5296,6.6131,7.1004,7.5572,7.7595,8.0421,8.4511,9.0574,9.1804,9.3541,9.7474,9.9427,10.0386,10.0386,10.0386,10.0705,10.1288,10.1279,10.0393,9.8437,9.6704,9.5048,9.3375,9.1632,9.0147,8.8861,8.7905,8.7468,8.7469,8.7321,8.7073,8.6701,8.527,8.4599,8.4518,8.3596,8.4127,8.5579,8.5236,8.6011,8.7325,8.644,8.6094,8.6094,8.6094,8.6094,8.5988,0.0,0.0,0.0,0.0,0.0,0.0,0.0,0.0,0.0,0.0,0.0,0.0,0.0,0.0,0.0,0.0,0.0,0.0,0.0,0.0,0.0,0.0,0.0,0.0,0.0,0.0,0.0,3.8913,3.8987,0.0,0.0,0.0,0.0,0.0,0.0,4.0454,0.0,0.0,0.0,0.0,0.0,0.0,0.0,0.0,0.0,0.0,0.0,0.0,0.0,0.0,0.0,6.4554,6.9522,7.6827,8.3711,8.4646,0.0,0.0,9.0464,9.1253,9.1253,8.8977,8.5453,8.0828,7.4294,0.0,6.5862,6.2081,6.235,6.4185,6.6921,6.9603,7.3154,7.8677,8.1137,8.4387,9.0375,9.3216,9.5656,9.8383,10.0191,10.121,10.121,10.121,10.1191,10.1317,10.1279,10.091,9.9983,9.8408,9.673,9.5138,9.2741,9.1431,9.127,8.9692,8.8969,8.9073,8.8335,8.7259,8.5857,8.5013,8.4521,8.4361,8.357,8.4366,8.624,8.5443,8.6011,8.7325,8.644,8.6094,8.6094,8.6094,8.6094,8.5988,0.0,0.0,0.0,0.0,0.0,0.0,0.0,0.0,0.0,0.0,0.0,0.0,0.0,0.0,0.0,0.0,0.0,0.0,0.0,0.0,0.0,0.0,0.0,0.0,0.0,0.0,0.0,0.0,0.0,0.0,0.0,0.0,0.0,0.0,0.0,3.935,3.9672,0.0,0.0,0.0,0.0,0.0,0.0,0.0,0.0,0.0,0.0,0.0,0.0,0.0,0.0,0.0,6.2903,6.8665,0.0,0.0,8.3618,8.6978,8.9253,9.0812,9.1216,8.8793,8.4792,7.9764,7.3252,0.0,6.4045,6.0402,6.1101,6.3163,6.5669,6.8361,7.1629,7.6007,7.6438,7.8284,8.4286,8.5978,8.8709,9.4326,9.6942,9.9087,10.1087,10.1279,10.1279,10.1279,10.1279,10.0998,10.0216,9.9526,9.8385,9.6691,9.4782,9.3285,9.2271,9.0676,8.9908,8.9972,8.9118,8.8111,8.6972,8.6179,8.5513,8.4974,8.4531,8.5432,8.7107,8.6116,8.67,8.8017,8.6632,8.6094,8.6094,8.6094,8.6094,8.6069,0.0,0.0,0.0,0.0,0.0,0.0,0.0,0.0,0.0,0.0,0.0,0.0,0.0,0.0,0.0,0.0,0.0,0.0,0.0,0.0,0.0,0.0,0.0,0.0,0.0,0.0,0.0,0.0,0.0,0.0,0.0,0.0,3.9761,3.9541,0.0,0.0,0.0,0.0,0.0,0.0,0.0,0.0,0.0,0.0,0.0,0.0,0.0,0.0,0.0,0.0,0.0,0.0,0.0,0.0,0.0,0.0,7.98,8.4205,8.7161,8.9491,9.0519,8.8096,8.3875,7.8662,0.0,0.0,6.2818,5.9577,6.0501,6.2534,6.4649,6.7358,7.036,7.3437,7.3399,7.4938,8.0631,8.19,8.4593,9.0979,9.3787,9.6403,9.951,10.0702,10.1279,10.1279,10.1096,10.0789,10.0491,9.999,9.9019,9.7557,9.5716,9.4292,9.3374,9.1545,9.0544,9.031,8.9452,8.8356,8.7083,8.6505,8.6052,8.5678,8.5274,8.6215,8.7934,8.6888,8.7209,8.8179,8.6978,8.6324,8.6094,8.6094,8.6094,8.6069,0.0,0.0,0.0,0.0,0.0,0.0,0.0,0.0,0.0,0.0,0.0,0.0,0.0,0.0,0.0,0.0,0.0,0.0,0.0,0.0,0.0,0.0,0.0,0.0,0.0,0.0,0.0,0.0,0.0,0.0,0.0,0.0,3.946,3.8726,0.0,0.0,0.0,0.0,0.0,0.0,0.0,0.0,0.0,0.0,0.0,0.0,0.0,0.0,0.0,0.0,0.0,0.0,0.0,0.0,0.0,0.0,7.5968,8.1562,8.3985,8.6978,8.8849,8.6407,8.2186,7.7121,0.0,6.6329,6.2139,5.9853,6.0736,6.2429,6.4269,6.6699,6.9244,7.1828,7.3591,7.6476,8.1554,8.3785,8.6124,8.9509,9.1479,9.3557,9.6095,9.9356,10.1279,10.1279,10.0596,10.0491,10.1202,9.9712,9.8404,9.7519,9.5057,9.4134,9.498,9.247,9.0829,9.0106,8.9294,8.7688,8.5437,8.5437,8.5763,8.6341,8.5502,8.6461,8.8632,8.7748,8.7401,8.7401,8.7401,8.6863,8.6094,8.6094,8.6094,8.6026,0.0,0.0,0.0,0.0,0.0,0.0,0.0,0.0,0.0,0.0,0.0,0.0,0.0,0.0,0.0,0.0,0.0,0.0,0.0,0.0,0.0,0.0,0.0,0.0,0.0,0.0,0.0,0.0,0.0,0.0,0.0,0.0,0.0,0.0,3.8571,0.0,0.0,0.0,0.0,0.0,0.0,0.0,0.0,0.0,0.0,0.0,0.0,0.0,0.0,0.0,0.0,0.0,0.0,0.0,0.0,0.0,0.0,0.0,7.7289,7.9947,8.1415,7.8956,7.5983,7.2408,6.7857,6.431,6.1299,5.892,6.031,6.2249,6.3419,6.5745,6.8936,7.3206,7.4361,7.5861,7.9215,8.2708,8.594,8.8748,9.4672,9.8827,9.9625,10.0702,10.1279,10.1279,10.1096,10.0519,9.9635,9.9096,9.8673,9.8404,9.648,9.5326,9.4989,9.2479,9.1091,9.0819,8.9438,8.8059,8.6786,8.6786,8.6566,8.6186,8.5908,8.688,8.8603,8.7132,8.7209,8.8179,8.6978,8.6324,8.6094,8.6094,8.6094,8.6069,0.0,0.0,0.0,0.0,0.0,0.0,0.0,0.0,0.0,0.0,0.0,0.0,0.0,0.0,0.0,0.0,0.0,0.0,0.0,0.0,0.0,0.0,0.0,0.0,0.0,0.0,0.0,0.0,0.0,0.0,0.0,0.0,0.0,0.0,0.0,0.0,0.0,0.0,0.0,0.0,0.0,0.0,0.0,0.0,0.0,0.0,0.0,0.0,0.0,0.0,0.0,0.0,0.0,0.0,0.0,0.0,0.0,0.0,0.0,7.4661,7.5983,7.4771,7.2165,0.0,0.0,6.3172,6.0601,5.8659,5.995,6.176,6.2766,6.4991,6.802,7.2129,7.3091,7.4476,7.8023,8.1362,8.5016,8.9133,9.5441,9.9673,10.0289,10.0894,10.1279,10.1279,10.0394,9.9404,9.8365,9.7403,9.7028,9.7374,9.6019,9.4903,9.4066,9.1825,9.0556,9.0248,8.8863,8.7748,8.6901,8.6901,8.6786,8.6555,8.6247,8.7094,0.0,8.7171,8.7209,8.8094,8.7017,8.6401,8.6094,8.6094,8.6094,8.6094,0.0,0.0,0.0,0.0,0.0,0.0,0.0,0.0,0.0,0.0,0.0,0.0,0.0,0.0,0.0,0.0,0.0,0.0,0.0,0.0,0.0,0.0,0.0,0.0,0.0,0.0,0.0,0.0,4.2139,4.3461,4.5067,0.0,0.0,0.0,0.0,0.0,0.0,0.0,0.0,0.0,0.0,0.0,0.0,0.0,0.0,0.0,0.0,0.0,0.0,0.0,0.0,0.0,0.0,0.0,0.0,0.0,0.0,0.0,0.0,0.0,0.0,0.0,0.0,0.0,0.0,0.0,0.0,5.8884,5.9703,6.1068,6.249,6.4447,6.6756,6.9584,7.0667,7.2899,7.7907,8.0439,8.4247,9.0787,9.4634,9.7288,9.8673,10.0404,10.1394,10.1279,9.9019,9.7557,9.7519,9.5134,9.4104,9.4797,9.3989,9.3172,9.2402,9.0663,8.944,8.8679,8.7748,8.6901,8.6209,8.6132,8.6555,8.7286,8.6517,8.7094,8.8526,8.7709,8.7401,8.7401,8.7325,8.6824,8.6094,8.6094,8.6094,8.6094,0.0,0.0,0.0,0.0,0.0,0.0,0.0,0.0,0.0,0.0,0.0,0.0,0.0,0.0,0.0,0.0,0.0,0.0,0.0,0.0,0.0,0.0,0.0,0.0,0.0,0.0,0.0,4.1095,4.437,4.6828,4.8443,4.7695,0.0,0.0,0.0,0.0,0.0,0.0,0.0,0.0,0.0,0.0,0.0,0.0,0.0,0.0,0.0,0.0,0.0,0.0,0.0,0.0,0.0,0.0,0.0,0.0,0.0,0.0,0.0,0.0,0.0,0.0,0.0,0.0,0.0,0.0,0.0,0.0,0.0,6.096,6.3561,6.4753,6.7139,7.2626,7.3668,7.513,7.8977,8.4901,9.0402,9.4595,9.8673,10.0519,9.8942,10.0904,10.202,10.1394,9.9558,9.8211,9.7557,9.572,9.422,9.3133,9.2249,9.171,9.1518,8.9825,8.8902,8.8679,8.7132,8.6632,8.7055,8.6401,8.6209,8.644,8.6901,8.7325,8.7671,8.7478,8.7401,8.7325,8.6671,8.6286,8.6094,8.6094,8.6094,8.6094,0.0,0.0,0.0,0.0,0.0,0.0,0.0,0.0,0.0,0.0,0.0,0.0,0.0,0.0,0.0,0.0,0.0,0.0,0.0,0.0,0.0,0.0,0.0,0.0,0.0,0.0,0.0,0.0,0.0,4.9067,0.0,0.0,0.0,0.0,0.0,0.0,0.0,0.0,0.0,0.0,0.0,0.0,0.0,0.0,0.0,0.0,0.0,0.0,0.0,5.2868,5.4473,5.5574,0.0,0.0,0.0,0.0,0.0,0.0,0.0,0.0,0.0,0.0,0.0,0.0,0.0,0.0,0.0,0.0,0.0,6.1055,6.3416,6.4753,6.7041,7.1678,7.3053,7.5553,8.1316,8.7008,9.2326,9.6903,9.9442,10.0789,10.0596,10.1096,10.0904,9.9635,9.798,9.6528,9.5288,9.3595,9.2249,9.1325,9.0479,9.0248,9.0586,8.894,8.8094,8.8094,8.6748,8.6363,8.6786,8.6324,8.6094,8.617,8.7017,8.7171,8.6824,8.7248,8.7171,8.6748,8.6286,8.6094,8.6094,8.6094,8.6094,8.6094,0.0,0.0,0.0,0.0,0.0,0.0,0.0,0.0,0.0,0.0,0.0,0.0,0.0,0.0,0.0,0.0,0.0,0.0,0.0,0.0,0.0,0.0,0.0,0.0,0.0,0.0,0.0,0.0,0.0,0.0,0.0,0.0,0.0,0.0,0.0,0.0,0.0,0.0,0.0,0.0,0.0,0.0,0.0,0.0,0.0,0.0,0.0,0.0,0.0,5.4814,5.6418,5.7251,5.7666,0.0,0.0,0.0,0.0,0.0,0.0,0.0,0.0,0.0,0.0,0.0,0.0,0.0,0.0,0.0,0.0,6.1437,6.3592,6.5406,6.746,7.0199,7.2283,7.6399,8.4508,8.8355,9.2364,9.7942,9.9058,9.9981,10.1712,10.0798,9.9375,9.7634,9.5826,9.4143,9.2595,9.0855,8.9855,8.9701,8.894,8.8825,8.9509,8.8094,8.7401,8.7401,8.6517,8.617,8.6286,8.617,8.6094,8.617,8.7017,8.6901,8.617,8.7055,8.6901,8.6094,8.6094,8.6094,8.6094,8.6094,8.6094,8.6094,0.0,0.0,0.0,0.0,0.0,0.0,0.0,0.0,0.0,0.0,0.0,0.0,0.0,0.0,0.0,0.0,0.0,0.0,0.0,0.0,0.0,0.0,0.0,0.0,0.0,0.0,0.0,0.0,0.0,0.0,5.5464,5.6794,5.2901,0.0,0.0,0.0,0.0,0.0,0.0,0.0,0.0,0.0,0.0,0.0,0.0,0.0,0.0,0.0,0.0,5.6235,5.7618,5.8609,5.7361,0.0,0.0,0.0,0.0,0.0,6.1508,6.2132,0.0,0.0,0.0,0.0,0.0,0.0,0.0,0.0,0.0,0.0,6.7229,6.8888,7.0762,7.4433,7.7669,8.1939,8.8239,9.0864,9.348,9.725,10.0289,10.1019,9.8519,9.9365,9.9375,9.7634,9.5249,9.348,9.2556,9.0855,8.9594,8.891,8.8055,8.7671,8.7786,8.7517,8.7401,8.7401,8.6517,8.6478,8.7171,8.644,8.6094,8.617,8.7017,8.6901,8.617,8.7055,8.6901,8.6094,8.6094,8.6094,8.6094,8.6094,8.6094,8.6094,0.0,0.0,0.0,0.0,0.0,0.0,0.0,0.0,0.0,0.0,0.0,0.0,0.0,0.0,0.0,0.0,0.0,0.0,0.0,0.0,0.0,0.0,0.0,0.0,0.0,0.0,0.0,0.0,0.0,5.8143,6.0126,5.6176,5.1263,4.5564,0.0,0.0,0.0,0.0,0.0,0.0,0.0,0.0,0.0,0.0,0.0,0.0,0.0,0.0,0.0,0.0,5.8242,5.9159,5.8829,0.0,0.0,0.0,0.0,0.0,6.0554,6.1367,6.1681,0.0,0.0,0.0,0.0,0.0,0.0,0.0,0.0,0.0,6.8951,7.1657,7.4958,7.9992,8.3285,8.6632,9.0748,9.2364,9.4403,9.7788,9.9173,9.9211,9.7634,9.7827,9.7134,9.4941,9.3287,9.1979,9.1133,8.9479,8.8363,8.8025,8.7132,8.6709,8.6709,8.6709,8.6709,8.6709,8.6286,8.6324,8.6671,8.6286,8.6094,8.617,8.7017,8.6901,8.617,8.7055,8.6901,8.6094,8.6094,8.6094,8.6094,8.6094,8.6094,8.6094,0.0,0.0,0.0,0.0,0.0,0.0,0.0,0.0,0.0,0.0,0.0,0.0,0.0,0.0,0.0,0.0,0.0,0.0,0.0,0.0,0.0,0.0,0.0,0.0,0.0,0.0,0.0,5.9428,6.0793,6.2254,6.3613,5.5614,5.0206,0.0,0.0,0.0,0.0,0.0,0.0,0.0,0.0,0.0,0.0,0.0,0.0,0.0,0.0,0.0,0.0,0.0,0.0,0.0,0.0,0.0,0.0,6.0676,5.9967,5.9623,6.0291,6.1256,6.2284,0.0,0.0,0.0,0.0,0.0,0.0,0.0,0.0,6.9164,7.1431,7.5104,7.9554,8.4939,8.794,9.0479,9.3018,9.3903,9.548,9.8711,9.8134,9.7442,9.725,9.6288,9.4711,9.2364,9.1402,9.0441,8.9355,8.8094,8.7325,8.7094,8.644,8.6094,8.6094,8.6094,8.6094,8.6094,8.6094,8.6094,8.6094,8.6094,8.6094,8.6132,8.6824,8.6709,8.617,8.6824,8.6709,8.6094,8.5893,8.5709,8.5555,8.5747,8.5709,8.5555,0.0,0.0,0.0,0.0,0.0,0.0,0.0,0.0,0.0,0.0,0.0,0.0,0.0,0.0,0.0,0.0,0.0,0.0,0.0,0.0,0.0,0.0,0.0,0.0,0.0,5.4741,5.8081,6.3662,6.4359,6.4076,6.2756,5.6898,5.2178,0.0,0.0,0.0,0.0,0.0,0.0,0.0,0.0,0.0,0.0,0.0,0.0,0.0,0.0,0.0,0.0,0.0,0.0,0.0,0.0,0.0,0.0,6.086,6.037,6.0906,6.3585,6.448,6.4844,6.5805,0.0,0.0,6.9245,6.9681,0.0,7.4806,0.0,0.0,7.6502,8.0239,8.4217,8.7833,9.0556,9.3133,9.5672,9.6095,9.7096,9.9721,9.8519,9.7211,9.648,9.4864,9.3172,9.1441,9.047,8.9278,8.7671,8.7478,8.7017,8.6209,8.6132,8.6094,8.6094,8.6094,8.6094,8.6094,8.6094,8.6094,8.6094,8.6094,8.6094,8.6094,8.617,8.617,8.6094,8.617,8.617,8.6017,8.5286,8.4478,8.387,8.4709,8.4478,8.3986,0.0,0.0,0.0,0.0,0.0,0.0,0.0,0.0,0.0,0.0,0.0,0.0,0.0,0.0,0.0,0.0,0.0,0.0,0.0,0.0,0.0,0.0,0.0,5.2627,5.7283,6.062,6.4791,6.9892,6.8234,6.6123,6.3417,5.5866,0.0,0.0,0.0,0.0,0.0,0.0,0.0,0.0,0.0,0.0,0.0,0.0,0.0,0.0,0.0,0.0,0.0,0.0,6.0077,6.108,0.0,0.0,0.0,6.2242,6.1748,6.1834,6.2958,6.4164,6.5437,6.6826,0.0,0.0,0.0,7.3431,7.5318,7.8678,7.9509,0.0,8.2377,8.4939,8.7525,8.9863,9.1941,9.3749,9.5288,9.5489,9.5835,9.6797,9.6336,9.5403,9.4057,9.2864,9.1672,9.047,8.9124,8.8055,8.744,8.6901,8.644,8.6094,8.6094,8.6094,8.6094,8.6094,8.6094,8.6094,8.6094,8.6094,8.6094,8.6094,8.6094,8.6094,8.6094,8.6094,8.6055,8.5555,8.5354,8.5277,8.4401,8.3901,8.364,8.3978,8.3862,8.3755,0.0,0.0,0.0,0.0,0.0,0.0,0.0,0.0,0.0,0.0,0.0,0.0,0.0,0.0,0.0,0.0,0.0,0.0,0.0,0.0,0.0,0.0,0.0,5.4229,5.937,6.3946,6.8111,7.1802,6.9321,6.6219,6.2401,0.0,0.0,0.0,0.0,0.0,0.0,0.0,0.0,0.0,0.0,0.0,0.0,0.0,0.0,0.0,0.0,0.0,0.0,0.0,6.0493,6.163,6.1887,0.0,0.0,6.3186,6.253,6.1997,6.2366,6.3603,6.5177,0.0,0.0,0.0,7.543,7.7669,8.0177,8.3247,8.3901,8.4439,8.6209,8.7478,8.8825,9.0517,9.2441,9.398,9.4874,9.4989,9.4989,9.4989,9.4527,9.3642,9.221,9.1287,9.0325,8.9201,8.8055,8.7286,8.7017,8.644,8.6094,8.6094,8.6094,8.6094,8.6094,8.6094,8.6094,8.6094,8.6363,8.6363,8.6094,8.5863,8.5863,8.6094,8.5816,8.5863,8.6055,8.5517,8.4978,8.4401,8.3516,8.3024,8.2832,8.3101,8.3178,8.337,0.0,0.0,0.0,0.0,0.0,0.0,0.0,0.0,0.0,0.0,0.0,0.0,0.0,0.0,0.0,0.0,0.0,0.0,0.0,0.0,0.0,0.0,0.0,5.5764,5.9912,6.4347,6.7155,6.8283,6.7067,6.398,5.9123,0.0,0.0,0.0,0.0,0.0,0.0,0.0,0.0,0.0,0.0,0.0,0.0,0.0,0.0,0.0,0.0,0.0,0.0,0.0,6.0933,6.1741,6.2548,0.0,0.0,6.3453,6.2428,6.1351,6.233,6.3238,6.4244,6.5628,0.0,0.0,8.0169,8.2447,8.4832,8.9086,8.8594,8.744,8.744,8.744,8.7979,8.9624,9.2018,9.3989,9.4835,9.4951,9.4951,9.4951,9.348,9.2133,9.1287,9.0393,8.9201,8.7517,8.7401,8.7017,8.617,8.6094,8.6094,8.6094,8.6094,8.6094,8.6094,8.6094,8.6094,8.6094,8.6978,8.6901,8.6055,8.5286,8.5363,8.6055,8.5239,8.5354,8.6094,8.6055,8.5093,8.3486,8.2631,8.1785,8.1208,8.1977,8.2285,8.2554,0.0,0.0,0.0,0.0,0.0,0.0,0.0,0.0,0.0,0.0,0.0,0.0,0.0,0.0,0.0,0.0,0.0,0.0,0.0,0.0,0.0,0.0,0.0,0.0,0.0,0.0,6.1549,6.6194,6.4644,6.2279,0.0,0.0,0.0,5.4042,0.0,0.0,0.0,0.0,0.0,0.0,0.0,0.0,0.0,0.0,0.0,0.0,0.0,0.0,0.0,0.0,0.0,0.0,6.3889,0.0,6.4996,6.4363,6.4464,6.4431,6.2985,6.4355,6.6663,6.8878,7.3437,0.0,0.0,8.5055,0.0,0.0,9.171,9.0594,8.9393,8.9671,8.9863,8.9171,9.0671,9.2018,9.2287,9.2326,9.2326,9.2326,9.1364,9.0547,9.0316,8.8979,8.794,8.744,8.6824,8.6363,8.6094,8.6094,8.6094,8.6094,8.5547,8.5517,8.6094,8.4939,8.4632,8.5239,8.4901,8.4901,8.5286,8.6247,8.617,8.5277,8.5585,8.5555,8.5162,8.3939,8.3131,8.2593,8.1785,8.1323,8.1131,8.1362,8.1477,8.1708,0.0,0.0,0.0,0.0,0.0,0.0,0.0,0.0,0.0,0.0,0.0,0.0,0.0,0.0,0.0,0.0,0.0,0.0,0.0,0.0,0.0,0.0,0.0,0.0,0.0,5.4753,5.7769,0.0,0.0,0.0,0.0,0.0,0.0,0.0,0.0,0.0,0.0,0.0,0.0,0.0,0.0,0.0,0.0,0.0,0.0,0.0,0.0,0.0,0.0,0.0,0.0,0.0,6.443,0.0,6.5185,6.5559,6.5023,6.4336,6.4372,6.5471,6.7558,7.1437,7.6015,8.09,8.6209,8.8709,9.0825,9.4057,9.3557,9.2172,9.1133,9.0556,8.9863,8.8872,8.9556,9.021,9.021,9.021,9.021,9.021,8.9748,8.9286,8.8932,8.7979,8.7248,8.6901,8.6401,8.6094,8.6094,8.5786,8.5632,8.5632,8.4824,8.4632,8.5093,8.4101,8.387,8.4362,8.4209,8.4016,8.3901,8.4901,8.5016,8.4401,8.4901,8.4824,8.4286,8.2862,8.2285,8.2208,8.14,8.1093,8.1093,8.1093,8.1093,8.1285,0.0,0.0,0.0,0.0,0.0,0.0,0.0,0.0,0.0,0.0,0.0,0.0,0.0,0.0,0.0,0.0,0.0,0.0,0.0,0.0,0.0,0.0,0.0,0.0,0.0,0.0,0.0,0.0,0.0,0.0,0.0,0.0,6.163,0.0,0.0,0.0,0.0,0.0,0.0,0.0,0.0,0.0,0.0,0.0,0.0,0.0,0.0,0.0,0.0,0.0,0.0,0.0,6.4539,6.4442,6.4266,6.6826,6.4901,6.2732,6.6274,6.6898,6.7975,7.3815,7.8631,8.3555,8.9863,9.2518,9.4095,9.5826,9.4326,9.2672,9.2518,9.0517,8.8872,8.8718,8.8718,8.8718,8.8718,8.8718,8.8718,8.8718,8.8641,8.8256,8.7478,8.7325,8.694,8.617,8.6094,8.6055,8.5978,8.5277,8.4854,8.4786,8.3939,8.3563,8.3717,8.3486,8.3447,8.3601,8.4247,8.3708,8.2208,8.2439,8.2939,8.3601,8.3524,8.3524,8.3524,8.2477,8.2131,8.2093,8.1285,8.0977,8.0977,8.1054,8.1093,8.1208,0.0,0.0,0.0,0.0,0.0,0.0,0.0,0.0,0.0,0.0,0.0,0.0,0.0,0.0,0.0,0.0,0.0,0.0,0.0,0.0,0.0,0.0,0.0,0.0,0.0,0.0,0.0,0.0,0.0,0.0,0.0,0.0,0.0,0.0,0.0,0.0,0.0,0.0,0.0,0.0,0.0,0.0,0.0,0.0,0.0,0.0,0.0,0.0,0.0,0.0,0.0,0.0,6.5672,6.5855,6.5436,6.6795,6.7047,6.7068,6.7871,6.993,7.3122,7.84,8.3893,8.8739,9.1595,9.2479,9.3249,9.4951,9.4835,9.4066,9.2749,9.1479,9.0248,8.891,8.8718,8.8718,8.8718,8.8718,8.8718,8.8718,8.8094,8.7594,8.7401,8.6786,8.6286,8.6094,8.6094,8.5824,8.5201,8.497,8.4593,8.3909,8.3016,8.3247,8.4593,8.2631,8.2285,8.3601,8.2439,8.1708,8.1439,8.3439,8.4055,8.3563,8.287,8.2986,8.3447,8.1246,8.0746,8.1285,8.04,8.0092,8.0162,8.0862,8.1093,8.1208,0.0,0.0,0.0,0.0,0.0,0.0,0.0,0.0,0.0,0.0,0.0,0.0,0.0,0.0,0.0,0.0,0.0,0.0,0.0,0.0,0.0,0.0,0.0,0.0,0.0,0.0,0.0,0.0,0.0,0.0,0.0,0.0,0.0,0.0,0.0,0.0,0.0,0.0,0.0,0.0,0.0,0.0,0.0,0.0,0.0,0.0,0.0,0.0,0.0,0.0,0.0,0.0,0.0,0.0,6.53,6.6696,6.7167,6.7628,6.9667,7.2399,7.6322,8.3054,8.7979,9.1364,9.2287,9.2787,9.321,9.3719,9.348,9.2903,9.2056,9.0864,8.9594,8.8295,8.8064,8.794,8.7517,8.744,8.744,8.744,8.7055,8.6786,8.6786,8.6363,8.6094,8.6094,8.5747,8.5363,8.4931,8.4132,8.3439,8.2986,8.217,8.217,8.3054,8.1747,8.1554,8.2401,8.1516,8.1093,8.1131,8.2477,8.2824,8.237,8.19,8.1747,8.167,8.0362,7.9823,7.9831,7.9361,7.9438,7.9854,8.0323,8.0746,8.117,0.0,0.0,0.0,0.0,0.0,0.0,0.0,0.0,0.0,0.0,0.0,0.0,0.0,0.0,0.0,0.0,0.0,0.0,0.0,0.0,0.0,0.0,0.0,0.0,0.0,0.0,0.0,0.0,0.0,0.0,0.0,0.0,0.0,0.0,0.0,0.0,0.0,0.0,0.0,0.0,0.0,0.0,0.0,0.0,0.0,0.0,0.0,0.0,0.0,6.2572,0.0,0.0,0.0,0.0,6.4951,6.6619,6.6635,6.6942,7.0751,7.4361,7.8977,8.6756,9.0479,9.2287,9.2287,9.2672,9.2864,9.2172,9.1595,9.1171,9.1018,8.9594,8.8256,8.7517,8.7286,8.6901,8.6209,8.6094,8.6094,8.6094,8.6094,8.6094,8.6094,8.6094,8.6055,8.5901,8.5286,8.4786,8.447,8.3093,8.217,8.1862,8.1208,8.0939,8.1093,8.0939,8.0939,8.1093,8.0785,8.0746,8.0862,8.0708,8.0746,8.0862,8.0708,8.0246,7.9554,7.9438,7.8938,7.8292,7.8292,7.8746,7.94,7.97,8.0246,8.09,0.0,0.0,0.0,0.0,0.0,0.0,0.0,0.0,0.0,0.0,0.0,0.0,0.0,0.0,0.0,0.0,0.0,0.0,0.0,0.0,0.0,0.0,0.0,0.0,0.0,0.0,0.0,0.0,0.0,0.0,0.0,0.0,0.0,0.0,0.0,0.0,0.0,0.0,0.0,0.0,0.0,0.0,0.0,0.0,0.0,0.0,0.0,0.0,0.0,0.0,6.3319,0.0,0.0,0.0,6.5642,6.6765,6.7019,6.7404,6.9475,7.563,8.2631,8.7487,9.0056,9.1364,9.1364,9.0855,9.0393,9.0278,9.074,9.0979,9.0201,8.8709,8.7555,8.7401,8.6786,8.6247,8.6132,8.6094,8.6094,8.6094,8.6094,8.6094,8.6094,8.6094,8.5824,8.5124,8.497,8.4247,8.2747,8.2439,8.1631,8.0169,8.0046,8.0323,8.1093,8.0362,8.0362,8.1093,7.9554,7.9246,7.9931,7.9169,7.9246,7.9931,7.9169,7.8792,7.8638,7.7907,7.7561,7.7445,7.7445,7.7522,7.7823,7.9246,7.9854,8.0092,0.0,0.0,0.0,0.0,0.0,0.0,0.0,0.0,0.0,0.0,0.0,0.0,0.0,0.0,0.0,0.0,0.0,0.0,0.0,0.0,0.0,0.0,0.0,0.0,0.0,0.0,0.0,0.0,0.0,0.0,0.0,6.68,6.6834,0.0,0.0,0.0,0.0,0.0,0.0,0.0,0.0,0.0,0.0,0.0,0.0,0.0,0.0,0.0,0.0,0.0,6.4262,6.5047,6.5821,0.0,0.0,0.0,6.7436,6.8821,7.3399,7.7707,8.217,8.741,8.9257,9.0056,9.0979,9.0509,8.9778,8.9325,8.9133,8.894,8.8556,8.7517,8.6671,8.6671,8.6363,8.6094,8.6094,8.6094,8.6094,8.6094,8.5709,8.5431,8.5431,8.4978,8.4555,8.4209,8.3708,8.2901,8.1708,8.117,8.0323,7.9092,7.9054,7.9246,7.9638,7.9246,7.9246,7.9631,7.8407,7.8253,7.9015,7.7707,7.7823,7.9054,7.8677,7.8253,7.7792,7.7445,7.7015,7.6553,7.6553,7.6868,7.7407,7.813,7.8669,7.9208,0.0,0.0,0.0,0.0,0.0,0.0,0.0,0.0,0.0,0.0,0.0,0.0,0.0,0.0,0.0,0.0,0.0,0.0,0.0,0.0,0.0,0.0,0.0,0.0,0.0,0.0,0.0,0.0,0.0,0.0,6.9253,6.9819,7.0178,0.0,6.9022,0.0,0.0,0.0,0.0,0.0,0.0,0.0,0.0,0.0,0.0,0.0,0.0,0.0,0.0,0.0,0.0,6.5984,6.6531,6.6701,0.0,0.0,0.0,6.8737,7.4668,7.7207,7.9477,8.4794,8.7064,8.8402,8.9902,8.9748,8.9171,8.8795,8.7825,8.7055,8.7055,8.6555,8.6094,8.6094,8.6094,8.6094,8.6094,8.6094,8.6017,8.5824,8.5277,8.4816,8.4593,8.3978,8.3524,8.3293,8.267,8.1862,8.0823,8.0169,7.9323,7.8215,7.8215,7.8215,7.8215,7.8215,7.8292,7.8484,7.7445,7.7407,7.8138,7.6438,7.6476,7.7869,7.7869,7.7522,7.6984,7.6984,7.6592,7.6015,7.6015,7.6399,7.6984,7.7215,7.7676,7.8369,0.0,0.0,0.0,0.0,0.0,0.0,0.0,0.0,0.0,0.0,0.0,0.0,0.0,0.0,0.0,0.0,0.0,0.0,0.0,0.0,0.0,0.0,0.0,0.0,0.0,0.0,0.0,0.0,0.0,0.0,7.3217,7.3248,7.4947,7.7723,7.2878,6.9266,6.6758,0.0,0.0,0.0,0.0,0.0,0.0,0.0,0.0,0.0,0.0,0.0,0.0,0.0,0.0,0.0,0.0,6.754,6.749,0.0,0.0,0.0,6.9167,7.193,7.4661,7.8176,8.267,8.6478,8.7401,8.7555,8.7748,8.8526,8.7363,8.617,8.617,8.6132,8.6094,8.6094,8.6094,8.6094,8.6094,8.6094,8.5824,8.5047,8.4931,8.4593,8.3755,8.364,8.3255,8.2439,8.2324,8.1593,7.9931,7.9815,7.9054,7.7407,7.7369,7.7369,7.7369,7.7369,7.7753,7.8484,7.6861,7.6515,7.7292,7.5553,7.5284,7.613,7.613,7.6092,7.6053,7.6053,7.6053,7.6015,7.6015,7.6015,7.6169,7.6984,7.733,7.7599,0.0,0.0,0.0,0.0,0.0,0.0,0.0,0.0,0.0,0.0,0.0,0.0,0.0,0.0,0.0,0.0,0.0,0.0,0.0,0.0,0.0,0.0,0.0,0.0,0.0,0.0,0.0,0.0,0.0,6.7515,7.1091,7.2168,7.3322,7.4406,7.3129,7.1513,6.9719,6.8273,0.0,0.0,0.0,0.0,0.0,0.0,0.0,0.0,0.0,0.0,0.0,0.0,0.0,0.0,0.0,0.0,0.0,0.0,6.5513,6.5359,6.8783,7.0744,7.2899,7.7369,8.1093,8.4055,8.5478,8.6209,8.6517,8.6286,8.5324,8.4478,8.4478,8.5363,8.6094,8.6094,8.6094,8.6094,8.6094,8.5662,8.5209,8.4931,8.3901,8.3093,8.2785,8.2285,8.2093,8.2285,8.1285,8.0439,7.9815,7.8784,7.7669,7.6515,7.6476,7.6476,7.6476,7.6476,7.6592,7.6899,7.6284,7.5861,7.563,7.4976,7.4584,7.443,7.4938,7.5476,7.6015,7.6015,7.6015,7.6015,7.6015,7.6015,7.6053,7.6361,7.6476,7.663,0.0,0.0,0.0,0.0,0.0,0.0,0.0,0.0,0.0,0.0,0.0,0.0,0.0,0.0,0.0,0.0,0.0,0.0,0.0,0.0,0.0,0.0,0.0,0.0,0.0,0.0,0.0,0.0,0.0,0.0,0.0,0.0,7.2206,7.3053,7.3053,7.2539,0.0,0.0,0.0,6.6621,0.0,0.0,6.4246,0.0,0.0,0.0,0.0,0.0,0.0,0.0,0.0,0.0,0.0,0.0,0.0,0.0,0.0,0.0,6.7821,6.9244,7.1168,7.5707,7.8092,8.0092,8.2978,8.3824,8.4093,8.4401,8.3978,8.3601,8.3601,8.4516,8.5363,8.567,8.5709,8.5709,8.5709,8.4978,8.4362,8.4055,8.3016,8.217,8.19,8.1131,8.09,8.1439,8.0169,7.9246,7.8977,7.79,7.6784,7.5592,7.5553,7.5553,7.5553,7.5284,7.5284,7.5553,7.5284,7.4861,7.4276,7.3976,7.3745,7.3507,7.3745,7.4514,7.5592,7.5861,7.6015,7.6015,7.6015,7.6015,7.6015,7.6015,7.6015,7.613,0.0,0.0,0.0,0.0,0.0,0.0,0.0,0.0,0.0,0.0,0.0,0.0,0.0,0.0,0.0,0.0,0.0,0.0,0.0,0.0,0.0,0.0,0.0,0.0,0.0,0.0,0.0,0.0,0.0,0.0,0.0,0.0,7.2168,0.0,7.2937,7.2213,7.2098,0.0,7.0124,6.8698,0.0,6.4641,6.4648,0.0,0.0,0.0,6.6399,6.5691,0.0,6.4519,0.0,0.0,0.0,0.0,0.0,0.0,0.0,0.0,0.0,0.0,0.0,7.2469,7.3392,7.4776,7.9708,8.0208,8.0362,8.2909,8.3409,8.3447,8.3486,8.3524,8.3824,8.4709,8.4854,8.4854,8.4816,8.4093,8.3255,8.2362,8.2247,8.19,8.1131,8.0285,7.9777,7.9815,7.8977,7.8138,7.7369,7.7253,7.6438,7.4738,7.4661,7.4661,7.4661,7.3892,7.3892,7.4661,7.3853,7.3507,7.343,7.2591,7.2629,7.3392,7.2591,7.3129,7.47,7.5592,7.5976,7.5976,7.5976,7.6015,7.6015,7.6015,7.6015,7.613,0.0,0.0,0.0,0.0,0.0,0.0,0.0,0.0,0.0,0.0,0.0,0.0,0.0,0.0,0.0,0.0,0.0,0.0,0.0,0.0,0.0,0.0,0.0,0.0,0.0,0.0,0.0,0.0,0.0,0.0,0.0,0.0,0.0,0.0,7.2507,7.2437,7.1206,7.0398,0.0,0.0,6.748,6.7138,0.0,0.0,0.0,0.0,0.0,6.4956,6.5788,0.0,6.7244,6.8244,0.0,0.0,0.0,0.0,0.0,0.0,6.575,0.0,0.0,0.0,0.0,0.0,7.4322,7.5399,7.6669,7.8638,7.9023,7.94,8.0631,8.1823,8.2747,8.2978,8.3555,8.3747,8.3093,8.2824,8.2362,8.1516,8.09,8.0392,8.0169,7.9361,7.9131,7.9738,7.8438,7.7792,7.8138,7.6438,7.5207,7.47,7.4123,7.3815,7.3815,7.3623,7.3623,7.3815,7.3623,7.3168,7.2552,7.2322,7.1975,7.1668,7.2699,7.3053,7.3014,7.4476,7.5046,7.513,7.5745,7.6015,7.6015,7.6015,7.6015,7.6015,0.0,0.0,0.0,0.0,0.0,0.0,0.0,0.0,0.0,0.0,0.0,0.0,0.0,0.0,0.0,0.0,0.0,0.0,0.0,0.0,0.0,5.5301,5.5882,5.7538,0.0,0.0,0.0,0.0,0.0,0.0,0.0,0.0,0.0,0.0,0.0,0.0,0.0,0.0,0.0,0.0,6.8244,0.0,0.0,6.693,6.6625,0.0,0.0,0.0,6.8064,6.657,6.6974,0.0,0.0,0.0,0.0,0.0,0.0,0.0,0.0,0.0,0.0,0.0,0.0,0.0,7.179,7.2129,7.2668,7.4745,7.5476,7.6245,7.79,7.9592,8.0823,8.1208,8.1977,8.2516,8.2324,8.2016,8.1477,8.0669,8.0123,7.9508,7.8823,7.8284,7.8061,7.8207,7.7323,7.6938,7.7445,7.5707,7.4546,7.4199,7.3399,7.2976,7.2976,7.2591,7.2591,7.2937,7.2584,7.2168,7.1668,7.1668,7.136,7.0975,7.1975,7.2129,7.1745,7.3091,7.386,7.4276,7.513,7.5476,7.5515,7.5861,7.6015,7.6015,0.0,0.0,0.0,0.0,0.0,0.0,0.0,0.0,0.0,0.0,0.0,0.0,0.0,0.0,0.0,0.0,0.0,0.0,0.0,0.0,0.0,5.8368,5.8752,5.9916,6.1911,0.0,0.0,0.0,0.0,0.0,0.0,0.0,0.0,0.0,0.0,0.0,0.0,0.0,0.0,6.8411,6.8411,6.9104,0.0,0.0,7.0227,7.0837,7.0104,7.0283,7.0283,6.6359,6.5422,0.0,0.0,0.0,0.0,0.0,6.6596,0.0,0.0,0.0,0.0,0.0,6.8398,0.0,7.0597,6.9821,6.9045,7.1321,7.2476,7.3623,7.5399,7.7099,7.8484,7.9246,8.0285,8.1246,8.2054,8.1554,8.0785,7.9892,7.97,7.9054,7.7445,7.7138,7.663,7.5784,7.5707,7.5707,7.5707,7.4899,7.4084,7.3392,7.2514,7.2059,7.2059,7.1283,7.1283,7.2059,7.1283,7.0898,7.0898,7.0898,7.0898,7.0898,7.1014,7.0975,7.0975,7.1828,7.2668,7.343,7.4353,7.47,7.4815,7.5668,7.6015,7.6015,0.0,0.0,0.0,0.0,0.0,0.0,0.0,0.0,0.0,0.0,0.0,0.0,0.0,0.0,0.0,0.0,0.0,0.0,0.0,0.0,6.1257,6.0588,6.0656,6.1243,6.2428,6.3253,0.0,0.0,0.0,0.0,0.0,0.0,0.0,0.0,0.0,0.0,0.0,0.0,0.0,6.8638,6.8638,0.0,7.2717,7.0634,7.0402,7.1104,7.0767,7.0783,7.0552,6.8391,6.6942,6.6244,0.0,0.0,0.0,6.7391,0.0,0.0,0.0,0.0,0.0,0.0,6.8398,0.0,6.6667,6.7276,6.8545,6.9045,6.9821,7.1161,7.3546,7.5361,7.6553,7.6707,7.8592,8.0362,8.1208,8.1208,8.0785,7.9892,7.9169,7.8369,7.7407,7.6015,7.4861,7.4046,7.4007,7.4007,7.4007,7.3168,7.2629,7.2476,7.1591,7.1168,7.1168,7.0975,7.0975,7.1168,7.0975,7.0898,7.0898,7.0898,7.0898,7.0937,7.1636,7.1552,7.0975,7.1828,7.229,7.2591,7.413,7.47,7.4815,7.5668,7.6015,7.6015,0.0,0.0,0.0,0.0,0.0,0.0,0.0,0.0,0.0,0.0,0.0,0.0,0.0,0.0,0.0,0.0,0.0,0.0,0.0,0.0,6.4094,6.2845,6.2589,6.2904,6.384,6.4554,6.5196,0.0,0.0,0.0,0.0,0.0,0.0,0.0,0.0,0.0,0.0,0.0,6.9753,7.0783,7.101,0.0,7.3557,7.2212,7.2291,7.3026,7.2532,7.1844,7.0999,6.9745,6.9308,0.0,6.7669,6.7541,6.8052,0.0,6.8167,6.7244,0.0,0.0,0.0,6.8013,6.8398,0.0,0.0,6.6506,6.6853,6.8122,6.809,6.859,7.1129,7.2629,7.386,7.5168,7.643,7.8008,8.0169,8.0439,7.9977,7.8707,7.8176,7.7407,7.613,7.5207,7.4353,7.3546,7.3507,7.3507,7.3507,7.2668,7.2213,7.2213,7.136,7.0898,7.0898,7.0898,7.0898,7.0898,7.0898,7.0898,7.0898,7.0898,7.0898,7.0937,7.136,7.1283,7.0937,7.136,7.1552,7.1706,7.343,7.4353,7.4815,7.5668,7.6015,7.6015,0.0,0.0,0.0,0.0,0.0,0.0,0.0,0.0,0.0,0.0,0.0,0.0,0.0,0.0,0.0,0.0,0.0,0.0,0.0,0.0,0.0,6.467,6.4544,6.4756,6.5222,6.5983,6.6705,6.7359,0.0,0.0,0.0,0.0,0.0,0.0,0.0,0.0,0.0,0.0,0.0,7.2682,0.0,7.3949,7.4058,7.3756,7.4248,7.5018,7.4354,7.3303,7.2085,7.1057,7.1407,7.1741,6.8588,6.9374,0.0,0.0,0.0,0.0,0.0,0.0,0.0,0.0,0.0,6.861,0.0,0.0,0.0,6.7122,6.6628,6.6474,6.8359,6.9513,7.0821,7.2899,7.3783,7.5084,7.7507,7.8277,7.8323,7.7638,7.7099,7.6245,7.4853,7.4238,7.3699,7.3046,7.2853,7.2853,7.3007,7.2014,7.1629,7.1944,7.1129,7.0744,7.0898,7.0898,7.0898,7.0898,7.0898,7.0898,7.0898,7.0898,7.0898,7.0898,7.0898,7.0898,7.0898,7.0898,7.1091,7.1552,7.293,7.3892,7.4584,7.563,7.6015,7.6015,5.1927,5.2623,0.0,0.0,0.0,0.0,0.0,0.0,0.0,0.0,0.0,0.0,0.0,0.0,0.0,0.0,0.0,0.0,7.0672,0.0,0.0,0.0,6.6514,6.6728,6.5833,6.734,6.816,6.8237,6.9122,0.0,0.0,0.0,0.0,0.0,6.7167,0.0,0.0,0.0,6.9833,0.0,7.4226,7.5226,0.0,7.4492,7.4765,7.5498,7.5213,7.5015,7.4647,0.0,7.21,7.1754,0.0,7.1107,6.9529,7.2281,0.0,0.0,0.0,0.0,0.0,0.0,7.2456,7.3283,6.6701,0.0,6.7199,6.4429,0.0,6.5743,6.5282,0.0,0.0,6.7904,7.052,7.2091,7.1014,7.2776,7.5238,7.8023,7.6361,7.4938,7.47,7.2668,7.1283,7.1206,7.0514,7.0437,7.1168,6.9699,6.9507,7.1014,7.0244,7.0167,7.0898,7.0898,7.0898,7.0898,7.0898,7.0898,7.0898,7.0898,7.0898,7.0898,7.0898,7.0898,7.0898,7.0898,7.1822,7.3238,7.343,7.3546,7.3815,7.5438,7.6015,7.6015,0.0,0.0,0.0,0.0,0.0,0.0,0.0,0.0,0.0,0.0,0.0,0.0,0.0,0.0,0.0,0.0,0.0,7.1357,7.0863,0.0,0.0,0.0,6.7833,6.7883,6.7531,6.8616,6.9161,6.9161,6.9975,0.0,0.0,0.0,0.0,0.0,6.7954,0.0,6.9411,0.0,7.1031,0.0,0.0,7.5083,0.0,7.4726,7.4867,7.4925,7.5453,7.5303,7.4639,0.0,7.3039,0.0,0.0,0.0,0.0,7.3988,0.0,0.0,0.0,0.0,0.0,0.0,7.1949,7.1543,6.7767,6.6915,6.6821,6.6353,0.0,0.0,0.0,0.0,0.0,0.0,6.7596,6.8981,7.0206,7.0052,7.086,7.3745,7.3591,7.3053,7.2552,7.1514,7.0706,7.0244,6.9898,6.986,7.0206,6.9552,6.9475,7.0167,6.9398,6.9584,7.0898,7.0437,7.0437,7.0898,7.0898,7.0898,7.0898,7.0898,7.0898,7.0898,7.0898,7.0898,7.0898,7.0898,7.1629,7.2783,7.3315,7.4084,7.5053,7.5745,7.6015,7.6015,0.0,0.0,0.0,0.0,0.0,0.0,0.0,0.0,0.0,0.0,0.0,0.0,8.4437,8.1788,0.0,0.0,7.762,7.4847,7.2507,0.0,7.0622,0.0,0.0,0.0,0.0,6.9866,7.0471,7.0471,7.076,0.0,0.0,0.0,0.0,0.0,0.0,6.9416,7.008,0.0,7.2713,7.3203,7.4883,7.4648,7.3436,7.4638,7.4765,7.4391,7.523,7.5116,7.4332,7.3125,7.385,7.4956,7.328,7.3782,7.4946,0.0,0.0,0.0,7.4152,0.0,0.0,7.2582,7.1373,7.0126,6.8182,6.75,6.7436,6.7936,6.7513,0.0,0.0,0.0,6.4968,6.5782,0.0,6.7019,6.9206,6.7943,6.7789,7.0552,7.1475,7.1591,7.0975,7.0898,7.0667,7.0052,6.959,6.9552,7.0014,6.9167,6.8975,6.9667,6.8622,6.8744,7.0206,6.986,6.9975,7.0552,7.0783,7.0898,7.0898,7.0898,7.0898,7.0898,7.0898,7.0898,7.0898,7.0898,7.1552,7.2629,7.3238,7.4514,7.6015,7.6015,7.6015,7.6015,6.1088,6.0515,0.0,0.0,0.0,0.0,0.0,0.0,7.7589,8.0915,8.1586,8.2815,8.5528,8.3471,8.3237,0.0,0.0,7.7334,7.7803,7.4644,7.0934,0.0,0.0,7.1269,0.0,7.1201,7.2427,7.2427,7.1383,7.0898,0.0,0.0,0.0,0.0,6.9887,7.0964,7.2734,7.3856,7.4864,7.5703,7.4961,7.4101,7.3398,7.4297,7.4478,7.4321,7.4567,7.4481,7.4327,7.4489,7.4438,7.4453,7.5229,7.4831,0.0,0.0,0.0,0.0,0.0,7.6195,7.6477,7.2279,7.1683,7.1075,6.708,6.8544,7.0052,6.7635,7.0398,7.193,6.7821,0.0,0.0,0.0,0.0,0.0,0.0,6.5974,6.7167,7.0514,7.0937,7.0937,7.0898,7.0898,7.0898,7.086,6.9353,6.9161,7.0783,6.7782,6.7167,6.9629,6.8052,6.7552,6.8468,6.9276,6.9706,6.9744,7.0514,7.0898,7.0898,7.0898,7.0898,7.0898,7.0898,7.0898,7.0898,7.0898,7.1898,7.3469,7.3507,7.4514,7.6015,7.6015,7.6015,7.6015,0.0,0.0,0.0,0.0,0.0,0.0,0.0,7.6604,7.9787,8.4366,8.5662,8.757,9.1364,9.0129,8.9484,9.0655,8.6639,8.3124,8.1006,7.8572,0.0,7.2884,0.0,7.3755,0.0,0.0,0.0,0.0,0.0,7.1255,0.0,0.0,0.0,0.0,0.0,7.1885,7.2137,7.5039,7.5115,7.3359,7.3633,7.4961,7.6523,7.4492,7.3358,7.2845,7.3515,7.3709,7.3666,7.371,7.406,7.4561,7.4834,7.5097,7.5386,7.6141,7.6352,7.6344,7.6295,7.6709,7.6489,7.3756,7.282,7.1736,6.8374,6.9785,7.1052,6.8475,7.0014,7.1014,6.8436,0.0,0.0,0.0,0.0,0.0,0.0,6.5397,6.5474,6.659,6.7705,6.8398,6.8398,6.8398,6.8398,6.8398,6.7359,6.7475,6.9161,6.816,6.7936,6.8814,6.7705,6.7513,6.8391,6.8129,6.8552,6.9706,6.9975,7.0398,7.0898,7.0898,7.0898,7.0898,7.0898,7.0898,7.0898,7.0898,7.1591,7.2706,7.3276,7.4161,7.5207,7.5784,7.6015,7.6015,6.4986,0.0,0.0,0.0,0.0,6.88,7.4013,7.81,8.2104,8.6364,8.8388,9.0707,9.4108,9.3354,9.2617,9.2617,9.0039,8.664,8.2578,8.1695,7.9541,7.5625,7.6294,7.6058,0.0,0.0,0.0,0.0,0.0,7.1781,0.0,0.0,0.0,0.0,0.0,7.315,7.2292,7.6353,7.6289,7.3437,7.3984,7.539,7.6875,7.4609,7.3553,7.3235,7.2929,7.2772,7.2806,7.3163,7.3672,7.418,7.4492,7.5,7.5507,7.5957,7.6298,7.6528,7.6461,7.6388,7.5933,7.4324,7.3243,7.1935,6.9431,7.1283,7.2822,7.0283,7.1591,7.2552,7.0584,0.0,0.0,0.0,0.0,0.0,0.0,6.467,6.4324,6.4324,6.5711,6.6789,6.7058,6.7366,6.7436,6.7135,6.6635,6.6667,6.7475,6.7782,6.7936,6.7936,6.7398,6.7366,6.7936,6.7705,6.8129,6.9237,6.986,7.0398,7.0898,7.0898,7.0898,7.0898,7.0898,7.0898,7.0898,7.0898,7.1398,7.229,7.3168,7.4007,7.4815,7.5668,7.6015,7.6015,0.0,0.0,0.0,6.6816,6.9298,7.2682,7.6211,8.0461,8.4318,8.7083,8.9832,9.2226,9.3945,9.3359,9.2851,9.2812,9.125,8.8125,8.3125,8.4199,8.2044,0.0,7.818,7.8255,7.4922,0.0,0.0,0.0,0.0,0.0,0.0,0.0,0.0,0.0,7.4427,7.4667,7.3221,7.7729,7.8203,7.5898,7.5937,7.5508,7.4844,7.4648,7.5068,7.5343,7.2926,7.1942,7.1944,7.2965,7.3359,7.3555,7.4414,7.4687,7.4726,7.4726,7.5312,7.5936,7.5738,7.5518,7.5156,7.4189,7.3082,7.1849,7.0213,7.2976,7.5207,7.2675,7.4829,7.6399,7.3892,7.2706,0.0,0.0,0.0,0.0,0.0,6.3809,6.3802,6.3863,6.4998,6.6083,6.689,6.7704,6.7833,6.6994,6.6891,6.6558,6.5936,6.6673,6.7135,6.7212,6.7289,6.7289,6.7289,6.809,6.8468,6.8545,7.009,7.086,7.0898,7.0898,7.0898,7.0898,7.0898,7.0898,7.0898,7.0898,7.1398,7.229,7.3168,7.4007,7.4853,7.5707,7.6015,7.6015,6.8339,7.0269,7.2002,7.2167,7.1915,7.3304,7.8029,8.1456,8.5582,9.1402,9.3905,9.582,9.75,9.6914,9.6133,9.5547,9.4492,9.2734,9.0117,9.0311,8.8357,8.3437,8.4022,8.2576,7.8476,7.72,7.6409,7.6129,0.0,0.0,7.3566,0.0,0.0,0.0,0.0,7.4898,7.2322,7.687,7.7695,7.5976,7.6601,7.7461,7.8125,7.5586,7.5507,7.6442,7.3906,7.2929,7.2926,7.3203,7.414,7.5273,7.5508,7.6015,7.6523,7.6523,7.668,7.6875,7.6793,7.664,7.6378,7.5976,7.4625,7.3073,7.1851,7.336,7.4322,7.1745,7.3437,7.4784,7.286,7.1822,0.0,0.0,0.0,0.0,0.0,6.39,6.3646,6.457,6.4174,6.417,6.5022,6.5037,6.487,6.4641,6.3872,6.4134,6.5827,6.6673,6.7673,6.8975,6.959,6.9937,6.9937,6.9552,6.9667,7.0244,7.009,7.0321,7.0898,7.0898,7.0898,7.0898,7.0898,7.0898,7.0898,7.0898,7.1398,7.229,7.3168,7.4392,7.5707,7.5938,7.6015,7.6015,7.027,7.3317,7.5956,7.6113,7.6896,7.8381,8.0921,8.3591,8.6953,9.1601,9.4375,9.5859,9.5664,9.6211,9.6289,9.5429,9.457,9.3476,9.2109,9.2383,9.0703,8.6406,8.6562,8.4531,7.9805,7.796,0.0,7.5508,0.0,7.2636,7.3299,7.2595,0.0,0.0,0.0,7.4784,7.3184,7.6522,7.7578,7.7031,7.7148,7.7773,0.0,7.6055,7.5547,7.5859,7.4414,7.3633,7.3437,7.418,7.5078,7.5976,7.6367,7.6797,7.7187,7.7187,7.7187,7.7187,7.71,7.6656,7.6223,7.6423,7.5048,7.3497,7.2909,7.3514,7.3661,7.1822,7.2899,7.3661,7.1937,7.1245,7.0115,0.0,0.0,0.0,0.0,6.3793,6.3593,6.4285,6.3973,6.3785,6.4011,6.3912,6.3634,6.3291,6.3582,6.3749,6.3666,6.6551,6.8167,6.8052,7.0629,7.1514,7.0398,7.1014,7.1014,7.036,7.0283,7.0475,7.0898,7.0898,7.0898,7.0898,7.0898,7.0898,7.0898,7.0898,7.1398,7.2329,7.3546,7.4815,7.6015,7.6015,7.6015,7.6015,7.2461,7.6758,8.0039,7.9023,8.2461,8.5234,8.4687,8.6836,8.9101,9.0781,9.4023,9.5156,9.2422,9.4062,9.4961,9.3984,9.3203,9.2461,9.1679,9.2344,9.1015,8.7031,8.7383,8.5273,8.0156,7.8281,7.6211,0.0,7.3476,7.2969,7.2344,7.3008,0.0,0.0,0.0,0.0,7.4844,7.625,7.7305,7.793,7.7422,7.7187,7.7109,7.6211,7.543,7.4765,7.4765,7.4219,7.3711,7.5351,7.5976,7.6211,7.6953,7.7187,7.7187,7.7187,7.7187,7.7104,7.6939,7.6117,7.5416,7.5976,7.4706,7.3315,7.3315,7.3238,7.2937,7.2168,7.2629,7.2738,7.1321,7.1011,6.9812,0.0,0.0,6.4047,6.3974,6.3867,0.0,6.3937,6.4326,0.0,6.3585,6.3675,6.352,6.2826,6.4394,6.4134,6.1281,6.6167,6.8167,6.6282,7.0744,7.2315,7.0552,7.2392,7.2315,7.036,7.0744,7.0898,7.0898,7.0898,7.0898,7.0898,7.0898,7.0898,7.0898,7.0898,7.1509,7.2589,7.4228,7.5351,7.6048,7.5998,7.6053,7.6169,7.4882,7.9961,8.3242,8.0976,8.4726,8.8476,8.9765,9.2187,9.4453,9.6133,9.9375,10.0312,9.6953,9.6406,9.5625,9.4023,9.375,9.3594,9.3437,9.3594,9.2695,9.0508,8.9179,8.6406,8.1953,7.9492,7.7695,7.6523,7.4375,7.3594,7.414,7.3555,7.2812,0.0,0.0,0.0,7.5664,7.5234,7.5156,7.539,7.668,7.7187,7.7109,7.6211,7.582,7.5664,7.5664,7.5117,7.4531,7.5547,7.6367,7.6992,7.7148,7.7187,7.7187,7.7187,7.7098,7.6941,7.6926,7.5998,7.509,7.5193,7.3824,7.2444,7.2444,7.186,7.1321,7.1168,7.1245,7.1475,7.1898,7.1597,7.0208,6.6809,6.6465,6.647,6.5983,6.5144,0.0,6.5729,6.5585,6.4784,6.3237,6.3546,6.3749,6.3596,6.3084,6.2787,6.2852,6.4545,6.6244,6.7891,7.0167,7.2514,7.4861,7.3245,7.2899,7.3815,7.1822,7.0898,7.0898,7.0898,7.0898,7.0898,7.0898,7.0898,7.0898,7.0898,7.1929,7.369,7.5172,7.5972,7.6225,7.6052,7.6476,7.7061,7.9609,8.332,8.5976,8.5156,8.8554,9.1836,9.3125,9.5508,9.6836,9.5859,9.7187,9.7265,9.4648,9.4844,9.4804,9.3984,9.3476,9.3437,9.3867,9.3476,9.2461,9.0703,8.9804,8.7148,8.2383,8.0195,7.8047,7.5859,7.4609,7.3904,7.377,7.3904,7.3435,7.2558,0.0,7.4648,0.0,7.4961,7.5117,7.5976,7.6367,7.6523,7.6367,7.5078,7.4531,7.4531,7.4531,7.457,7.4805,7.6133,7.6836,7.7187,7.7187,7.7187,7.7187,7.7187,7.7145,7.7002,7.6785,7.5659,7.4547,7.4786,7.3189,7.1636,7.2098,7.1514,7.0898,7.0898,7.1245,7.1713,7.2136,7.0325,6.8578,6.7823,6.6967,6.6322,6.6025,6.519,6.4582,6.4643,6.4296,6.3689,6.2867,6.3665,6.375,6.2605,6.2655,6.2512,6.2012,6.4089,6.5859,6.7051,7.0437,7.2822,7.4014,7.413,7.3899,7.3399,7.1706,7.0898,7.0898,7.0898,7.0898,7.0898,7.0898,7.0898,7.0989,7.1993,7.3197,7.4562,7.5807,7.6306,7.6284,7.621,7.6646,7.7292,8.4336,8.6836,8.8945,8.9219,9.2148,9.4609,9.5117,9.7344,9.7969,9.5078,9.4726,9.3984,9.207,9.3086,9.3828,9.3633,9.3008,9.289,9.3594,9.2812,9.164,9.0078,8.9648,8.7304,8.2695,8.0508,7.793,7.4883,7.4492,7.3784,7.2807,7.3824,7.3665,7.2492,7.2144,7.3125,7.5039,7.4531,7.5234,7.6601,7.5898,7.5625,7.5469,7.4101,7.3594,7.3594,7.3594,7.4023,7.4805,7.6172,7.6875,7.7187,7.7187,7.7187,7.7187,7.7187,7.7187,7.7056,7.6749,7.5461,7.4304,7.4655,7.2961,7.136,7.2059,7.1514,7.0898,7.0898,7.1591,7.2136,7.1944,6.9703,6.815,6.8922,6.7823,6.6672,6.6271,6.5706,6.4913,6.3827,6.38,6.3534,6.2801,6.4044,6.4014,6.1898,6.2695,6.2698,6.1396,6.4051,6.5705,6.5897,7.0321,7.2699,7.2745,7.4168,7.4168,7.2713,7.1475,7.0898,7.0898,7.0898,7.0898,7.0898,7.1091,7.1283,7.1573,7.3088,7.427,7.5168,7.616,7.651,7.6419,7.6343,7.6879,7.76,8.7225,9.0469,9.2812,9.1328,9.3945,9.6015,9.5312,9.7344,9.8594,9.75,9.7344,9.6406,9.3945,9.3789,9.3594,9.2773,9.2656,9.2617,9.2734,9.1914,9.1015,9.0039,8.8554,8.6406,8.3554,8.0273,7.7695,7.5781,7.4219,7.2968,7.2109,7.3008,7.2539,7.0937,7.1679,7.2148,7.2422,7.3125,7.3984,7.4844,7.4765,7.4726,7.4687,7.4531,7.4492,7.4492,7.4492,7.4531,7.4609,7.4805,7.5898,7.7187,7.7187,7.7187,7.7187,7.7187,7.7056,7.6928,7.6872,7.5896,7.4937,7.4962,7.3497,7.2098,7.2175,7.1514,7.0898,7.0898,7.1591,7.1944,7.1168,7.2024,7.2112,6.9966,7.0324,7.0217,6.8402,6.8296,6.7697,6.5843,6.6941,6.6653,6.3533,6.4763,6.5038,6.3271,6.3218,6.3237,6.3083,6.4128,6.5089,6.5859,6.859,7.1475,7.443,7.2399,7.2437,7.443,7.2052,7.0898,7.0898,7.0898,7.0898,7.0937,7.1745,7.2514,7.3283,7.3434,7.4204,7.5339,7.6041,7.6521,7.6783,7.6438,7.7318,7.8644,9.0086,9.1218,9.2585,9.3951,9.4602,9.5351,9.6523,9.7578,9.7929,9.7109,9.6992,9.6406,9.4844,9.4219,9.3554,9.2695,9.2617,9.2617,9.2617,9.2265,9.1679,9.082,8.9648,8.7539,8.4453,8.2539,7.9687,7.5898,7.5742,7.4606,7.2591,7.2536,7.1875,7.0703,7.1055,7.1797,7.2773,7.2578,7.332,7.4531,7.4023,7.3828,7.375,7.3242,7.3047,7.3047,7.3047,7.3398,7.3828,7.3828,7.4961,7.6406,7.6406,7.6797,7.7187,7.7187,7.7146,7.7053,7.6934,7.6049,7.5145,7.5031,7.3979,7.2976,7.2976,7.2322,7.1668,7.1668,7.1552,7.1475,7.1629,7.1822,7.1937,7.1968,7.1502,7.0645,6.9371,6.7962,6.6577,6.5263,6.4359,6.3512,6.2666,6.4596,6.559,6.4897,6.3435,6.2781,6.3275,6.2666,6.3628,6.6519,6.7716,7.0141,7.393,7.2565,7.2565,7.3969,7.1898,7.0898,7.0898,7.0898,7.1206,7.1713,7.2059,7.2976,7.4221,7.4366,7.5051,7.6123,7.6508,7.6755,7.6946,7.7311,7.8085,7.8979,9.2389,9.2344,9.3194,9.6629,9.5997,9.5781,9.8125,9.7812,9.7148,9.6562,9.6289,9.5781,9.4922,9.4023,9.3359,9.3008,9.2734,9.2695,9.2969,9.2734,9.2226,9.1328,9.0469,8.8633,8.5742,8.4297,8.1445,7.7031,7.7148,7.566,7.2698,7.2223,7.1523,7.0703,7.125,7.1875,7.25,7.2148,7.2851,7.414,7.3281,7.293,7.2851,7.2226,7.1992,7.1992,7.1992,7.2383,7.293,7.293,7.3906,7.5195,7.543,7.6133,7.6836,7.6836,7.6992,7.7147,7.6942,7.6287,7.5646,7.5444,7.459,7.3853,7.3853,7.3206,7.2514,7.2252,7.1514,7.1168,7.2059,7.1713,7.1706,7.2937,7.186,7.0514,6.9468,6.7782,6.6205,6.5128,6.3589,6.271,6.2826,6.4474,6.5628,6.5859,6.4019,6.3205,6.4006,6.276,6.3466,6.6705,6.7726,6.9852,7.3231,7.2507,7.2507,7.3269,7.1711,7.1022,7.108,7.1356,7.2051,7.3094,7.2803,7.3665,7.5264,7.505,7.5655,7.6715,7.685,7.6934,7.7108,7.7905,7.8623,7.9231,9.4004,9.4576,9.5814,9.9248,9.8615,9.8242,10.0,9.8125,9.6523,9.6484,9.5742,9.4883,9.4023,9.3125,9.2969,9.3828,9.3086,9.2969,9.3828,9.3086,9.2226,9.1328,9.0469,8.9219,8.75,8.4922,8.2304,7.9648,7.8008,7.543,7.1992,7.1992,7.1523,7.0781,7.25,7.2305,7.0781,7.164,7.25,7.3242,7.2383,7.2031,7.1992,7.1992,7.1992,7.1992,7.1992,7.1992,7.2031,7.2031,7.2617,7.3476,7.4336,7.5195,7.5937,7.5937,7.6523,7.7147,7.6945,7.6755,7.6533,7.633,7.5478,7.47,7.47,7.4046,7.3238,7.2367,7.1514,7.1168,7.2059,7.2175,7.2175,7.2213,7.1475,7.0321,6.866,6.8391,6.7737,6.609,6.6558,6.6365,6.4743,6.4589,6.4974,6.5827,6.5051,6.4936,6.582,6.5152,6.5184,6.6089,6.8735,7.0962,7.2673,7.173,7.173,7.2709,7.1682,7.1308,7.1513,7.2376,7.3703,7.5209,7.4213,7.4824,7.6482,7.5445,7.5747,7.688,7.6882,7.7006,7.7265,7.7966,7.871,7.9528,9.3678,9.4634,9.5744,9.7343,9.7549,9.7692,9.824,9.7297,9.6484,9.6484,9.5234,9.4219,9.3945,9.3633,9.3359,9.3047,9.2773,9.2734,9.3008,9.2734,9.2226,9.1328,9.0469,8.8945,8.664,8.5234,8.3203,8.0586,8.0039,7.8047,7.4648,7.4648,7.3867,7.2539,7.3672,7.3867,7.3359,7.3008,7.3047,7.3203,7.2344,7.1992,7.1992,7.1992,7.1992,7.1992,7.1992,7.1992,7.1992,7.1992,7.2187,7.2461,7.2734,7.4258,7.5898,7.5898,7.6437,7.6991,7.6929,7.6635,7.6371,7.6322,7.5942,7.5592,7.5592,7.4938,7.3937,7.2482,7.1982,7.1675,7.136,7.179,7.2213,7.2213,7.1475,7.0514,6.9436,6.7782,6.6513,6.5981,6.5089,6.4551,6.4589,6.616,6.7101,6.6935,6.7724,6.7525,6.5993,6.5742,6.6365,6.7813,6.8957,7.1095,7.4446,7.311,7.3106,7.4442,7.3531,7.315,7.3207,7.348,7.4219,7.5263,7.4966,7.5518,7.6579,7.6241,7.6407,7.6919,7.6919,7.7006,7.7344,7.8707,7.9367,7.9796,9.3403,9.3856,9.475,9.7151,9.7213,9.7021,9.7331,9.6624,9.5898,9.5586,9.4297,9.3398,9.3398,9.3398,9.332,9.3125,9.2773,9.2734,9.3086,9.2773,9.2226,9.1328,9.0469,8.8945,8.6758,8.582,8.4258,8.1992,8.0976,7.9609,7.7773,7.6836,7.582,7.4765,7.5,7.4922,7.4531,7.3672,7.3281,7.3203,7.2344,7.1992,7.1992,7.1992,7.1992,7.1992,7.1992,7.1992,7.1992,7.1992,7.1992,7.1992,7.1992,7.3359,7.4922,7.4838,7.5359,7.5889,7.5758,7.5776,7.5769,7.5731,7.5843,7.6015,7.6015,7.5322,7.4392,7.336,7.2899,7.2437,7.1552,7.1828,7.2098,7.1752,7.0744,6.9783,6.9276,6.7013,6.5513,6.5865,6.4936,6.4359,6.4589,6.6669,6.7702,6.6985,6.8842,6.8867,6.6214,6.6539,6.7277,6.837,6.9607,7.1637,7.4539,7.3827,7.4022,7.5047,7.4503,7.4388,7.4702,7.4702,7.5207,7.6022,7.5933,7.6251,7.6836,7.6744,7.6841,7.704,7.7354,7.7568,7.789,7.957,8.0195,8.039,9.2979,9.2481,9.318,9.7912,9.716,9.6188,9.6956,9.5916,9.4726,9.3906,9.3086,9.2617,9.2617,9.2539,9.2851,9.3633,9.3047,9.2929,9.375,9.3008,9.2109,9.125,9.0351,8.914,8.7461,8.6562,8.5273,8.3594,8.1211,8.0469,8.1133,7.8672,7.75,7.7344,7.6406,7.5469,7.4531,7.3672,7.3281,7.3125,7.2344,7.1992,7.1992,7.1992,7.1992,7.1992,7.1992,7.1992,7.1992,7.1992,7.2031,7.2109,7.2109,7.2695,7.3358,7.3088,7.369,7.4305,7.3937,7.4493,7.51,7.4794,7.5375,7.6015,7.6015,7.5361,7.4776,7.47,7.4084,7.3315,7.2437,7.2252,7.1898,7.1052,6.9436,6.8276,6.8237,6.6186,6.5011,6.582,6.6075,6.5863,6.4971,6.6513,6.7245,6.6475,6.8706,6.9113,6.6813,6.7641,6.8155,6.8071,7.0736,7.2617,7.3555,7.4116,7.4546,7.4765,7.4765,7.5195,7.5976,7.5976,7.6445,7.7187,7.7,7.7047,7.7187,7.6998,7.7085,7.7383,7.8164,7.8515,7.8789,8.039,8.1015,8.1133,9.0816,9.1613,9.2652,9.3902,9.3977,9.3882,9.3891,9.353,9.3083,9.2736,9.2648,9.2617,9.2617,9.1992,9.1679,9.1914,9.2344,9.2695,9.289,9.2109,9.1211,9.0351,8.9453,8.8203,8.6523,8.5664,8.4687,8.3594,8.3633,8.3437,8.2969,8.1679,8.039,7.9023,7.7578,7.6055,7.4531,7.3672,7.293,7.2305,7.207,7.1992,7.1992,7.1992,7.1992,7.1992,7.1992,7.1992,7.1992,7.1992,7.2422,7.3008,7.3008,7.3594,7.414,7.3435,7.4193,7.5114,7.4395,7.5654,7.6851,7.5321,7.5478,7.6015,7.6015,7.5822,7.5515,7.4853,7.4546,7.4161,7.3353,7.2629,7.1898,7.1052,6.8936,6.7205,6.659,6.6041,6.5804,6.6036,6.789,6.8847,6.7985,6.8882,6.951,6.947,6.9458,6.9504,6.9672,7.0541,7.0692,6.991,7.2533,7.4726,7.625,7.5779,7.5897,7.6562,7.6562,7.668,7.6875,7.6875,7.6992,7.7187,7.7146,7.7147,7.7187,7.7146,7.7537,7.8203,7.8437,7.8867,7.9531,8.0625,8.1015,8.1133,9.0355,9.0325,9.0902,9.3258,9.3291,9.2959,9.2813,9.2834,9.2583,9.1794,9.1446,9.1319,9.1406,9.0976,9.0547,9.0156,9.0898,9.1562,9.1992,9.1172,9.0508,9.0039,8.9179,8.7929,8.625,8.5351,8.4453,8.3594,8.4062,8.4258,8.414,8.25,8.1211,8.0195,7.8125,7.668,7.5703,7.4414,7.3633,7.3164,7.2734,7.2578,7.2578,7.2578,7.2578,7.2539,7.2148,7.2265,7.2578,7.2578,7.3164,7.3906,7.3906,7.4219,7.4492,7.4023,7.4437,7.4882,7.4321,7.5417,7.6424,7.5273,7.5577,7.6108,7.6012,7.6322,7.6553,7.6476,7.613,7.563,7.4822,7.363,7.2399,7.1129,6.9436,6.7879,6.6752,6.6655,6.6716,6.6823,6.8451,6.9406,6.8936,7.0086,7.0619,6.9976,7.0631,7.0966,7.0703,7.2656,7.2967,7.1235,7.3787,7.5664,7.6601,7.6523,7.6719,7.7187,7.7187,7.7187,7.7187,7.7187,7.7187,7.7187,7.7187,7.7422,7.7773,7.7773,7.8281,7.9101,7.9492,7.9922,8.039,8.1289,8.1601,8.164,9.0017,8.8786,8.8748,9.3104,9.2852,9.2057,9.2224,9.2364,9.2073,9.0954,9.0204,8.9811,8.996,8.9883,8.9492,8.875,8.9258,9.0039,9.1054,9.0273,8.9804,8.9804,8.8984,8.7773,8.6211,8.5234,8.4297,8.3398,8.3554,8.3984,8.4648,8.2422,8.125,8.0898,7.8594,7.7344,7.6914,7.543,7.4726,7.4531,7.3789,7.3515,7.3515,7.3515,7.3515,7.3398,7.2656,7.2851,7.3515,7.3515,7.4062,7.4805,7.4805,7.4883,7.5,7.5,7.4872,7.4627,7.4216,7.4706,7.5387,7.5477,7.5929,7.6278,7.6106,7.6609,7.7357,7.8153,7.7792,7.7053,7.6322,7.4822,7.3105,7.1434,7.0131,6.8856,6.7445,6.7372,6.7588,6.79,6.8992,6.9749,6.9749,7.1201,7.1594,7.0309,7.2025,7.2617,7.1523,7.418,7.4765,7.2656,7.4883,7.6094,7.6094,7.6836,7.7187,7.7187,7.7187,7.7187,7.7187,7.7187,7.7187,7.7226,7.7344,7.7812,7.8515,7.8633,7.914,7.9961,8.0703,8.1094,8.1289,8.2031,8.2304,8.2304,8.6978,8.7171,8.7632,8.844,8.8519,8.8726,8.9469,8.9328,8.9311,8.9838,8.9939,8.996,9.0,8.9336,8.8867,8.8711,8.8203,8.8554,9.0117,8.9375,8.8906,8.8906,8.8125,8.7226,8.6211,8.4609,8.3359,8.25,8.3242,8.3672,8.3789,8.3398,8.2422,8.0937,7.9805,7.8125,7.6094,7.582,7.5273,7.4609,7.4453,7.4414,7.4414,7.4414,7.4414,7.4375,7.4258,7.4297,7.4414,7.4414,7.4961,7.5703,7.5703,7.6211,7.6797,7.6797,7.6757,7.6404,7.4916,7.5001,7.5916,7.7346,7.7128,7.6518,7.63,7.6349,7.6653,7.7357,7.7407,7.7253,7.7138,7.5668,7.4035,7.2501,6.9721,6.7493,6.6684,6.7299,6.8111,6.8869,7.1773,7.3705,7.3705,7.3981,7.4334,7.4803,7.3203,7.3047,7.5,7.4922,7.4961,7.5273,7.6406,7.6992,7.6992,7.7148,7.7187,7.7187,7.7187,7.7187,7.7187,7.7187,7.7187,7.7226,7.7969,7.8359,7.8555,7.9219,8.0039,8.082,8.0937,8.1445,8.2109,8.2265,8.2304,8.2304,8.6786,8.6748,8.7132,8.8517,8.8451,8.8505,8.9354,8.906,8.874,8.881,8.8595,8.8502,8.8632,8.8281,8.8047,8.8047,8.7695,8.7812,8.8594,8.8281,8.8242,8.8672,8.7929,8.6875,8.5547,8.4726,8.3633,8.2304,8.2695,8.3125,8.3554,8.2148,8.1328,8.0937,7.914,7.7695,7.6562,7.6094,7.5664,7.5312,7.5312,7.5312,7.5312,7.5312,7.5312,7.5234,7.4765,7.4883,7.5351,7.5859,7.6289,7.668,7.7148,7.7265,7.7187,7.7187,7.7187,7.7031,7.6211,7.6246,7.6502,7.6741,7.6767,7.6718,7.6527,7.6781,7.7326,7.8092,7.791,7.7561,7.7561,7.5779,7.4237,7.4019,7.1154,6.8854,6.8644,6.9367,6.9956,6.9986,7.2732,7.4609,7.4609,7.5039,7.5469,7.5859,7.5234,7.5547,7.7226,7.6914,7.6875,7.7305,7.7226,7.7187,7.7187,7.7187,7.7422,7.789,7.789,7.8125,7.8555,7.8555,7.8555,7.8555,7.8984,7.9414,7.9883,8.0234,8.0898,8.1719,8.1719,8.2226,8.3008,8.3008,8.3008,8.3086,8.6978,8.6555,8.6709,8.8662,8.8671,8.8631,8.9355,8.9248,8.8888,8.8322,8.7789,8.7472,8.75,8.75,8.75,8.75,8.75,8.75,8.75,8.75,8.7773,8.8398,8.7422,8.6172,8.4648,8.4414,8.3633,8.2304,8.2304,8.2656,8.3242,8.125,8.0469,8.0625,7.8633,7.7578,7.7148,7.6484,7.6211,7.6211,7.6211,7.6211,7.6211,7.6211,7.6211,7.6094,7.543,7.5625,7.6328,7.7226,7.75,7.7656,7.8515,7.832,7.7773,7.7773,7.7773,7.7734,7.7539,7.7656,7.7577,7.6771,7.7069,7.7513,7.7311,7.7738,7.8422,7.9228,7.8871,7.833,7.8135,7.6345,7.4927,7.5054,7.2519,7.0619,7.0813,7.1369,7.1813,7.1914,7.3672,7.5117,7.5742,7.6211,7.6562,7.6758,7.7383,7.8086,7.875,7.8789,7.8789,7.8789,7.7969,7.7578,7.7773,7.7773,7.8125,7.8789,7.8789,7.9101,7.9687,7.9687,7.9687,7.9726,7.9922,8.039,8.1015,8.1211,8.1719,8.2304,8.2304,8.2812,8.3594,8.3594,8.3711,8.3984,8.617,8.6132,8.617,8.6363,8.7017,8.7672,8.8143,8.8844,8.9115,8.8702,8.8593,8.832,8.7578,8.75,8.75,8.75,8.75,8.75,8.75,8.75,8.7539,8.7578,8.5976,8.4648,8.3711,8.289,8.2422,8.2304,8.2304,8.2344,8.2383,8.2187,8.1289,7.9805,7.9609,7.8633,7.7187,7.7148,7.7109,7.7109,7.7109,7.7109,7.7109,7.7109,7.7109,7.7109,7.7031,7.7031,7.7226,7.8125,7.8398,7.8555,7.9375,7.957,7.9531,7.9531,7.9531,7.9336,7.8594,7.8945,7.9492,7.9414,7.9453,7.9449,7.9239,7.9256,7.9498,8.0171,8.0252,7.9975,7.9154,7.822,7.6914,7.4739,7.2808,7.1671,7.1873,7.1953,7.2851,7.5234,7.5703,7.6719,7.9101,7.8711,7.8633,7.9375,7.9492,7.9531,7.9609,7.9609,7.9609,7.9609,7.8828,7.875,7.9492,7.9531,7.9531,7.9609,7.9609,7.9648,7.9687,7.9687,7.9687,7.9726,8.0547,8.0937,8.1054,8.1875,8.2226,8.2304,8.2304,8.2812,8.3594,8.3594,8.4101,8.4804,8.6094,8.6094,8.6094,8.6094,8.6501,8.6912,8.7093,8.7585,8.7887,8.7734,8.7846,8.7851,8.7539,8.75,8.75,8.75,8.75,8.75,8.75,8.75,8.7265,8.6719,8.6054,8.5039,8.3633,8.3281,8.2851,8.2304,8.2304,8.2304,8.2304,8.1758,8.1133,8.0469,7.9922,7.9062,7.8008,7.8008,7.7695,7.7187,7.7187,7.7539,7.8008,7.8008,7.832,7.875,7.875,7.875,7.8867,7.9765,7.9687,7.9375,8.0234,8.0156,7.9687,7.9687,8.0078,8.0429,8.0117,7.9883,7.9687,7.9687,7.9687,7.9687,7.9602,7.9599,7.9673,7.9923,7.9957,7.9879,7.9528,7.8825,7.8326,7.8425,7.6122,7.4721,7.5859,7.5586,7.5586,7.6601,7.7617,7.8633,7.9609,7.9922,8.0195,8.0469,8.1015,8.1328,8.1328,8.0781,8.0742,8.1289,8.0508,7.9922,7.9687,7.9687,7.9961,8.0508,8.0508,8.0781,8.1328,8.1328,8.1328,8.1328,8.164,8.1797,8.1836,8.2148,8.2617,8.3125,8.3125,8.3984,8.5195,8.5195,8.5429,8.5781,8.6094,8.6094,8.6135,8.6231,8.6587,8.6818,8.6695,8.7407,8.7741,8.7301,8.761,8.7773,8.7539,8.75,8.75,8.75,8.75,8.75,8.75,8.75,8.7109,8.625,8.5937,8.5117,8.3633,8.332,8.289,8.2304,8.2304,8.2304,8.2304,8.1679,8.125,8.0976,8.039,7.9648,7.8867,7.8867,7.8515,7.8008,7.8008,7.8359,7.8867,7.8867,7.9219,7.9687,7.9687,7.9687,7.9844,8.0703,8.0586,8.0273,8.1133,8.1015,8.0508,8.0508,8.0937,8.1406,8.1406,8.0976,8.0508,8.0508,8.0508,8.0508,8.0508,8.0508,8.0586,8.0859,8.0703,8.0508,8.0508,7.9844,7.9492,8.0117,7.8242,7.7148,7.832,7.8008,7.7812,7.832,7.918,7.9922,8.0469,8.082,8.1094,8.1406,8.1953,8.2304,8.2304,8.1719,8.1679,8.2265,8.1719,8.1133,8.0508,8.0508,8.082,8.1406,8.1406,8.1719,8.2304,8.2304,8.2461,8.2695,8.2422,8.2461,8.2695,8.2422,8.2656,8.3203,8.3476,8.4492,8.582,8.6094,8.6367,8.6679,8.6094,8.6094,8.6192,8.6462,8.7177,8.758,8.7143,8.8585,8.9168,8.7694,8.8203,8.8398,8.7578,8.75,8.75,8.75,8.75,8.75,8.75,8.75,8.7109,8.625,8.5351,8.4492,8.3633,8.2734,8.2304,8.2304,8.2304,8.2304,8.2304,8.2304,8.1836,8.1015,8.1015,8.0547,7.9726,7.9726,7.9726,7.9687,7.9687,7.9687,7.9726,7.9726,7.9726,7.9726,7.9726,7.9726,7.9844,8.0703,8.1015,8.1172,8.2031,8.2304,8.2304,8.2304,8.2304,8.2304,8.2304,8.2304,8.2304,8.2304,8.2304,8.2304,8.2304,8.2304,8.2578,8.3437,8.2929,8.2304,8.2304,8.1601,8.0469,7.8789,7.8515,7.8515,7.8515,7.8515,7.914,8.082,8.0234,8.039,8.2148,8.1523,8.1367,8.2226,8.2304,8.2304,8.2304,8.2304,8.2304,8.2304,8.2304,8.2304,8.2304,8.2304,8.2304,8.2304,8.2304,8.2304,8.2304,8.2304,8.2773,8.3554,8.2695,8.2812,8.3515,8.2656,8.2304,8.2422,8.3281,8.414,8.5039,8.5898,8.6758,8.75,8.6346,8.6362,8.6436,8.6666,8.704,8.7241,8.7133,8.7704,8.8003,8.7578,8.7695,8.7773,8.7539,8.75,8.75,8.75,8.75,8.75,8.75,8.75,8.7383,8.7109,8.5703,8.4492,8.3633,8.2734,8.2304,8.2304,8.2304,8.2304,8.2304,8.2304,8.2148,8.1914,8.1914,8.1445,8.0625,8.0625,8.0273,7.9687,7.9687,8.0078,8.0625,8.0625,8.0976,8.1523,8.1523,8.1523,8.1562,8.1836,8.1914,8.207,8.2929,8.3203,8.332,8.3945,8.4101,8.4101,8.4101,8.3672,8.3086,8.2461,8.2304,8.2461,8.3086,8.3203,8.3476,8.4336,8.3828,8.3203,8.3203,8.25,8.1758,8.125,8.1172,8.1172,8.1172,8.1172,8.1367,8.1836,8.1679,8.1719,8.2265,8.207,8.2031,8.2265,8.2304,8.2578,8.3164,8.3203,8.3476,8.4101,8.3515,8.3203,8.3203,8.2617,8.2304,8.2304,8.2304,8.2617,8.3203,8.3203,8.3672,8.4492,8.4258,8.3906,8.3594,8.332,8.3554,8.414,8.4414,8.5429,8.6758,8.7031,8.7265,8.75,8.6449,8.6519,8.6577,8.6887,8.7013,8.7157,8.7232,8.7416,8.75,8.75,8.75,8.75,8.75,8.75,8.75,8.75,8.75,8.75,8.75,8.75,8.75,8.75,8.6172,8.5156,8.4648,8.3437,8.2812,8.2812,8.2461,8.2304,8.2304,8.2304,8.2304,8.2304,8.2304,8.1992,8.1523,8.1523,8.1211,8.0742,8.0742,8.1054,8.1523,8.1523,8.1836,8.2304,8.2304,8.2304,8.2304,8.2304,8.2539,8.2969,8.3828,8.4101,8.4297,8.5156,8.5156,8.4961,8.5312,8.4765,8.3984,8.3476,8.2812,8.2539,8.3398,8.3594,8.3945,8.5156,8.4726,8.4219,8.457,8.3906,8.332,8.332,8.332,8.332,8.332,8.3047,8.2812,8.2812,8.25,8.2304,8.2304,8.2304,8.2304,8.2304,8.2617,8.3047,8.3554,8.3945,8.4375,8.4883,8.4375,8.4101,8.4101,8.3594,8.3164,8.2812,8.2812,8.3281,8.4101,8.4101,8.4609,8.539,8.5039,8.4804,8.4609,8.4258,8.4414,8.4922,8.5273,8.6054,8.7031,8.7383,8.75,8.75,8.6449,8.6523,8.6674,8.7078,8.7157,8.7225,8.746,8.75,8.75,8.746,8.75,8.75,8.746,8.75,8.75,8.75,8.75,8.75,8.75,8.75,8.75,8.75,8.6758,8.6328,8.6328,8.4609,8.3711,8.3711,8.2929,8.2539,8.2539,8.2539,8.2539,8.2539,8.2461,8.2422,8.2422,8.2344,8.2304,8.2304,8.2304,8.2304,8.2304,8.2383,8.2383,8.2304,8.2383,8.2383,8.2304,8.2383,8.2929,8.3789,8.4726,8.5039,8.5195,8.6054,8.5742,8.5312,8.6094,8.5664,8.5039,8.5039,8.375,8.2773,8.3633,8.3828,8.4297,8.5976,8.5625,8.5273,8.6054,8.5508,8.4883,8.4883,8.4883,8.4883,8.4804,8.4101,8.3554,8.3476,8.2851,8.2383,8.2304,8.2383,8.2461,8.2539,8.3281,8.375,8.3828,8.457,8.5039,8.5117,8.5078,8.5039,8.5039,8.4922,8.4492,8.3711,8.3711,8.4179,8.5039,8.5039,8.5508,8.6289,8.5469,8.5547,8.6133,8.5351,8.5039,8.5117,8.5898,8.625,8.6406,8.7226,8.75,8.75,8.6651,8.6738,8.688,8.7327,8.7418,8.7419,8.75,8.75,8.7419,8.7223,8.7374,8.7418,8.7222,8.7374,8.75,8.75,8.75,8.75,8.75,8.75,8.75,8.75,8.7304,8.7226,8.7226,8.5508,8.4609,8.4609,8.4414,8.4336,8.4336,8.4336,8.4336,8.4297,8.3633,8.332,8.3281,8.2578,8.2304,8.2304,8.2304,8.2304,8.2383,8.3047,8.289,8.2383,8.3086,8.289,8.2383,8.3086,8.3437,8.3867,8.5429,8.5937,8.6094,8.6953,8.707,8.6992,8.7187,8.6562,8.5937,8.5937,8.5117,8.457,8.5429,8.5625,8.5937,8.6992,8.6523,8.5976,8.6172,8.5508,8.4883,8.4883,8.4883,8.4648,8.3984,8.3711,8.3359,8.2656,8.3008,8.3047,8.2383,8.2929,8.3594,8.4297,8.4492,8.4922,8.5586,8.582,8.6211,8.6914,8.6289,8.5937,8.5937,8.5234,8.4804,8.4609,8.4609,8.5078,8.5937,8.5937,8.6406,8.7226,8.7031,8.664,8.6172,8.6015,8.5937,8.5937,8.6133,8.6601,8.7226,8.7422,8.75,8.75,8.6594,8.6679,8.6761,8.7121,8.7151,8.7151,8.7151,8.7151,8.713,8.698,8.7073,8.7128,8.6977,8.7075,8.7209,8.7284,8.7419,8.75,8.75,8.75,8.75,8.75,8.75,8.75,8.75,8.6601,8.5937,8.5508,8.5117,8.4883,8.4883,8.4883,8.4883,8.4844,8.3984,8.3594,8.3554,8.2656,8.2304,8.2304,8.2304,8.2304,8.2383,8.3281,8.332,8.2969,8.3437,8.332,8.3125,8.4414,8.4844,8.5078,8.6406,8.6836,8.6992,8.7812,8.7812,8.7578,8.7969,8.7461,8.6836,8.6836,8.6484,8.6133,8.6172,8.6211,8.6445,8.7304,8.7148,8.6836,8.6836,8.6445,8.6133,8.6133,8.6133,8.5976,8.5508,8.5117,8.4687,8.4219,8.4219,8.4023,8.3594,8.3945,8.4414,8.4883,8.5273,8.5703,8.6172,8.6601,8.7031,8.75,8.707,8.6836,8.6836,8.6367,8.6133,8.6133,8.5703,8.5976,8.6836,8.6836,8.707,8.75,8.75,8.7226,8.6836,8.6836,8.6836,8.6836,8.6836,8.7109,8.75,8.75,8.75,8.75,8.6449,8.6519,8.6543,8.6774,8.6817,8.6817,8.6817,8.6817,8.6804,8.6761,8.6791,8.68,8.6761,8.6829,8.6936,8.7096,8.7331,8.75,8.75,8.75,8.75,8.75,8.75,8.75,8.75,8.75,8.7148,8.6406,8.5703,8.5351,8.5351,8.5351,8.5351,8.5312,8.4414,8.3945,8.3789,8.289,8.2539,8.2539,8.2539,8.2617,8.2851,8.3711,8.3945,8.3828,8.3984,8.3945,8.4062,8.5664,8.6211,8.6367,8.7226,8.75,8.7617,8.8281,8.8008,8.7656,8.832,8.8008,8.75,8.75,8.75,8.7304,8.6601,8.6406,8.664,8.7344,8.75,8.75,8.75,8.75,8.75,8.75,8.75,8.7461,8.7304,8.664,8.6133,8.6015,8.5351,8.5039,8.5312,8.5195,8.5195,8.5312,8.6015,8.6406,8.6406,8.7109,8.75,8.75,8.75,8.75,8.75,8.75,8.75,8.75,8.6758,8.6797,8.75,8.75,8.75,8.75,8.75,8.75,8.75,8.75,8.75,8.75,8.75,8.75,8.75,8.75,8.75,8.75,8.6449,8.6519,8.6543,8.6774,8.6817,8.6817,8.6817,8.6817,8.6742,8.6543,8.6686,8.6738,8.6576,8.6833,8.7087,8.7102,8.7331,8.75,8.75,8.75,8.75,8.75,8.75,8.75,8.75,8.75,8.7422,8.7304,8.7226,8.7148,8.7148,8.7148,8.7148,8.7109,8.625,8.5429,8.4687,8.3789,8.3437,8.3437,8.3437,8.3867,8.4648,8.5508,8.539,8.4804,8.5586,8.5351,8.4883,8.5859,8.6211,8.6367,8.7226,8.75,8.7539,8.7617,8.7578,8.7539,8.7617,8.7578,8.75,8.75,8.75,8.7461,8.7344,8.7304,8.7344,8.7461,8.75,8.75,8.75,8.75,8.75,8.75,8.75,8.7226,8.6484,8.6289,8.5937,8.5156,8.4961,8.5508,8.6992,8.6484,8.6328,8.7109,8.7265,8.7304,8.7304,8.7422,8.75,8.75,8.75,8.75,8.75,8.75,8.75,8.75,8.7383,8.7383,8.75,8.75,8.75,8.75,8.75,8.75,8.75,8.75,8.75,8.75,8.75,8.75,8.75,8.75,8.75,8.75,8.6253,8.629,8.6303,8.6391,8.6417,8.6417,8.6417,8.6417,8.6364,8.6274,8.6362,8.6396,8.6312,8.6686,8.6983,8.7098,8.7331,8.75,8.75,8.75,8.75,8.75,8.75,8.75,8.75,8.75,8.75,8.75,8.75,8.75,8.75,8.75,8.75,8.7461,8.6601,8.5976,8.5586,8.4687,8.4336,8.4336,8.4336,8.457,8.5,8.5859,8.5976,8.5742,8.6601,8.6367,8.5742,8.664,8.6914,8.6992,8.7383,8.75,8.75,8.75,8.75,8.75,8.75,8.75,8.75,8.75,8.75,8.75,8.75,8.75,8.75,8.75,8.75,8.75,8.75,8.75,8.75,8.75,8.75,8.7383,8.6992,8.6914,8.6797,8.6406,8.6367,8.664,8.7422,8.7148,8.7109,8.7461,8.75,8.75,8.75,8.75,8.75,8.75,8.75,8.75,8.75,8.75,8.75,8.75,8.75,8.75,8.75,8.75,8.75,8.75,8.75,8.75,8.75,8.75,8.75,8.75,8.75,8.75,8.75,8.75,8.75,8.75]}]]